     2              OBSERVATION DATA    G (GPS)             RINEX VERSION / TYPE
ASRINEXO V2.4.4 UX USGS 20-AUG-96 15:58                     PGM / RUN BY / DATE
Crustal Strain Project                                      COMMENT
U.S. Geological Survey, Menlo Park, California 94025        COMMENT
345 Middlefield Road, MS/977                                COMMENT
Contact: kwendt@isdmnl.wr.usgs.gov (Ph: 415-329-4866)       COMMENT
HI's are vertical to base of antenna                        COMMENT
uu83                                                        MARKER NAME
JLS USGS                                                    OBSERVER / AGENCY
4600 ASHTECH Z-XII3 1F00                                    REC # / TYPE / VERS
1036 ASH700228D NONE                                        ANT # / TYPE
 -2495591.0000 -4266428.0000  4021057.0000                  APPROX POSITION XYZ
        1.1869        0.0000        0.0000                  ANTENNA: DELTA H/E/N
     1     1                                                WAVELENGTH FACT L1/2
     5    C1    L1    L2    P1    P2                        # / TYPES OF OBSERV
    30                                                      INTERVAL
  1996     7     9    16    10   30.000000                  TIME OF FIRST OBS
                                                            END OF HEADER
 96  7  9 16 10 30.0000000  0  6 24  5  4  7  9  2
  19680931.056      -27502.53419    -14091.18459                  19680941.1794
  20286479.775      -20399.60719
  18874429.333        1627.35819       652.83259                  18874435.4444
  20502540.148       27148.78019
  19214563.586       12634.93819      7703.50259                  19214570.6904
  22256313.923       24177.02219
 96  7  9 16 11  0.0000000  0  6 24  5  4  7  9  2
  19668373.850      -93494.11759    -65513.18749  19668376.9964   19668383.6934
  20273920.085      -86411.68359    -55309.07659  20273923.8174   20273929.5784
  18874808.425        3627.91259      2211.71149  18874811.0224   18874816.1144
  20518051.055      108634.14059     68420.74659  20518055.9134   20518062.3584
  19218283.415       32189.64159     22940.91749  19218286.5254   19218291.9474
  22274616.582      120376.234 9
 96  7  9 16 11 29.9990000  0  6 24  5  4  7  9  2
  21154400.503     -161467.33449   -118479.28849  21154403.9334   21154411.3484
  21759893.550     -154674.65349   -108500.98749  21759895.5434   21759901.6794
  20373802.170        3795.13249      2342.02649  20373805.1224   20373810.5904
  22032079.993      187811.62449    130117.46749  22032084.9984   22032091.5444
  20720614.053       49897.01349     36738.86549  20720618.4124   20720623.7894
  23791465.007      214363.96759    153985.64959  23791467.2954   23791475.3154
 96  7  9 16 11 59.9980000  0  6 24  5  4  7  9  2
  21141098.389     -231359.51259   -172940.71459  21141104.6494   21141110.7394
  21746482.320     -225143.50359   -163411.75959  21746486.1534   21746491.8584
  20373497.502        2195.80359      1095.80659  20373500.7624   20373506.3934
  22046728.652      264757.16059    190075.00959  22046727.4804   22046733.2654
  20723646.595       65832.15059     49155.85259  20723651.1754   20723656.4694
  23808943.522      306247.72459    225583.29459  23808952.1494   23808960.2924
 96  7  9 16 12 29.9980000  0  6 24  5  4  7  9  2
  21127457.381     -303058.89649   -228810.35549  21127460.3004   21127467.6814
  21732674.831     -297704.34749   -219952.65749  21732678.0964   21732684.4724
  20372878.603       -1067.50149     -1447.02549  20372879.9954   20372885.3534
  22060952.884      339532.79849    248341.73049  22060956.9994   22060963.2334
  20726359.490       80080.12449     60258.15949  20726362.3934   20726367.2104
  23826049.468      396104.05349    295601.13449  23826052.4604   23826059.0544
 96  7  9 16 12 59.9980000  0  6 24  5  4  7  9  2
  21113481.303     -376506.70349   -286042.39449  21113484.1004   21113490.3624
  21718479.593     -372308.86749   -278086.02049  21718481.1384   21718487.0604
  20371951.977       -5931.31249     -5237.00049  20371954.3814   20371959.6934
  22074777.315      412179.78349    304949.75049  22074780.7114   22074786.7414
  20728760.959       92696.97449     70089.46849  20728763.1444   20728768.6464
  23842770.590      483974.22349    364071.32149  23842771.8544   23842780.5754
 96  7  9 16 13 29.9980000  0  6 24  5  4  7  9  2
  21099184.528     -451639.39549   -344587.34349  21099186.7094   21099193.1544
  21703907.074     -448889.42749   -337759.17049  21703908.7834   21703914.7694
  20370733.606      -12329.26349    -10222.40849  20370736.7544   20370742.1694
  22088211.133      482768.44349    359953.88049  22088212.8414   22088219.1564
  20730864.457      103753.21349     78704.71649  20730867.0864   20730872.6074
  23859125.076      569914.33649    431037.55749  23859128.0414   23859134.6744
 96  7  9 16 13 59.9980000  0  6 24  5  4  7  9  2
  21084580.146     -528385.36549   -404389.38349  21084582.4194   21084589.3914
  21688973.531     -527357.06549   -398902.76849  21688976.8474   21688983.0344
  20369237.985      -20187.78649    -16345.93349  20369241.0674   20369246.9224
  22101267.295      551378.84349    413416.50549  22101269.9444   22101275.9014
  20732687.661      113333.63649     86169.97549  20732690.1594   20732695.6014
  23875122.148      653992.44349    496552.88449  23875125.8184   23875134.8454
 96  7  9 16 14 29.9980000  0  6 24  5  4  7  9  2
  21069683.099     -606668.68949   -465389.35249  21069685.5654   21069691.9544
  21673695.510     -607645.86549   -461465.44849  21673698.5264   21673704.3424
  20367483.282      -29406.74849    -23529.53849  20367487.1064   20367492.4934
  22113968.282      618114.95649    465418.63349  22113969.6324   22113975.7654
  20734245.894      121521.86549     92550.39849  20734248.1214   20734253.9934
  23890782.236      736281.45249    560674.12749  23890784.2154   23890792.8814
 96  7  9 16 14 59.9980000  0  6 24  5  4  7  9  2
  21054506.058     -686418.54049   -527532.08249  21054509.3794   21054516.6734
  21658084.332     -689677.90749   -525386.51249  21658088.3354   21658093.7794
  20365486.753      -39906.59049    -31711.22349  20365489.3544   20365494.5154
  22126331.295      683081.79849    516042.12449  22126332.6124   22126338.2324
  20735558.865      128417.14549     97923.33349  20735560.8304   20735565.7174
  23906118.005      816860.63849    623463.03449  23906118.8274   23906128.1074
 96  7  9 16 15 29.9980000  0  6 24  5  4  7  9  2
  21039071.875     -767526.34649   -590732.95649  21039075.0094   21039082.1374
  21642166.576     -773331.91049   -590571.44549  21642169.2534   21642174.7214
  20363265.596      -51576.69949    -40804.81749  20363268.5744   20363273.7704
  22138371.994      746376.56449    565362.71149  22138376.4764   22138383.0854
  20736643.011      134122.01149    102368.66849  20736646.3544   20736651.3774
  23921148.919      895844.02149    685008.44549  23921149.9084   23921157.8384
 96  7  9 16 15 59.9980000  0  6 24  5  4  7  9  2
  21023400.965     -849867.44449   -654894.83649  21023406.0994   21023412.7264
  21625959.957     -858497.96749   -656934.58349  21625962.9144   21625968.9374
  20360848.566      -64283.67049    -50706.34049  20360850.1584   20360855.8664
  22150122.272      808112.92149    613468.93649  22150125.2524   22150131.2274
  20737523.208      138744.19949    105970.36549  20737525.9834   20737531.2794
  23935892.547      973347.05649    745400.34049  23935897.9834   23935906.2064
 96  7  9 16 16 29.9980000  0  6 24  5  4  7  9  2
  21007524.511     -933316.89649   -719920.36849  21007526.3724   21007533.6274
  21609487.251     -945065.13049   -724389.51449  21609490.2814   21609496.3304
  20358252.969      -77912.43549    -61326.15949  20358256.7954   20358262.1054
  22161596.427      868412.35149    660455.48349  22161599.7374   22161605.6784
  20738218.258      142391.35749    108812.29849  20738220.1894   20738225.3414
  23950383.726     1049481.95949    804726.09749  23950386.4864   23950393.6044
 96  7  9 16 16 59.9980000  0  6 24  5  4  7  9  2
  20991455.402    -1017746.76949   -785709.85349  20991459.8494   20991466.5694
  21592773.984    -1032888.50149   -792823.30049  21592777.7024   21592783.0644
  20355506.496      -92353.79249    -72579.15949  20355508.9854   20355514.3634
  22172820.835      927380.77549    706404.87249  22172821.4854   22172827.4464
  20738746.806      145177.16049    110983.04349  20738750.0924   20738755.3524
  23964632.156     1124376.42549    863085.32349  23964637.9224   23964646.2334
 96  7  9 16 17 29.9980000  0  6 24  5  4  7  9  2
  20975227.172    -1103030.03649   -852164.33549  20975230.9744   20975237.9924
  21575846.359    -1121848.61749   -862142.85049  21575849.7034   21575854.5734
  20352623.935     -107496.87449    -84378.96249  20352627.1084   20352632.5974
  22183806.251      985113.34949    751391.27549  22183807.3934   22183813.0154
  20739130.146      147188.68849    112550.45949  20739133.0154   20739138.5064
  23978672.013     1198141.42149    920564.35049  23978675.1194   23978683.8184
 96  7  9 16 17 59.9980000  0  6 24  5  4  7  9  2
  20958853.480    -1189081.21549   -919217.17549  20958856.0984   20958862.8734
  21558718.886    -1211854.03549   -932276.92949  21558721.7404   21558728.1564
  20349622.221     -123268.65649    -96668.65849  20349625.9164   20349631.3944
  22194573.251     1041721.85549    795501.76549  22194579.0784   22194585.6364
  20739383.942      148521.10649    113588.69349  20739386.8594   20739391.5624
  23992512.382     1270870.80249    977236.66549  23992515.3004   23992523.6714
 96  7  9 16 18 29.9980000  0  6 24  5  4  7  9  2
  20942346.399    -1275819.72249   -986805.61049  20942349.9204   20942357.0794
  21541412.967    -1302795.38749  -1003140.31449  21541415.9564   21541422.3324
  20346516.441     -139590.14649   -109386.70949  20346520.1884   20346525.5144
  22205151.710     1097297.42349    838807.38349  22205156.4374   22205161.4204
  20739528.782      149284.89949    114183.84149  20739531.8864   20739537.3354
  24006172.059     1342664.10049   1033179.40249  24006176.1724   24006185.5954
 96  7  9 16 18 59.9980000  0  6 24  5  4  7  9  2
  20925727.327    -1363157.19449  -1054860.75549  20925730.3654   20925737.3704
  21523948.662    -1394575.16149  -1074657.01349  21523951.1944   21523956.2424
  20343324.711     -156370.78049   -122462.52549  20343327.0854   20343332.2464
  22215548.661     1151922.55849    881372.41749  22215550.2734   22215556.5934
  20739583.122      149570.81349    114406.62149  20739586.5704   20739591.4314
  24019674.030     1413611.79949   1088463.25349  24019677.7374   24019686.2544
 96  7  9 16 19 29.9980000  0  6 24  5  4  7  9  2
  20909003.660    -1451041.38749  -1123341.92749  20909006.3014   20909013.4674
  21506332.628    -1487150.54449  -1146793.66549  21506334.4764   21506340.3924
  20340054.190     -173558.97949   -135855.92049  20340056.2384   20340061.3794
  22225776.807     1205666.16649    923250.51049  22225777.3474   22225783.6004
  20739556.599      149433.20649    114299.38149  20739559.8314   20739565.3754
  24033026.974     1483765.31649   1143128.24549  24033027.7104   24033036.3644
 96  7  9 16 19 59.9980000  0  6 24  5  4  7  9  2
  20892181.657    -1539439.12349  -1192223.25449  20892185.2364   20892191.9294
  21488569.966    -1580479.81349  -1219517.76249  21488573.6844   21488579.7494
  20336714.409     -191098.63549   -149523.18149  20336718.2814   20336723.8734
  22235841.983     1258572.54449    964476.22349  22235845.0364   22235851.2424
  20739463.349      148937.55249    113913.13849  20739466.1494   20739471.1404
  24046225.727     1553163.43049   1197204.52249  24046233.2734   24046241.1694
 96  7  9 16 20 29.9980000  0  6 24  5  4  7  9  2
  20875272.716    -1628299.58749  -1261465.15049  20875275.4954   20875282.5804
  21470676.773    -1674526.20749  -1292800.66549  21470678.2014   21470684.0234
  20333322.008     -208934.93749   -163421.59249  20333324.5284   20333329.4124
  22245749.350     1310656.02249   1005060.70949  22245756.4474   22245761.8004
  20739307.712      148115.64449    113272.67149  20739309.9104   20739315.0754
  24059298.425     1621837.97649   1250717.16449  24059302.8144   24059311.1744
 96  7  9 16 20 59.9980000  0  6 24  5  4  7  9  2
  20858282.013    -1717570.04649  -1331026.52149  20858287.9754   20858294.7064
  21452644.706    -1769264.49349  -1366622.68449  21452649.7704   21452655.3444
  20329876.734     -227035.53349   -177525.94849  20329879.8484   20329885.3724
  22255512.871     1361940.81649   1045022.86249  22255516.5124   22255521.3064
  20739090.001      146978.70449    112386.72849  20739093.0654   20739098.4774
  24072237.157     1689824.16449   1303693.29549  24072239.8534   24072248.1974
 96  7  9 16 21 29.9980000  0  5 24  5  4  7  9
  20841217.074    -1807260.65749  -1400915.28049  20841220.3454   20841227.3624
  21434484.212    -1864709.53649  -1440995.44049  21434487.2394   21434493.3714
  20326382.145     -245407.28849   -191841.60049  20326383.7814   20326389.2084
  22265114.472     1412417.30949   1084355.16349  22265121.3924   22265127.1494
  20738812.375      145521.33449    111251.10949  20738815.9584   20738821.3414
 96  7  9 16 21 59.9980000  0  5 24  5  4  7  9
  20824068.595    -1897372.90349  -1471132.59749  20824072.7664   20824079.4194
  21416187.490    -1960862.46249  -1515919.78549  21416190.6284   21416196.7124
  20322832.489     -264050.07549   -206368.44749  20322836.3934   20322841.3874
  22274564.779     1462066.52149   1123042.82649  22274570.0444   22274575.7914
  20738474.197      143739.34849    109862.54149  20738476.7254   20738481.9264
 96  7  9 16 22 29.9980000  0  5 24  5  4  7  9
  20806855.374    -1987815.67249  -1541607.45249  20806861.4374   20806868.8244
  21397769.294    -2057654.65649  -1591342.25849  21397771.0024   21397776.9984
  20319243.176     -282907.20449   -221062.31049  20319248.1414   20319253.1334
  22283868.565     1510961.34049   1161142.67349  22283873.2934   22283879.9984
  20738084.440      141692.79349    108267.81549  20738087.4774   20738092.7964
 96  7  9 16 22 59.9980000  0  5 24  5  4  7  9
  20789593.662    -2078546.80749  -1612307.00949  20789596.8014   20789602.7794
  21379236.125    -2155043.24549  -1667229.46049  21379239.0524   21379244.5304
  20315624.851     -301929.81649   -235885.11749  20315628.5814   20315633.5394
  22293045.392     1559177.93549   1198714.00749  22293048.3944   22293054.6354
  20737653.420      139435.93849    106509.20949  20737657.6974   20737662.6404
 96  7  9 16 23 29.9980000  0  5 24  5  4  7  9
  20772274.424    -2169553.67949  -1683221.42449  20772277.7394   20772285.0814
  21360594.527    -2253001.14449  -1743560.27949  21360598.0014   21360603.5004
  20311978.737     -321085.66949   -250811.75149  20311982.6924   20311987.9904
  22302099.504     1606748.95849   1235782.31949  22302100.7884   22302107.1694
  20737194.000      137010.81749    104619.49649  20737196.5984   20737201.7604
 96  7  9 16 23 59.9980000  0  5 24  5  4  7  9
  20754907.168    -2260821.48549  -1754339.17949  20754910.6374   20754916.6524
  21341847.876    -2351517.18849  -1820326.01149  21341850.8094   21341856.7504
  20308310.064     -340369.25449   -265837.92149  20308313.7634   20308318.5454
  22311030.523     1653685.06649   1272355.88349  22311032.6344   22311039.1564
  20736701.559      134430.95649    102609.19049  20736705.6854   20736710.8814
 96  7  9 16 24 29.9980000  0  5 24  5  4  7  9
  20737490.491    -2352336.66449  -1825649.67749  20737495.8804   20737502.5934
  21322997.673    -2450583.09649  -1897520.22049  21322999.4384   21323005.0684
  20304616.869     -359773.98449   -280958.48649  20304620.7574   20304626.1384
  22319845.940     1700003.68049   1308448.26449  22319847.0634   22319854.1504
  20736186.526      131707.86549    100487.29249  20736188.2054   20736192.7754
 96  7  9 16 24 59.9980000  0  6 20 24  5  4  7  9
  24153274.605    -1162648.18719   -883075.66919  24153275.160    24153285.729
  20720033.707    -2444091.63249  -1897147.02749  20720035.7344   20720041.4814
  21304046.549    -2550171.13449  -1975121.28249  21304047.8864   21304054.7384
  20300906.706     -379274.98749   -296154.07449  20300910.2394   20300915.2124
  22328545.181     1745732.38049   1344080.97949  22328548.8874   22328554.6584
  20735639.735      128857.21049     98265.98649  20735644.7544   20735650.6044
 96  7  9 16 25 29.9980000  0  6 20 24  5  4  7  9
  24128803.881    -1291233.131 9   -983274.348 9  24128811.452    24128818.600
  20702532.227    -2536055.65449  -1968807.27849  20702535.3114   20702541.9484
  21285001.497    -2650246.57049  -2053102.12349  21285004.8804   21285010.1814
  20297179.232     -398862.18549   -311416.82549  20297182.5314   20297187.8944
  22337133.059     1790864.93149   1379249.17449  22337137.6694   22337143.6604
  20735078.886      125891.34049     95954.90349  20735080.9824   20735086.2524
 96  7  9 16 25 59.9980000  0  6 20 24  5  4  7  9
  24104215.695    -1420480.139 9  -1083988.981 9  24104219.202    24104227.225
  20684996.472    -2628201.19749  -2040608.97749  20685000.4574   20685006.8094
  21265871.291    -2750777.81749  -2131438.14749  21265874.4524   21265879.8914
  20293436.720     -418522.92149   -326736.88349  20293441.4214   20293446.2784
  22345610.148     1835416.39349   1413964.56749  22345614.3804   22345620.7524
  20734491.399      122816.43149     93558.85149  20734495.4134   20734501.1074
 96  7  9 16 26 29.9980000  0  6 20 24  5  4  7  9
  24079506.646    -1550361.380 9  -1185197.889 9  24079506.144    24079513.007
  20667433.324    -2720492.65749  -2112524.38049  20667437.7454   20667444.6974
  21246664.405    -2851720.52749  -2210094.79749  21246665.4754   21246671.3234
  20289689.955     -438223.55249   -342088.01749  20289692.5444   20289697.5404
  22353982.805     1879413.02549   1448247.61649  22353986.7554   22353994.4234
  20733890.840      119650.78649     91092.09549  20733893.3494   20733898.5294
 96  7  9 16 26 59.9980000  0  6 20 24  5  4  7  9
  24054669.928    -1680852.910 9  -1286882.302 9  24054675.717    24054684.375
  20649849.060    -2812907.72449  -2184536.09349  20649851.9844   20649858.5284
  21227381.480    -2953048.68049  -2289051.78649  21227383.7474   21227389.3484
  20285936.980     -457940.60049   -357451.95249  20285940.4864   20285945.7064
  22362251.443     1922864.60149   1482105.95549  22362255.9604   22362262.3484
  20733273.901      116414.40749     88570.23349  20733276.8714   20733282.4874
 96  7  9 16 27 29.9980000  0  6 20 24  5  4  7  9
  24029730.759    -1811938.344 9  -1389029.482 9  24029734.068    24029742.033
  20632242.573    -2905423.78649  -2256626.50949  20632247.0074   20632253.4524
  21208027.312    -3054750.35749  -2368299.83749  21208030.3984   21208035.5754
  20282183.842     -477660.45049   -372818.06849  20282188.0054   20282193.0634
  22370418.455     1965776.47649   1515543.76349  22370421.3204   22370429.0214
  20732648.349      113125.49749     86007.42849  20732651.5394   20732656.9334
 96  7  9 16 27 59.9980000  0  6 20 24  5  4  7  9
  24004680.249    -1943590.201 9  -1491618.048 9  24004683.744    24004691.655
  20614621.033    -2998024.44249  -2328782.84849  20614625.3234   20614631.5244
  21188603.208    -3156824.45149  -2447838.08149  21188606.2554   21188611.8334
  20278434.123     -497360.31249   -388168.61949  20278439.3524   20278444.0504
  22378488.048     2008176.43749   1548582.63949  22378490.1964   22378496.2194
  20732015.238      109810.29749     83424.13249  20732020.5804   20732026.0634
 96  7  9 16 28 29.9980000  0  6 20 24  5  4  7  9
  23979522.344    -2075795.820 9  -1594638.101 9  23979528.022    23979535.384
  20596986.634    -3090700.23949  -2400997.73749  20596989.9984   20596996.4144
  21169108.640    -3259270.85049  -2527666.43249  21169111.2734   21169116.9904
  20274690.276     -517033.93049   -403498.70049  20274695.0894   20274700.7584
  22386460.493     2050075.75849   1581231.42749  22386463.0324   22386469.5004
  20731384.227      106484.52349     80832.61049  20731388.1634   20731393.2744
 96  7  9 16 28 59.9980000  0  6 20 24  5  4  7  9
  23954263.476    -2208558.766 9  -1698092.445 9  23954267.048    23954274.002
  20579332.120    -3183466.60649  -2473283.19849  20579336.9864   20579343.3024
  21149540.118    -3362094.74949  -2607788.94749  21149544.8754   21149550.1804
  20270948.825     -536701.21349   -418823.85549  20270952.6834   20270958.0694
  22394339.648     2091478.10349   1613492.97149  22394341.3984   22394347.9594
  20730750.145      103154.27349     78237.59849  20730754.0034   20730759.7634
 96  7  9 16 29 29.9980000  0  6 20 24  5  4  7  9
  23928896.251    -2341870.714 9  -1801974.602 9  23928901.008    23928907.337
  20561661.411    -3276325.72649  -2545640.94249  20561666.3844   20561672.9344
  21129905.710    -3465281.75749  -2688194.39949  21129908.6314   21129914.3254
  20267206.472     -556363.22449   -434144.91049  20267211.4674   20267216.6364
  22402128.825     2132398.28449   1645378.77949  22402128.9414   22402136.0334
  20730117.116       99823.81149     75642.41749  20730120.5854   20730125.8644
 96  7  9 16 29 59.9980000  0  6 20 24  5  4  7  9
  23903429.342    -2475712.010 9  -1906269.201 9  23903433.789    23903441.363
  20543978.324    -3369256.71449  -2618054.68449  20543982.2934   20543988.4754
  21110208.221    -3568789.07749  -2768849.44249  21110211.9144   21110218.0864
  20263471.757     -575995.39549   -449442.70549  20263475.5144   20263480.8674
  22409825.655     2172860.61749   1676907.83349  22409829.4534   22409835.1344
  20729486.703       96514.88549     73064.01449  20729490.8894   20729496.2134
 96  7  9 16 30 29.9980000  0  6 20 24  5  4  7  9
  23877846.052    -2610168.601 9  -2011043.255 9  23877849.804    23877856.548
  20526262.328    -3462351.37949  -2690595.96549  20526266.9354   20526273.7114
  21090438.277    -3672674.80949  -2849799.34749  21090443.1904   21090448.8014
  20259723.495     -595688.23349   -464787.77549  20259727.9984   20259733.3194
  22417424.262     2212785.42849   1708018.05149  22417425.5754   22417432.6824
  20728843.313       93133.24449     70428.96049  20728847.1244   20728852.7724
 96  7  9 16 30 59.9980000  0  6 20 24  5  4  7  9
  23852155.052    -2745196.38319  -2116262.37319  23852156.012    23852164.457
  20508525.738    -3555560.59849  -2763226.50949  20508529.6504   20508536.4244
  21070604.480    -3776900.24349  -2931013.96149  21070609.2404   21070615.3994
  20255974.596     -615391.21049   -480140.74649  20255978.3464   20255983.6934
  22424927.301     2252210.51849   1738738.87549  22424928.4764   22424935.3964
  20728191.633       89710.47949     67761.84849  20728196.0654   20728201.2834
 96  7  9 16 31 29.9980000  0  6 20 24  5  4  7  9
  23826352.229    -2880776.37019  -2221911.80019  23826360.416    23826365.430
  20490775.074    -3648842.93649  -2835914.03449  20490779.0964   20490785.4714
  21050709.994    -3881457.40649  -3012487.06549  21050713.2354   21050718.8464
  20252231.880     -635063.74649   -495469.98849  20252235.1934   20252240.2924
  22432335.025     2291143.20849   1769075.99149  22432337.7394   22432343.8184
  20727534.182       86251.59649     65066.61149  20727537.5664   20727542.8424
 96  7  9 16 31 59.9980000  0  6 20 24  5  4  7  9
  23800455.373    -3016884.74019  -2327972.94119  23800460.678    23800468.130
  20473019.100    -3742155.15749  -2908624.83649  20473022.0474   20473028.4324
  21030753.514    -3986333.57349  -3094208.75149  21030755.7124   21030761.8374
  20248496.240     -654682.96649   -510757.69549  20248501.6574   20248507.0204
  22439651.730     2329604.93649   1799046.13649  22439656.5604   22439662.8824
  20726872.091       82785.40849     62365.65649  20726878.1774   20726883.0404
 96  7  9 16 32 29.9980000  0  6 20 24  5  4  7  9
  23774464.098    -3153501.77719  -2434430.47019  23774466.417    23774472.754
  20455259.588    -3835471.66349  -2981338.99349  20455264.6024   20455270.8124
  21010732.164    -4091532.20749  -3176181.69849  21010737.1424   21010743.1674
  20244778.406     -674233.32449   -525991.73649  20244781.5074   20244786.5604
  22446883.530     2367613.10649   1828662.86349  22446888.7834   22446895.8224
  20726217.445       79325.96949     59669.97849  20726219.9324   20726225.4224
 96  7  9 16 32 59.9980000  0  6 20 24  5  4  7  9
  23748375.900    -3290611.99019  -2541272.28119  23748378.315    23748385.417
  20437507.065    -3928761.37349  -3054032.25049  20437512.5254   20437518.6264
  20990654.936    -4197045.37349  -3258399.73549  20990658.6544   20990664.5834
  20241072.392     -693698.04349   -541159.05449  20241077.2894   20241082.6624
  22454034.711     2405176.27249   1857932.82649  22454037.5054   22454044.0864
  20725563.951       75896.98549     56998.01849  20725567.6524   20725572.8134
 96  7  9 16 33 29.9980000  0  6 20 24  5  4  7  9
  23722195.278    -3428218.39819  -2648500.74219  23722194.323    23722201.348
  20419755.712    -4022043.03349  -3126719.24549  20419761.3744   20419767.4814
  20970520.407    -4302865.42749  -3340856.91349  20970522.1104   20970527.8494
  20237380.356     -713099.23349   -556276.86349  20237385.5174   20237390.6894
  22461100.279     2442296.55749   1886857.67749  22461102.2004   22461107.2874
  20724918.448       72503.92949     54354.05849  20724921.8754   20724927.7414
 96  7  9 16 33 59.9980000  0  6 20 24  5  4  7  9
  23695911.885    -3566318.53619  -2756113.93619  23695916.577    23695924.545
  20402003.833    -4115342.00249  -3199419.72449  20402007.0264   20402013.6114
  20950326.412    -4408976.98649  -3423541.23049  20950330.0224   20950335.4144
  20233697.993     -732454.06049   -571358.54249  20233702.4634   20233707.4404
  22468077.732     2478979.91449   1915442.08649  22468082.3064   22468088.5464
  20724279.040       69150.74249     51741.15849  20724283.5004   20724289.3754
 96  7  9 16 34 29.9980000  0  5 24  5  4  7  9
  20384243.925    -4208668.82049  -3272141.90449  20384247.7224   20384253.8964
  20930082.932    -4515356.65449  -3506434.47449  20930086.3104   20930091.7774
  20230026.749     -751747.56249   -586392.43149  20230030.9424   20230036.0724
  22474979.316     2515228.72549   1943687.86749  22474980.1794   22474986.0754
  20723649.823       65840.65249     49161.85349  20723653.9284   20723659.3304
 96  7  9 16 34 59.9980000  0  5 24  5  4  7  9
  20366478.293    -4302019.96249  -3344883.03849  20366483.1504   20366490.0794
  20909792.744    -4621982.03949  -3589519.18049  20909796.4274   20909802.0074
  20226368.036     -770968.67649   -601369.91949  20226373.1804   20226378.6174
  22481794.547     2551051.74149   1971601.86949  22481796.9624   22481802.6454
  20723031.003       62584.66649     46624.70049  20723034.2394   20723039.9604
 96  7  9 16 35 29.9980000  0  5 24  5  4  7  9
  20348712.588    -4395383.59449  -3417633.90649  20348716.8964   20348723.4484
  20889460.023    -4728831.17849  -3672778.24249  20889463.5454   20889469.1624
  20222728.315     -790093.90449   -616272.69149  20222733.6804   20222739.2664
  22488528.383     2586462.25149   1999194.46249  22488534.6654   22488540.9654
  20722423.881       59390.43949     44135.68849  20722426.8314   20722431.6004
 96  7  9 16 35 59.9980000  0  5 24  5  4  7  9
  20330947.183    -4488731.87349  -3490372.80949  20330953.1594   20330959.5504
  20869085.670    -4835897.30149  -3756206.37649  20869088.8954   20869095.0544
  20219113.829     -809099.67949   -631082.37849  20219117.3814   20219122.3174
  22495192.590     2621460.68849   2026465.90949  22495195.7964   22495202.1374
  20721825.189       56253.74649     41691.50149  20721829.9214   20721835.6234
 96  7  9 16 36 29.9980000  0  5 24  5  4  7  9
  20313196.748    -4582024.54849  -3563068.38849  20313200.2554   20313207.1404
  20848671.084    -4943181.05349  -3839804.09549  20848673.6744   20848679.4054
  20215521.866     -827972.47849   -645788.45649  20215525.6564   20215531.0004
  22501772.564     2656049.63849   2053418.30549  22501777.0914   22501783.6894
  20721242.028       53185.69249     39300.80449  20721245.6624   20721251.1944
 96  7  9 16 36 59.9980000  0  5 24  5  4  7  9
  20295458.789    -4675230.89949  -3635696.70449  20295464.1164   20295470.0524
  20828212.896    -5050684.74749  -3923573.20149  20828216.5934   20828222.2964
  20211955.788     -846710.80349   -660389.74949  20211959.9404   20211965.1264
  22508280.185     2690240.64349   2080060.61549  22508283.9814   22508289.9544
  20720672.924       50187.54849     36964.57549  20720675.4114   20720680.1944
 96  7  9 16 37 29.9980000  0  5 24  5  4  7  9
  20277741.764    -4768335.06249  -3708245.39049  20277746.6684   20277752.9154
  20807715.351    -5158401.76649  -4007508.53049  20807718.6064   20807723.9354
  20208417.843     -865303.85249   -674877.83849  20208422.0804   20208426.7404
  22514713.060     2724041.03949   2106398.54949  22514715.2754   22514722.7694
  20720114.091       47268.82149     34690.21049  20720119.6444   20720126.0544
 96  7  9 16 37 59.9980000  0  5 24  5  4  7  9
  20260046.529    -4861331.92949  -3780710.46249  20260049.9044   20260056.3394
  20787177.653    -5266329.04749  -4091607.70849  20787180.8284   20787186.4524
  20204907.831     -883746.67649   -689248.87249  20204912.3494   20204917.5414
  22521071.025     2757460.17249   2132439.38749  22521075.7214   22521081.4184
  20719578.664       44436.00649     32482.80749  20719581.0294   20719586.1704
 96  7  9 16 38 29.9980000  0  5 24  5  4  7  9
  20242371.584    -4954210.14149  -3853083.09049  20242375.8424   20242382.1424
  20766601.490    -5374451.14549  -4175858.68649  20766605.9814   20766611.8304
  20201427.658     -902034.69049   -703499.27049  20201432.4024   20201437.6934
  22527365.255     2790520.39749   2158200.57549  22527366.2744   22527373.7694
  20719056.653       41708.75149     30357.65249  20719061.9264   20719067.9944
 96  7  9 16 38 59.9980000  0  5 24  5  4  7  9
  20224718.288    -5046980.14649  -3925371.39349  20224722.3824   20224728.9914
  20745994.442    -5482745.87849  -4260244.18449  20745997.9904   20746004.2354
  20197981.108     -920152.09649   -717616.72849  20197984.7264   20197989.9354
  22533591.544     2823245.31249   2183700.46749  22533594.5664   22533599.8594
  20718562.465       39093.84949     28320.07249  20718564.5524   20718570.0554
 96  7  9 16 39 29.9980000  0  5 24  5  4  7  9
  20207085.682    -5139630.79449  -3997566.69449  20207091.4624   20207097.7374
  20725358.517    -5591180.51249  -4344738.69649  20725363.4404   20725369.2744
  20194566.972     -938086.40949   -731591.51549  20194571.8404   20194577.2334
  22539759.372     2855657.08449   2208956.38149  22539761.3534   22539769.1454
  20718087.914       36612.41649     26386.47049  20718091.8954   20718097.4094
 96  7  9 16 39 59.9970000  0  5 24  5  4  7  9
  20189482.376    -5232153.55849  -4069662.33949  20189484.9874   20189491.2524
  20704701.601    -5699744.23349  -4429333.79849  20704704.6064   20704710.2534
  20191186.010     -955850.64049   -745433.77249  20191191.3974   20191196.5774
  22545865.301     2887761.78649   2233972.99949  22545871.7854   22545878.5134
  20717641.976       34261.15849     24554.32149  20717644.7754   20717650.2184
 96  7  9 16 40 29.9970000  0  5 24  5  4  7  9
  20171895.257    -5324564.64049  -4141670.95949  20171899.7584   20171906.2824
  20684014.821    -5808453.63849  -4514042.42149  20684017.8104   20684023.6054
  20187836.071     -973461.47349   -759156.50049  20187840.1314   20187845.3774
  22551919.231     2919555.42249   2258747.22049  22551921.1984   22551927.0814
  20717217.536       32040.83549     22824.17349  20717222.4064   20717227.5624
 96  7  9 16 40 59.9970000  0  5 24  5  4  7  9
  20154329.745    -5416875.04649  -4213601.13449  20154333.4994   20154339.8174
  20663302.222    -5917297.35849  -4598855.70049  20663305.5154   20663311.3674
  20184514.686     -990918.15149   -772759.10549  20184518.3714   20184523.4174
  22557904.669     2951023.90049   2283268.07249  22557909.1214   22557916.4394
  20716818.296       29939.88349     21187.05349  20716821.9614   20716827.9034
 96  7  9 16 41 29.9970000  0  5 24  5  4  7  9
  20136786.738    -5509063.49449  -4285436.27949  20136790.6624   20136797.0944
  20642563.505    -6026268.20249  -4683768.04349  20642569.1204   20642574.9554
  20181221.419    -1008220.12249   -786241.15949  20181226.0484   20181231.1134
  22563829.409     2982164.61649   2307533.52449  22563835.4934   22563841.4504
  20716445.174       27974.53349     19655.57349  20716449.2334   20716454.1924
 96  7  9 16 41 59.9970000  0  5 24  5  4  7  9
  20119268.413    -5601120.72149  -4357169.17149  20119272.6454   20119279.3954
  20621804.642    -6135359.99049  -4768774.61949  20621809.6054   20621816.1314
  20177962.918    -1025345.78249   -799585.82549  20177967.4134   20177972.2814
  22569694.899     3012982.47149   2331547.40249  22569699.2384   22569707.1204
  20716098.469       26157.13449     18239.41049  20716101.8804   20716108.0824
 96  7  9 16 42 29.9970000  0  5 24  5  4  7  9
  20101777.349    -5693044.60149  -4428798.15849  20101780.7194   20101786.9244
  20601024.270    -6244570.65249  -4853873.82749  20601027.9174   20601033.2414
  20174738.182    -1042285.56849   -812785.65949  20174743.4824   20174748.6644
  22575497.743     3043467.73749   2355302.11549  22575500.4324   22575507.2384
  20715782.920       24487.18949     16938.13149  20715785.1934   20715790.5714
 96  7  9 16 42 59.9970000  0  5 24  5  4  7  9
  20084311.909    -5784818.96849  -4500310.63049  20084316.1304   20084322.7344
  20580219.777    -6353897.91849  -4939063.89449  20580223.2254   20580229.3404
  20171549.626    -1059048.49849   -825847.68449  20171553.6594   20171558.9144
  22581232.789     3073610.99049   2378790.32149  22581237.5544   22581243.7194
  20715486.370       22944.21249     15735.79049  20715491.2044   20715496.7964
 96  7  9 16 43 29.9970000  0  5 24  5  4  7  9
  20066878.594    -5876432.02449  -4571697.41849  20066882.9334   20066889.2884
  20559391.171    -6463348.83049  -5024350.30449  20559395.1334   20559401.2364
  20168391.966    -1075632.84149   -838770.54949  20168397.8084   20168403.0964
  22586901.678     3103410.23149   2402010.49949  22586907.8544   22586914.0334
  20715220.145       21532.33149     14635.61149  20715222.7404   20715228.4754
 96  7  9 16 43 59.9970000  0  5 24  5  4  7  9
  20049475.134    -5967883.49349  -4642958.28349  20049480.3204   20049486.4994
  20538544.580    -6572909.73049  -5109722.42349  20538546.9684   20538552.3564
  20165272.253    -1092036.86749   -851552.91649  20165276.5614   20165281.2554
  22592507.581     3132870.16249   2424966.22649  22592512.8414   22592520.7514
  20714972.877       20241.69749     13629.89849  20714977.0884   20714982.7494
 96  7  9 16 44 29.9970000  0  5 24  5  4  7  9
  20032107.990    -6059152.66949  -4714077.10649  20032111.9344   20032118.6654
  20517676.812    -6682560.01249  -5195164.19649  20517681.1244   20517686.8714
  20162186.548    -1108248.62649   -864185.45149  20162191.2934   20162196.3764
  22598056.122     3162015.00149   2447676.44449  22598059.9634   22598066.9464
  20714756.177       19095.30249     12736.59449  20714759.0034   20714764.8814
 96  7  9 16 44 59.9970000  0  5 24  5  4  7  9
  20014775.002    -6150233.74149  -4785049.35949  20014780.2894   20014786.6774
  20496799.554    -6792275.16449  -5280656.50949  20496802.8244   20496808.6464
  20159143.705    -1124252.67149   -876656.14149  20159146.0104   20159150.9474
  22603546.173     3190867.08149   2470158.52349  22603550.3104   22603557.4354
  20714567.796       18113.10449     11971.23649  20714571.8934   20714577.8204
 96  7  9 16 45 29.9970000  0  5 24  5  4  7  9
  19997478.067    -6241135.63449  -4855881.98949  19997481.9664   19997488.4174
  20475912.168    -6902041.77649  -5366188.92149  20475914.4624   20475920.3604
  20156136.304    -1140040.04449   -888957.98849  20156141.8334   20156146.6514
  22608981.176     3219435.60549   2492419.67349  22608987.2574   22608993.4864
  20714417.126       17311.28049     11346.41749  20714419.6434   20714425.3534
 96  7  9 16 45 59.9970000  0  5 24  5  4  7  9
  19980215.008    -6331854.02249  -4926571.62549  19980219.1644   19980225.2534
  20455012.618    -7011860.24049  -5451761.74149  20455017.5054   20455022.8434
  20153173.909    -1155619.10049   -901097.51249  20153177.1864   20153181.9624
  22614369.492     3247737.81749   2514473.28749  22614373.0964   22614379.7854
  20714299.496       16700.64849     10870.58549  20714303.3694   20714308.8244
 96  7  9 16 46 29.9970000  0  5 24  5  4  7  9
  19962988.131    -6422375.23149  -4997107.61949  19962993.1614   19962999.7524
  20434104.682    -7121730.83649  -5537375.18249  20434109.4094   20434114.9414
  20150249.013    -1170979.09049   -913066.33849  20150253.9144   20150259.2664
  22619708.463     3275786.26749   2536329.21349  22619711.6334   22619716.7844
  20714222.979       16295.52749     10554.90349  20714225.9484   20714231.9794
 96  7  9 16 46 59.9970000  0  5 24  5  4  7  9
  19945799.289    -6512700.65249  -5067491.04749  19945804.6364   19945811.0824
  20413188.332    -7231656.84449  -5623031.79549  20413191.3734   20413196.7074
  20147366.414    -1186132.41349   -924874.12749  20147370.8514   20147375.5434
  22624996.835     3303573.44249   2557981.53049  22624998.5814   22625004.8944
  20714180.847       16074.31149     10382.50149  20714184.6304   20714189.7674
 96  7  9 16 47 29.9970000  0  5 24  5  4  7  9
  19928651.872    -6602820.26949  -5137714.11649  19928655.5694   19928662.0634
  20392259.118    -7341643.52049  -5708735.69249  20392261.5544   20392266.9464
  20144520.826    -1201082.96449   -936523.90749  20144525.6604   20144530.5454
  22630232.139     3331102.96449   2579433.06649  22630236.0294   22630243.9624
  20714172.695       16036.23349     10352.81649  20714176.6554   20714182.1874
 96  7  9 16 47 59.9970000  0  5 24  5  4  7  9
  19911542.968    -6692719.28849  -5207765.28149  19911548.4614   19911554.8504
  20371318.768    -7451685.02349  -5794482.30449  20371321.0544   20371326.9924
  20141717.233    -1215813.45549   -948002.20949  20141722.7284   20141727.3574
  22635420.862     3358393.80449   2600698.57949  22635428.9994   22635436.5914
  20714200.984       16178.84349     10463.92049  20714204.5774   20714209.8674
 96  7  9 16 48 29.9970000  0  5 24  5  4  7  9
  19894479.692    -6782390.32949  -5277638.80849  19894484.8634   19894491.1064
  20350374.518    -7561750.76349  -5880247.81049  20350376.7044   20350382.0254
  20138961.722    -1230306.74449   -959295.67849  20138964.6274   20138970.0554
  22640571.655     3385442.46149   2621775.40749  22640576.4194   22640583.7294
  20714261.174       16495.66949     10710.78249  20714264.6004   20714269.4384
 96  7  9 16 48 59.9970000  0  5 24  5  4  7  9
  19877462.808    -6871814.60649  -5347320.04949  19877467.7654   19877474.3244
  20329429.067    -7671815.98249  -5966012.90549  20329431.7434   20329437.4694
  20136251.888    -1244537.99649   -970384.97149  20136256.6484   20136261.2294
  22645676.423     3412264.86849   2642675.94049  22645681.3464   22645687.4174
  20714358.540       17001.65549     11105.04449  20714361.0084   20714366.3424
 96  7  9 16 49 29.9970000  0  5 24  5  4  7  9
  19860496.461    -6960980.54649  -5416799.99149  19860500.1544   19860506.5354
  20308489.901    -7781852.51549  -6051755.65249  20308492.9084   20308498.2164
  20133599.400    -1258477.84049   -981247.18549  20133603.8894   20133608.9914
  22650741.719     3438881.80149   2663416.34649  22650745.9804   22650753.5004
  20714493.081       17725.15449     11668.77949  20714498.3424   20714504.1274
 96  7  9 16 49 59.9970000  0  5 24  5  4  7  9
  19843578.967    -7049872.93649  -5486066.77849  19843584.4934   19843590.6174
  20287557.682    -7891849.57849  -6137467.64749  20287560.8414   20287566.5684
  20131005.271    -1272113.28449   -991872.20349  20131009.0094   20131013.8874
  22655770.038     3465287.89949   2683992.46349  22655771.7874   22655777.8234
  20714674.171       18672.18249     12406.71249  20714678.3914   20714684.0284
 96  7  9 16 50 29.9970000  0  5 24  5  4  7  9
  19826718.113    -7138481.70749  -5555112.55649  19826722.7614   19826729.3514
  20266635.041    -8001797.61349  -6223141.43149  20266638.0524   20266644.0164
  20128467.066    -1285448.13649  -1002262.99849  20128471.3654   20128476.4734
  22660751.335     3491478.61349   2704400.76749  22660755.7644   22660762.5104
  20714900.318       19861.49249     13333.41949  20714904.6414   20714910.9484
 96  7  9 16 50 59.9970000  0  5 24  5  4  7  9
  19809916.172    -7226780.20349  -5623916.56849  19809920.1774   19809926.4944
  20245723.721    -8111683.76949  -6308767.00249  20245727.8314   20245733.4764
  20125989.244    -1298466.24049  -1012406.97549  20125994.2044   20125999.5264
  22665702.006     3517491.31749   2724670.38849  22665705.4514   22665711.8194
  20715179.732       21320.56649     14470.33549  20715182.5024   20715187.9534
 96  7  9 16 51 29.9970000  0  5 24  5  4  7  9
  19793171.690    -7314769.40849  -5692479.57349  19793176.1794   19793182.5554
  20224825.810    -8221503.30949  -6394340.66249  20224830.0064   20224835.7374
  20123571.182    -1311180.99249  -1022314.57149  20123574.7604   20123579.9034
  22670621.645     3543328.63849   2744803.34249  22670623.3424   22670628.0134
  20715506.115       23051.65549     15819.21049  20715511.6914   20715518.0694
 96  7  9 16 51 59.9970000  0  5 24  5  4  7  9
  19776492.803    -7402422.06049  -5760780.32749  19776496.6084   19776503.1084
  20203942.326    -8331248.75849  -6479856.58449  20203946.4594   20203951.9844
  20121206.295    -1323597.08649  -1031989.45149  20121211.9244   20121217.3794
  22675504.669     3569000.30649   2764807.20049  22675507.5994   22675515.1334
  20715889.070       25058.24549     17382.75849  20715894.1964   20715899.8064
 96  7  9 16 52 29.9970000  0  5 24  5  4  7  9
  19759875.134    -7489741.51649  -5828821.45149  19759880.2634   19759886.4854
  20183071.821    -8440920.63049  -6565315.17849  20183076.3844   20183081.7784
  20118898.508    -1335725.86349  -1041440.44649  20118903.8304   20118909.2334
  22680359.848     3594527.32349   2784698.32049  22680364.4194   22680372.8244
  20716323.596       27334.15749     19156.16149  20716327.4234   20716332.5824
 96  7  9 16 52 59.9970000  0  5 24  5  4  7  9
  19743322.638    -7576739.01249  -5896611.69649  19743325.1624   19743331.4744
  20162215.980    -8550518.77649  -6650716.32349  20162220.2144   20162225.8144
  20116645.033    -1347574.21649  -1050672.93049  20116649.4074   20116654.5814
  22685190.084     3619904.12049   2804472.39649  22685194.2894   22685201.5704
  20716804.856       29870.34749     21132.36949  20716809.5644   20716815.4824
 96  7  9 16 53 29.9970000  0  5 24  5  4  7  9
  19726830.839    -7663392.70249  -5964134.04149  19726835.2964   19726841.8164
  20141379.387    -8660019.20949  -6736041.32949  20141383.0024   20141388.8674
  20114449.073    -1359116.32549  -1059666.78449  20114453.1574   20114458.0964
  22689991.867     3645136.80049   2824134.15949  22689996.1254   22690003.7284
  20717343.096       32686.14549     23326.46649  20717345.9604   20717351.4134
 96  7  9 16 53 59.9970000  0  5 24  5  4  7  9
  19710410.854    -7749681.26349  -6031371.87049  19710415.2524   19710421.4944
  20120561.753    -8769411.77449  -6821282.28049  20120566.1704   20120572.0144
  20112314.485    -1370330.31149  -1068404.95549  20112319.0254   20112323.6634
  22694766.989     3670228.71349   2843686.24949  22694770.1044   22694777.1404
  20717930.617       35784.20749     25740.51149  20717935.1384   20717940.9904
 96  7  9 16 54 29.9970000  0  5 24  5  4  7  9
  19694057.546    -7835619.92349  -6098337.04849  19694061.7444   19694067.8174
  20099769.109    -8878686.48249  -6906431.39149  20099772.1414   20099777.9404
  20110247.492    -1381197.33149  -1076872.76549  20110251.2244   20110256.0664
  22699513.784     3695174.66149   2863124.57849  22699517.1614   22699526.0524
  20718575.509       39168.68349     28377.74749  20718579.2274   20718585.0144
 96  7  9 16 54 59.9970000  0  5 24  5  4  7  9
  19677772.868    -7921190.05649  -6165015.06149  19677778.1234   19677784.3954
  20079003.595    -8987807.87149  -6991461.03649  20079007.0394   20079012.6944
  20108248.404    -1391688.56049  -1085047.74849  20108254.4334   20108259.4924
  22704233.352     3719967.36249   2882443.54449  22704236.1844   22704240.6664
  20719277.037       42850.18249     31246.41049  20719279.8294   20719285.6884
 96  7  9 16 55 29.9970000  0  5 24  5  4  7  9
  19661565.898    -8006365.68449  -6231385.67249  19661569.9644   19661575.9114
  20058269.807    -9096769.05449  -7076365.85149  20058272.7004   20058277.9844
  20106328.218    -1401789.30749  -1092918.46549  20106332.7094   20106337.7164
  22708921.712     3744620.29749   2901653.58649  22708927.0234   22708932.8214
  20720032.979       46826.98149     34345.18549  20720036.6554   20720042.7584
 96  7  9 16 55 59.9960000  0  5 24  5  4  7  9
  19645431.284    -8091151.50549  -6297452.53349  19645435.6524   19645441.9674
  20037563.493    -9205574.54849  -7161149.34249  20037567.4054   20037573.0564
  20104475.386    -1411519.26549  -1100500.25549  20104481.2264   20104485.8744
  22713585.547     3769133.87949   2920755.06749  22713592.0094   22713598.4704
  20720844.181       51087.22249     37664.82749  20720847.9614   20720853.5354
 96  7  9 16 56 29.9960000  0  5 24  5  4  7  9
  19629366.181    -8175573.20049  -6363235.66149  19629370.8554   19629376.8424
  20016884.701    -9314235.89049  -7245820.50449  20016889.8234   20016895.3754
  20102691.493    -1420898.78649  -1107808.97449  20102695.8984   20102701.0214
  22718229.322     3793516.25749   2939754.28649  22718232.2984   22718238.7144
  20721707.099       55626.78549     41202.14349  20721710.7254   20721717.1804
 96  7  9 16 56 59.9960000  0  5 24  5  4  7  9
  19613375.038    -8259605.57649  -6428715.42349  19613379.8964   19613386.1324
  19996237.540    -9422748.83449  -7330376.04249  19996240.6204   19996245.6584
  20100970.127    -1429941.86549  -1114855.53749  20100975.6084   20100980.4404
  22722843.848     3817773.55249   2958656.02149  22722846.9294   22722854.1254
  20722625.529       60443.60449     44955.49349  20722628.2204   20722634.0374
 96  7  9 16 57 29.9960000  0  5 24  5  4  7  9
  19597460.730    -8343242.19749  -6493886.80849  19597464.7934   19597470.6754
  19975613.967    -9531119.06549  -7414820.37349  19975618.1234   19975623.6624
  20099313.912    -1438649.04449  -1121640.35349  20099318.0604   20099323.3824
  22727443.907     3841931.90049   2977480.62549  22727444.9304   22727453.0074
  20723596.841       65557.10149     48940.00649  20723600.9594   20723606.4124
 96  7  9 16 57 59.9960000  0  5 24  5  4  7  9
  19581619.978    -8426482.64749  -6558749.48149  19581624.2754   19581630.0344
  19955025.835    -9639321.89849  -7499134.26549  19955028.2634   19955033.5574
  20097721.917    -1447017.39449  -1128161.15449  20097726.0924   20097731.1374
  22732021.600     3866002.88249   2996237.16049  22732025.3044   22732033.2144
  20724630.110       70987.34849     53171.35849  20724634.4204   20724640.6344
 96  7  9 16 58 29.9960000  0  5 24  5  4  7  9
  19565865.495    -8509276.55449  -6623264.20249  19565869.3644   19565875.3904
  19934476.465    -9747301.92449  -7583274.54349  19934480.4704   19934485.7854
  20096206.182    -1454983.55249  -1134368.55349  20096210.1524   20096215.0614
  22736597.189     3890035.78049   3014963.99849  22736599.4784   22736606.0344
  20725734.087       76786.19549     57689.92649  20725737.7684   20725743.1594
 96  7  9 16 58 59.9960000  0  5 24  5  4  7  9
  19550195.122    -8591616.89649  -6687425.49649  19550200.1134   19550206.7314
  19913970.879    -9855065.13249  -7667245.87349  19913973.5654   19913979.1614
  20094766.424    -1462548.50549  -1140263.32549  20094770.8094   20094775.7084
  22741156.238     3914017.25949   3033650.82649  22741162.8124   22741168.9844
  20726907.118       82952.14549     62494.56249  20726911.0234   20726917.0824
 96  7  9 16 59 29.9960000  0  5 24  5  4  7  9
  19534610.987    -8673517.13549  -6751243.85649  19534615.2064   19534621.4944
  19893504.625    -9962611.80849  -7751048.47449  19893508.2184   19893513.6344
  20093403.382    -1469712.32949  -1145845.53849  20093407.2704   20093412.6814
  22745712.024     3937946.47549   3052296.93049  22745714.9534   22745720.7544
  20728148.968       89480.82649     67581.79949  20728153.4544   20728159.0074
 96  7  9 16 59 59.9960000  0  5 24  5  4  7  9
  19519108.122    -8754987.28449  -6814727.08149  19519112.1774   19519118.0164
  19873080.428   -10069946.29049  -7834685.73449  19873083.1344   19873088.3584
  20092112.467    -1476483.06049  -1151121.44249  20092118.6654   20092124.0224
  22750250.631     3961805.48149   3070888.35449  22750256.3644   22750263.5954
  20729456.554       96354.39849     72937.80349  20729460.9304   20729467.2334
 96  7  9 17  0 29.9960000  0  5 24  5  4  7  9
  19503688.332    -8836023.74549  -6877872.35749  19503691.3234   19503697.4564
  19852692.955   -10177073.17049  -7918161.22249  19852697.4084   19852702.7074
  20090901.628    -1482858.86649  -1156089.60649  20090905.5954   20090910.5974
  22754778.627     3985583.08549   3089416.31649  22754782.2214   22754789.1804
  20730828.733      103556.49149     78549.79149  20730832.0014   20730837.6394
 96  7  9 17  0 59.9960000  0  5 24  5  4  7  9
  19488352.622    -8916609.15649  -6940666.17649  19488356.3424   19488362.8104
  19832351.953   -10283968.69649  -8001456.43849  19832355.9824   19832361.5884
  20089763.758    -1488840.92749  -1160750.96049  20089767.6114   20089772.7004
  22759290.148     4009275.09449   3107877.55849  22759289.2584   22759297.6814
  20732260.098      111089.50849     84419.62449  20732265.1344   20732271.5594
 96  7  9 17  1 29.9960000  0  5 24  5  4  7  9
  19473099.178    -8996757.77749  -7003119.64049  19473104.3714   19473110.7684
  19812056.949   -10390620.56349  -8084561.78449  19812060.7534   19812066.0834
  20088698.090    -1494436.87649  -1165111.44749  20088702.4044   20088707.5774
  22763776.055     4032883.64449   3126273.75249  22763782.1574   22763790.2074
  20733756.575      118944.02349     90540.01149  20733760.4424   20733766.5294
 96  7  9 17  1 59.9960000  0  5 24  5  4  7  9
  19457932.700    -9076466.71549  -7065230.49249  19457936.7014   19457942.6004
  19791810.577   -10497017.08149  -8167468.15649  19791814.0814   19791819.7414
  20087707.285    -1499644.20149  -1169169.11449  20087711.4244   20087716.8334
  22768254.615     4056415.26149   3144610.02749  22768259.4944   22768267.7014
  20735313.151      127125.88249     96915.47049  20735317.6454   20735323.8534
 96  7  9 17  2 29.9960000  0  5 24  5  4  7  9
  19442846.416    -9155744.76949  -7127005.58649  19442850.3424   19442856.4514
  19771612.737   -10603157.87849  -8250175.27149  19771616.3624   19771621.5414
  20086785.038    -1504488.60649  -1172943.98549  20086789.6394   20086794.6114
  22772720.349     4079867.10849   3162884.14949  22772723.2514   22772730.1484
  20736930.635      135621.34449    103535.29949  20736934.2084   20736939.9004
 96  7  9 17  2 59.9960000  0  5 24  5  4  7  9
  19427840.797    -9234595.67149  -7188447.84249  19427845.6674   19427851.3264
  19751462.876   -10709045.66249  -8332685.23049  19751466.6504   19751471.8804
  20085929.907    -1508980.70049  -1176444.31949  20085934.9254   20085939.9954
  22777173.723     4103259.01549   3181111.56749  22777173.9124   22777182.4184
  20738609.755      144444.18049    110410.22749  20738612.7544   20738618.5454
 96  7  9 17  3 29.9960000  0  5 24  5  4  7  9
  19412912.423    -9313041.62949  -7249574.54949  19412917.4924   19412923.6804
  19731355.226   -10814709.13749  -8415020.40249  19731359.4374   19731364.9274
  20085138.899    -1513137.64949  -1179683.50749  20085143.5344   20085148.8104
  22781610.815     4126594.72349   3199295.18949  22781615.4194   22781623.7964
  20740346.926      153579.98049    117529.02649  20740351.3064   20740357.6034
 96  7  9 17  3 59.9960000  0  5 24  5  4  7  9
  19398063.929    -9391076.88449  -7310381.23249  19398068.0364   19398074.1314
  19711285.478   -10920169.55749  -8497197.34349  19711290.5954   19711296.2544
  20084408.631    -1516972.13449  -1182671.42549  20084413.8734   20084419.2254
  22786042.081     4149858.33349   3217422.62449  22786043.1914   22786047.9414
  20742144.007      163012.72149    124879.20549  20742146.5404   20742151.7204
 96  7  9 17  4 29.9960000  0  5 24  5  4  7  9
  19383294.933    -9468687.59449  -7370857.09949  19383299.3024   19383305.2234
  19691256.322   -11025436.95949  -8579223.88949  19691259.2224   19691264.6764
  20083744.348    -1520472.94549  -1185399.34249  20083748.0194   20083753.0194
  22790450.455     4173042.32349   3235488.01949  22790453.3854   22790461.3124
  20743992.485      172736.77349    132456.37849  20743996.4894   20744002.7464
 96  7  9 17  4 59.9960000  0  5 24  5  4  7  9
  19368604.311    -9545885.58349  -7431011.36649  19368609.0244   19368615.0184
  19671254.165   -11130541.49049  -8661123.51749  19671258.3594   19671263.6334
  20083140.744    -1523639.05349  -1187866.43849  20083145.6324   20083150.8444
  22794841.284     4196124.45249   3253474.01649  22794846.9214   22794854.3204
  20745892.981      182725.55249    140239.82349  20745898.1834   20745902.7284
 96  7  9 17  5 29.9960000  0  5 24  5  4  7  9
  19353996.516    -9622657.13149  -7490833.34349  19353999.9984   19354005.7734
  19651287.830   -11235469.91849  -8742885.92849  19651291.3114   19651296.5384
  20082605.963    -1526448.62849  -1190055.73549  20082610.8374   20082616.1774
  22799210.782     4219097.63749   3271375.14349  22799217.5724   22799224.9614
  20747846.674      192983.07149    148232.67649  20747849.5264   20747855.5594
 96  7  9 17  5 59.9960000  0  5 24  5  4  7  9
  19339463.238    -9699014.74849  -7550332.78149  19339469.5774   19339475.7024
  19631353.264   -11340225.26749  -8824513.46849  19631356.8924   19631362.2674
  20082138.193    -1528911.55549  -1191974.90449  20082142.3864   20082147.3094
  22803564.987     4241938.30749   3289173.02749  22803565.4894   22803571.5984
  20749846.341      203496.27549    156424.75949  20749850.5514   20749855.3804
 96  7  9 17  6 29.9960000  0  5 24  5  4  7  9
  19325012.098    -9774968.41649  -7609517.44749  19325016.0954   19325021.9584
  19611456.402   -11444792.51949  -8905994.44349  19611458.4794   19611463.9314
  20081735.623    -1531027.89749  -1193624.00949  20081739.7004   20081745.2194
  22807884.714     4264655.40649   3306874.62149  22807886.4874   22807894.7184
  20751899.080      214275.91349    164824.46949  20751901.5244   20751907.3394
 96  7  9 17  6 59.9960000  0  5 24  5  4  7  9
  19310632.852    -9850525.30849  -7668392.93849  19310637.8184   19310644.2184
  19591596.209   -11549147.81149  -8987310.24949  19591600.6194   19591605.9634
  20081395.195    -1532816.92549  -1195018.06649  20081399.1254   20081404.1734
  22812185.288     4287262.77049   3324490.69749  22812190.3244   22812196.7054
  20754003.037      225338.30149    173444.48749  20754006.8934   20754012.1824
 96  7  9 17  7 29.9960000  0  5 24  5  4  7  9
  19296328.437    -9925700.61549  -7726971.09349  19296332.7564   19296338.8034
  19571781.011   -11653271.40149  -9068445.50949  19571786.1564   19571791.6934
  20081113.675    -1534298.63249  -1196172.65149  20081117.1574   20081122.3244
  22816471.121     4309765.20849   3342025.01049  22816472.3984   22816478.2164
  20756162.261      236693.69449    182292.83149  20756166.9504   20756173.6104
 96  7  9 17  7 59.9960000  0  5 24  5  4  7  9
  19282092.914   -10000504.01549  -7785259.45049  19282097.8584   19282104.0344
  19552013.342   -11757160.78549  -9149398.26849  19552016.7564   19552022.5044
  20080886.953    -1535492.23049  -1197102.72849  20080890.1184   20080894.5574
  22820729.365     4332165.72549   3359479.92549  22820733.0134   22820740.3144
  20758375.978      248317.56549    191350.36449  20758379.5604   20758385.4874
 96  7  9 17  8 29.9960000  0  5 24  5  4  7  9
  19267932.988   -10074919.57849  -7843245.59349  19267937.1374   19267942.8414
  19532288.516   -11860810.62849  -9230164.37749  19532293.0634   19532298.3294
  20080712.395    -1536397.09049  -1197807.82649  20080718.0284   20080723.1114
  22824977.115     4354482.15649   3376869.30149  22824981.9134   22824986.6344
  20760636.463      260208.09849    200615.70149  20760641.4874   20760647.5184
 96  7  9 17  8 59.9960000  0  5 24  5  4  7  9
  19253845.077   -10148946.25549  -7900928.70949  19253850.3654   19253856.3614
  19512610.666   -11964233.33949  -9310753.50249  19512612.2144   19512617.6934
  20080597.585    -1537011.13249  -1198286.30649  20080601.2624   20080606.3954
  22829205.255     4376700.43249   3394182.19249  22829208.8304   22829214.6144
  20762946.427      272337.17149    210066.91649  20762950.4134   20762956.4974
 96  7  9 17  9 29.9960000  0  5 24  5  4  7  9
  19239834.863   -10222572.24449  -7958299.60549  19239839.5164   19239845.7654
  19492968.588   -12067442.65549  -9391176.34049  19492972.1684   19492977.6154
  20080539.564    -1537307.91349  -1198517.57649  20080544.2794   20080549.6574
  22833409.607     4398805.99649   3411407.22649  22833415.4204   22833423.4374
  20765294.069      284681.61749    219685.94149  20765298.7764   20765305.2764
 96  7  9 17  9 59.9950000  0  5 24  5  4  7  9
  19225904.218   -10295781.84149  -8015346.03749  19225908.3754   19225914.3424
  19473366.270   -12170450.83249  -9471442.44649  19473370.3144   19473375.7894
  20080547.008    -1537279.35349  -1198495.32949  20080550.2104   20080555.0134
  22837594.912     4420782.05549   3428531.35249  22837598.7314   22837605.1354
  20767686.761      297243.02549    229474.03149  20767689.9834   20767695.5824
 96  7  9 17 10 29.9950000  0  5 24  5  4  7  9
  19212051.276   -10368575.56949  -8072068.41849  19212056.2044   19212062.2864
  19453803.668   -12273260.79949  -9551554.10949  19453806.1824   19453811.3734
  20080614.297    -1536914.00649  -1198210.65549  20080619.3754   20080624.7524
  22841751.750     4442624.78149   3445551.59849  22841755.3264   22841762.4394
  20770122.076      310055.17249    239457.49249  20770127.4594   20770133.6744
 96  7  9 17 10 59.9950000  0  5 24  5  4  7  9
  19198275.632   -10440966.87749  -8128477.21749  19198280.6054   19198286.5634
  19434277.210   -12375862.14849  -9631503.20249  19434281.7404   19434287.4124
  20080750.500    -1536201.58949  -1197655.53649  20080755.0834   20080760.3324
  22845880.378     4464330.66849   3462465.24049  22845884.7394   22845892.2784
  20772614.940      323136.55149    249650.75449  20772616.8954   20772622.5524
 96  7  9 17 11 29.9950000  0  5 24  5  4  7  9
  19184574.389   -10512970.51549  -8184583.94649  19184578.7284   19184584.6004
  19414792.705   -12478257.41049  -9711291.72549  19414796.8374   19414802.3064
  20080946.139    -1535172.74749  -1196853.85149  20080950.8424   20080955.6534
  22849988.657     4485899.91749   3479272.41749  22849988.6704   22849995.9384
  20775154.378      336494.32249    260059.41649  20775159.1364   20775164.7454
 96  7  9 17 11 59.9950000  0  5 24  5  4  7  9
  19170944.379   -10584595.74949  -8240395.80549  19170949.0984   19170955.2344
  19395351.427   -12580422.69349  -9790901.02949  19395355.3904   19395360.6844
  20081197.092    -1533853.71149  -1195826.03249  20081201.9894   20081207.3484
  22854061.015     4507350.15749   3495986.85649  22854068.5804   22854079.4714
  20777753.149      350145.99549    270697.04749  20777756.6714   20777763.0794
 96  7  9 17 12 29.9950000  0  6  6 24  5  4  7  9
  23594349.313    -5288132.44559  -4087727.54559  23594352.6324   23594359.6144
  19157386.822   -10655842.15149  -8295912.47449  19157391.4934   19157397.5894
  19375956.002   -12682355.26949  -9870329.01049  19375958.4964   19375963.7814
  20081502.043    -1532253.22949  -1194578.92249  20081505.8604   20081511.7674
  22858133.611     4528699.53149   3512622.68549  22858134.1184   22858141.6524
  20780402.911      364065.23449    281543.18649  20780405.9344   20780410.7734
 96  7  9 17 12 59.9950000  0  6  6 24  5  4  7  9
  23568000.972    -5426593.91449  -4195619.61149  23568003.2344   23568011.5574
  19143907.069   -10726680.06049  -8351110.83849  19143911.3544   19143917.2424
  19356603.526   -12784042.73149  -9949565.98649  19356607.5304   19356613.0604
  20081861.497    -1530366.58349  -1193108.82649  20081865.5474   20081870.6614
  22862176.939     4549966.47249   3529194.29949  22862182.2424   22862187.8094
  20783096.168      378229.55549    292580.30449  20783101.1604   20783107.1994
 96  7  9 17 13 29.9950000  0  6  6 24  5  4  7  9
  23541639.789    -5565112.69349  -4303556.32649  23541644.6234   23541653.3364
  19130510.616   -10797081.65049  -8405969.21549  19130514.3504   19130520.4934
  19337301.456   -12885477.54449 -10028606.09949  19337305.2674   19337310.6254
  20082272.308    -1528204.47149  -1191424.07449  20082277.2594   20082281.9064
  22866209.223     4571158.40549   3545707.41649  22866213.8274   22866222.0214
  20785837.805      392628.71749    303800.40149  20785841.3174   20785847.5444
 96  7  9 17 13 59.9950000  0  6  6 24  5  4  7  9
  23515266.485    -5703703.30949  -4411548.95749  23515271.6554   23515280.0754
  19117195.085   -10867049.51749  -8460489.62749  19117199.7844   19117205.9604
  19318044.853   -12986669.78749 -10107457.19249  19318048.9734   19318054.5254
  20082737.834    -1525760.70449  -1189519.85049  20082742.0444   20082746.9354
  22870228.896     4592265.49849   3562154.46449  22870229.6804   22870238.3364
  20788617.440      407241.78049    315187.18149  20788621.9484   20788627.6084
 96  7  9 17 14 29.9950000  0  6  6 24  5  4  7  9
  23488881.875    -5842372.40649  -4519602.73049  23488885.5944   23488893.0944
  19103964.316   -10936574.64749  -8514665.04149  19103969.6354   19103975.8924
  19298831.975   -13087625.08249 -10186123.64649  19298837.8374   19298843.6584
  20083260.847    -1523024.32649  -1187387.60949  20083262.8744   20083267.6764
  22874224.854     4613293.11649   3578539.55049  22874232.5374   22874239.9254
  20791436.654      422057.63949    326731.98049  20791441.6464   20791447.5134
 96  7  9 17 14 59.9950000  0  6  6 24  5  4  7  9
  23462471.918    -5981128.33149  -4627724.20649  23462478.8044   23462487.6294
  19090817.974   -11005668.18949  -8568504.15849  19090821.7144   19090827.5744
  19279669.606   -13188333.95749 -10264598.09149  19279673.8234   19279679.0624
  20083835.004    -1519991.59649  -1185024.45849  20083840.1544   20083845.1184
  22878213.409     4634236.61049   3594859.09349  22878217.8294   22878224.9324
  20794299.245      437095.71549    338449.93849  20794303.2884   20794308.2354
 96  7  9 17 15 29.9950000  0  6  6 24  5  4  7  9
  23436048.456    -6119994.31549  -4735931.42349  23436054.8334   23436062.6554
  19077739.823   -11074385.64549  -8622050.22049  19077745.0364   19077751.0454
  19260550.032   -13288811.06149 -10342891.93249  19260553.7584   19260559.1574
  20084463.380    -1516696.00049  -1182456.46449  20084467.0814   20084472.0754
  22882178.031     4655069.57549   3611092.52449  22882181.3714   22882187.9264
  20797200.866      452348.47849    350335.19349  20797205.5264   20797211.8564
 96  7  9 17 15 59.9950000  0  6  6 24  5  4  7  9
  23409624.203    -6258861.00549  -4844139.19549  23409628.3734   23409636.6134
  19064751.536   -11142639.90549  -8675235.35349  19064756.5124   19064762.6994
  19241494.494   -13388947.91749 -10420920.65149  19241498.4734   19241503.8614
  20085161.346    -1513019.69349  -1179591.82549  20085166.8684   20085171.7714
  22886140.470     4675891.80549   3627317.57049  22886144.1844   22886150.0734
  20800165.359      467923.16549    362471.28049  20800169.2634   20800174.9954
 96  7  9 17 16 29.9950000  0  6  6 24  5  4  7  9
  23383199.215    -6397724.85449  -4952344.75749  23383203.7474   23383211.5904
  19051852.742   -11210427.46649  -8728056.84449  19051857.1134   19051863.2274
  19222505.071   -13488740.94949 -10498681.46749  19222507.9484   19222513.9284
  20085931.968    -1508971.31049  -1176437.27449  20085936.9444   20085942.3234
  22890102.533     4696696.77149   3643529.14349  22890104.0014   22890109.2504
  20803191.024      483825.50849    374862.69849  20803195.2874   20803201.4924
 96  7  9 17 16 59.9950000  0  6  6 24  5  4  7  9
  23356780.050    -6536570.70649  -5060536.32649  23356782.7504   23356791.6714
  19039045.952   -11277729.19849  -8780499.74249  19039050.0574   19039056.1294
  19203582.300   -13588175.16049 -10576162.67549  19203586.1074   19203591.8644
  20086775.071    -1504538.88049  -1172983.44049  20086780.6084   20086785.7334
  22894054.182     4717476.82049   3659721.35149  22894057.4364   22894065.0944
  20806283.215      500079.08149    387527.79049  20806288.1574   20806294.2994
 96  7  9 17 17 29.9950000  0  6  6 24  5  4  7  9
  23330349.784    -6675435.28149  -5168742.46849  23330356.7184   23330363.9774
  19026326.169   -11344569.06549  -8832582.75349  19026330.9194   19026336.6014
  19184722.241   -13687285.07049 -10653391.18749  19184726.4174   19184731.7574
  20087684.642    -1499761.78249  -1169261.03349  20087689.6534   20087694.8754
  22897995.138     4738191.46549   3675862.61249  22898001.0244   22898005.9574
  20809437.210      516640.31549    400432.62349  20809440.9384   20809445.8004
 96  7  9 17 17 59.9950000  0  6  6 24  5  4  7  9
  23303926.400    -6814309.87449  -5276956.38749  23303930.2394   23303938.1074
  19013698.771   -11410928.88049  -8884291.68149  19013703.1514   19013709.2354
  19165920.337   -13786089.98249 -10730382.01949  19165924.2744   19165929.8854
  20088657.569    -1494646.32849  -1165274.97549  20088663.0414   20088668.3404
  22901923.775     4758819.93949   3691936.71449  22901924.6674   22901932.5014
  20812641.544      533486.06949    413559.16649  20812644.6374   20812651.9014
 96  7  9 17 18 29.9950000  0  6  6 24  5  4  7  9
  23277510.964    -6953124.69349  -5385123.76849  23277515.0324   23277522.9364
  19001175.002   -11476746.22049  -8935577.93049  19001178.4774   19001184.2634
  19147186.579   -13884534.59549 -10807092.12049  19147191.1664   19147196.5444
  20089703.369    -1489159.07549  -1160999.21949  20089707.0834   20089712.4244
  22905843.049     4779418.97549   3707987.85149  22905845.7004   22905853.1024
  20815910.961      550658.02449    426939.85849  20815914.7534   20815919.4454
 96  7  9 17 18 59.9950000  0  6  6 24  5  4  7  9
  23251111.669    -7091855.53749  -5493225.67349  23251115.3354   23251122.6064
  18988755.335   -11542008.52449  -8986431.66249  18988759.2294   18988765.5944
  19128528.460   -13982595.59849 -10883503.28449  19128530.6674   19128536.3504
  20090820.417    -1483282.52549  -1156420.09549  20090825.3114   20090830.7184
  22909762.471     4800015.88549   3724037.34849  22909764.9624   22909771.6394
  20819241.030      568168.25249    440584.16349  20819245.1604   20819252.1874
 96  7  9 17 19 29.9950000  0  6  6 24  5  4  7  9
  23224716.388    -7230546.30949  -5601296.39649  23224720.7784   23224730.2214
  18976428.223   -11606784.44649  -9036906.40149  18976432.9644   18976438.8504
  19109930.452   -14080319.97749 -10959652.15049  19109934.4964   19109939.9974
  20092003.406    -1477067.78649  -1151577.45049  20092008.3944   20092013.4274
  22913666.039     4820568.93649   3740052.65249  22913674.1994   22913682.4014
  20822625.115      585950.70249    454440.59349  20822630.1884   20822635.8474
 96  7  9 17 19 59.9950000  0  6  6 24  5  4  7  9
  23198337.360    -7369178.55549  -5709321.46949  23198341.3564   23198350.0114
  18964199.653   -11671053.99849  -9086986.56549  18964202.7144   18964208.9184
  19091402.203   -14177691.74549 -11035526.25149  19091405.1514   19091410.8354
  20093254.434    -1470501.47549  -1146460.85349  20093257.2214   20093262.4354
  22917580.241     4841096.70449   3756048.20849  22917581.1014   22917590.9604
  20826062.311      604015.21449    468516.79749  20826066.7204   20826073.8304
 96  7  9 17 20 29.9950000  0  6  6 24  5  4  7  9
  23171967.775    -7507748.15649  -5817297.80449  23171972.6904   23171981.5204
  18952066.050   -11734806.59049  -9136663.90549  18952071.1834   18952077.1004
  19072943.523   -14274688.60749 -11111108.22449  19072947.2664   19072952.4454
  20094574.143    -1463558.74449  -1141050.95049  20094579.1544   20094584.5334
  22921490.301     4861638.84949   3772055.04149  22921490.7714   22921498.9184
  20829560.220      622393.31949    482837.34649  20829565.1684   20829570.4124
 96  7  9 17 20 59.9950000  0  6  6 24  5  4  7  9
  23145606.641    -7646281.56549  -5925245.91149  23145611.5694   23145618.5974
  18940030.673   -11798059.47449  -9185951.87649  18940034.6774   18940040.3764
  19054553.932   -14371329.75249 -11186413.00949  19054556.9424   19054562.7004
  20095970.423    -1456228.72749  -1135339.26449  20095973.7584   20095978.6774
  22925390.078     4882181.80849   3788062.53849  22925398.9874   22925406.8074
  20833114.110      641074.60649    497394.15049  20833118.9584   20833125.8444
 96  7  9 17 21 29.9950000  0  6  6 24  5  4  7  9
  23119248.474    -7784793.94949  -6033177.51149  23119253.1194   23119261.7414
  18928087.635   -11860818.03249  -9234854.63449  18928091.8514   18928098.0764
  19036229.260   -14467625.42149 -11261448.60549  19036232.7944   19036238.0224
  20097438.072    -1448523.29949  -1129335.04849  20097440.1404   20097445.2374
  22929299.488     4902721.05349   3804067.02749  22929308.5984   22929316.0104
  20836727.488      660045.89949    512176.92849  20836730.1034   20836735.7274
 96  7  9 17 21 59.9950000  0  5  6 24  5  4  9
  23092886.374    -7923332.83149  -6141129.79249  23092890.3264   23092897.5664
  18916233.543   -11923109.27149  -9283393.25249  18916238.2774   18916244.4374
  19017962.405   -14563613.26449 -11336244.32849  19017966.7884   19017972.2184
  20098965.058    -1440490.13349  -1123075.45549  20098968.8184   20098973.8074
  20840382.713      679263.70649    527151.83149  20840386.8184   20840392.1674
 96  7  9 17 22 29.9950000  0  5  6 24  5  4  9
  23066521.125    -8061886.94849  -6249094.01549  23066524.7754   23066531.1724
  18904467.410   -11984947.96149  -9331579.23949  18904471.0944   18904476.6804
  18999758.272   -14659281.85249 -11410791.27549  18999761.6594   18999767.3474
  20100555.242    -1432119.64449  -1116553.00849  20100561.6634   20100567.1494
  20844087.019      698727.62049    542318.48849  20844090.6654   20844096.8904
 96  7  9 17 22 59.9950000  0  5  6 24  5  4  9
  23040143.326    -8200486.33349  -6357093.45949  23040148.8924   23040156.8664
  18892779.686   -12046357.50749  -9379430.82849  18892784.8944   18892791.0224
  18981612.405   -14754640.44749 -11485096.66949  18981615.2694   18981621.0114
  20102207.780    -1423447.06049  -1109795.16149  20102212.0804   20102216.9064
  20847827.891      718395.72349    557644.24349  20847832.7384   20847839.2364
 96  7  9 17 23 29.9940000  0  5  6 24  5  4  9
  23013758.924    -8339139.73549  -6465135.02049  23013764.0754   23013770.3134
  18881174.649   -12107346.74949  -9426954.91049  18881179.3074   18881185.2154
  18963524.761   -14849685.75349 -11559157.95149  18963528.8834   18963534.2424
  20103908.327    -1414509.55749  -1102830.89549  20103912.6994   20103918.4024
  20851608.769      738257.58149    573120.97449  20851613.0254   20851619.7614
 96  7  9 17 23 59.9940000  0  5  6 24  5  4  9
  22987367.482    -8477857.11749  -6573226.42849  22987366.5854   22987372.7554
  18869647.438   -12167930.15649  -9474162.74949  18869650.6014   18869656.6284
  18945497.213   -14944423.91549 -11632979.89449  18945500.6194   18945506.2334
  20105658.788    -1405311.70649  -1095663.74949  20105662.7994   20105668.1544
  20855425.535      758307.74049    588744.43249  20855428.3244   20855434.4324
 96  7  9 17 24 29.9940000  0  5  6 24  5  4  9
  22960951.151    -8616642.02849  -6681370.45749  22960955.5914   22960964.1714
  18858193.160   -12228108.64349  -9521055.07349  18858198.6314   18858204.9524
  18927527.087   -15038858.95049 -11706565.63449  18927530.2444   18927535.8784
  20107458.450    -1395858.32449  -1088297.50149  20107461.9244   20107467.2804
  20859275.218      778543.70049    604512.67749  20859279.2504   20859285.2214
 96  7  9 17 24 59.9940000  0  5  6 24  5  4  9
  22934529.675    -8755508.34149  -6789577.92849  22934531.6624   22934539.1434
  18846819.077   -12287881.46049  -9567631.29449  18846824.2614   18846830.5864
  18909613.642   -15132994.74149 -11779918.20349  18909617.2854   18909622.2904
  20109301.708    -1386164.97749  -1080744.25849  20109306.5844   20109312.1044
  20863162.281      798969.91449    620429.17949  20863166.5864   20863172.8574
 96  7  9 17 25 29.9940000  0  5  6 24  5  4  9
  22908091.186    -8894415.38449  -6897817.14549  22908097.4234   22908105.9284
  18835526.195   -12347232.67449  -9613878.98949  18835530.0934   18835536.3444
  18891760.291   -15226812.57849 -11853023.02149  18891764.2194   18891769.6074
  20111198.856    -1376196.64549  -1072976.74549  20111203.8754   20111208.9154
  20867091.828      819622.82949    636522.33249  20867096.3914   20867102.6434
 96  7  9 17 25 59.9940000  0  5  6 24  5  4  9
  22881658.784    -9033337.11449  -7006067.77049  22881663.1634   22881670.2654
  18824313.771   -12406151.77449  -9659789.96349  18824318.4074   18824324.2314
  18873969.637   -15320303.00549 -11925872.70249  18873973.4904   18873978.9964
  20113150.119    -1365933.95449  -1064979.85149  20113156.1344   20113161.9204
  20871068.042      840513.18649    652800.46849  20871071.0834   20871078.2064
 96  7  9 17 26 29.9940000  0  5  6 24  5  4  9
  22855210.001    -9172309.02649  -7114357.46449  22855215.4864   22855224.0314
  18813176.345   -12464680.76349  -9705396.96749  18813180.8034   18813186.7924
  18856235.641   -15413499.69349 -11998493.50149  18856239.0264   18856243.9604
  20115153.170    -1355415.99249  -1056784.06249  20115158.0474   20115162.9864
  20875085.029      861621.65049    669248.59249  20875089.0864   20875094.6704
 96  7  9 17 26 59.9940000  0  5  6 24  5  4  9
  22828754.323    -9311345.19749  -7222697.30649  22828759.3474   22828767.6734
  18802105.683   -12522853.35849  -9750726.25849  18802110.8244   18802116.6014
  18838553.714   -15506417.30549 -12070896.83649  18838557.1324   18838562.3564
  20117198.724    -1344671.22149  -1048411.51749  20117202.5864   20117207.8534
  20879140.000      882929.03249    685851.71949  20879143.2884   20879149.3504
 96  7  9 17 27 29.9940000  0  5  6 24  5  4  9
  22802279.903    -9450487.09649  -7331119.50149  22802283.0874   22802289.6204
  18791099.116   -12580698.06249  -9795800.04349  18791103.4754   18791109.5974
  18820918.550   -15599093.00449 -12143111.67049  18820921.3004   18820927.0724
  20119275.021    -1333752.07349  -1039903.11749  20119280.4404   20119285.7804
  20883223.386      904383.88449    702569.76649  20883226.2514   20883231.8784
 96  7  9 17 27 59.9940000  0  5  6 24  5  4  9
  22775791.786    -9589662.34849  -7439567.67549  22775797.1544   22775805.1684
  18780172.724   -12638120.28449  -9840544.63449  18780176.4414   18780182.1474
  18803346.292   -15691434.64349 -12215066.19549  18803349.3354   18803354.9634
  20121400.767    -1322593.54149  -1031208.16749  20121404.2104   20121409.2234
  20887346.980      926060.00049    719460.19949  20887350.9474   20887356.5904
 96  7  9 17 28 29.9940000  0  5  6 24  5  4  9
  22749314.433    -9728810.34449  -7547994.63149  22749318.6984   22749326.9264
  18769341.439   -12695034.79949  -9884893.59849  18769345.7924   18769351.8834
  18785852.312   -15783360.50049 -12286696.73649  18785856.5324   18785861.7834
  20123585.586    -1311118.20749  -1022266.36549  20123587.8674   20123593.1984
  20891525.821      948019.04849    736571.10149  20891529.7154   20891535.0854
 96  7  9 17 28 59.9940000  0  5  6 24  5  4  9
  22722853.066    -9867851.48849  -7656338.28549  22722859.5404   22722867.5964
  18758625.561   -12751348.33949  -9928774.27449  18758629.6204   18758635.8144
  18768455.215   -15874789.29949 -12357939.96049  18768458.5244   18768463.6474
  20125842.919    -1299240.61249  -1013011.11849  20125847.7144   20125852.8844
  20895769.836      970318.84249    753947.54149  20895772.8504   20895778.7244
 96  7  9 17 29 29.9940000  0  5  6 24  5  4  9
  22696397.782   -10006904.98949  -7764691.58849  22696398.0354   22696405.8074
  18747999.828   -12807182.16349  -9972281.14949  18748005.2174   18748010.8324
  18751124.813   -15965860.11449 -12428904.22849  18751128.1244   18751133.7414
  20128155.638    -1287087.94149  -1003541.51849  20128160.2614   20128165.4414
  20900051.148      992825.73049    771485.33649  20900056.0594   20900062.0134
 96  7  9 17 29 59.9940000  0  5  6 24  5  4  9
  22669955.261   -10145844.10649  -7872955.80149  22669958.8734   22669967.3934
  18737486.425   -12862437.51249 -10015337.27249  18737490.2264   18737496.2524
  18733881.593   -16056468.33749 -12499508.05949  18733885.9174   18733891.5254
  20130547.400    -1274530.04049   -993756.17249  20130549.9854   20130555.7774
  20904393.968     1015648.08149    789268.93949  20904399.1714   20904405.2344
 96  7  9 17 30 29.9940000  0  5  6 24  5  4  9
  22643515.034   -10284798.35149  -7981231.79149  22643517.7064   22643525.0794
  18727051.635   -12917265.54349 -10058060.41749  18727056.6454   18727063.0324
  18716699.355   -16146761.23749 -12569866.17449  18716703.5934   18716709.2764
  20132989.172    -1261696.57449   -983756.10849  20132992.5964   20132998.1514
  20908772.043     1038646.57749    807189.79949  20908775.4914   20908781.0144
 96  7  9 17 30 59.9940000  0  5  6 24  5  4  9
  22617052.622   -10423842.78149  -8089578.05249  22617056.9014   22617063.9784
  18716679.815   -12971770.08049 -10100531.49249  18716684.6124   18716690.7054
  18699561.460   -16236827.67849 -12640047.83049  18699564.7984   18699570.1784
  20135464.143    -1248684.37249   -973616.75049  20135468.3254   20135473.2994
  20913166.982     1061736.17149    825181.67349  20913169.0544   20913175.4724
 96  7  9 17 31 59.9940000  0  5  6 24  5  4  9
  22564097.225   -10702125.71749  -8306421.74049  22564101.3524   22564109.3394
  18696142.371   -13079700.37449 -10184633.02749  18696146.3164   18696152.1694
  18665446.273   -16416101.44849 -12779741.69549  18665450.2184   18665455.3674
  20140541.413    -1222000.52249   -952824.19049  20140546.2184   20140551.7574
  20922020.714     1108266.62949    861439.07549  20922024.1024   20922029.8454
 96  7  9 17 32 29.9940000  0  5  6 24  5  4  9
  22537614.240   -10841306.04249  -8414873.88849  22537619.5754   22537624.5354
  18685995.126   -13133023.14149 -10226183.23649  18685999.5974   18686005.3304
  18648498.005   -16505168.99949 -12849144.98949  18648501.2464   18648506.6614
  20143161.015    -1208242.74049   -942103.86349  20143164.0844   20143169.4874
  20926498.555     1131798.75249    879775.76449  20926502.2244   20926507.7344
 96  7  9 17 33 29.9940000  0  5  6 24  5  4  9
  22484646.434   -11119647.77149  -8631763.48749  22484650.9014   22484656.6694
  18665985.169   -13238177.56249 -10308121.75249  18665989.2804   18665994.9644
  18614852.727   -16681968.05449 -12986910.49549  18614857.0644   18614862.6664
  20148572.271    -1179802.86749   -919942.96949  20148575.9894   20148581.1434
  20935581.224     1179525.03849    916964.97349  20935583.7904   20935589.9984
 96  7  9 17 33 59.9940000  0  5  6 24  5  4  9
  22458173.680   -11258762.68649  -8740164.67249  22458176.2924   22458185.2554
  18656129.528   -13289974.32749 -10348482.87449  18656133.0234   18656138.6944
  18598161.555   -16769688.47249 -13055264.07949  18598164.7364   18598169.8674
  20151366.678    -1165113.39149   -908496.64549  20151371.7734   20151376.9984
  20940196.508     1203788.20849    935871.30649  20940201.4264   20940207.2404
 96  7  9 17 34 29.9940000  0  5  6 24  5  4  9
  22431717.876   -11397790.45149  -8848497.91049  22431721.0404   22431728.8474
  18646370.220   -13341246.21449 -10388435.00049  18646375.8454   18646381.8904
  18581550.463   -16856974.54749 -13123279.20649  18581554.6324   18581560.1294
  20154221.753    -1150113.58549   -896808.51149  20154226.0204   20154230.9734
  20944866.740     1228339.14849    955001.87149  20944873.3224   20944880.1354
 96  7  9 17 34 59.9940000  0  5  6 24  5  4  9
  22405283.108   -11536705.75449  -8956743.55749  22405287.8874   22405294.1424
  18636716.366   -13391983.76349 -10427970.75249  18636720.7744   18636726.6234
  18565024.170   -16943824.48649 -13190954.48549  18565027.5474   18565033.1874
  20157139.832    -1134779.32949   -884859.76249  20157144.1634   20157149.5054
  20949599.606     1253188.63749    974365.04849  20949602.0404   20949608.3714
 96  7  9 17 35 29.9940000  0  6 16  6 24  5  4  9
  22671845.405     -476978.70659   -335356.55059  22671850.1454   22671858.3194
  22378869.334   -11675504.49949  -9064898.37149  22378873.2394   22378882.0164
  18627160.614   -13442202.26949 -10467102.06049  18627164.9954   18627170.4194
  18548578.536   -17030246.32949 -13258296.18749  18548582.3494   18548587.6574
  20160121.821    -1119104.12249   -872645.34149  20160127.0104   20160132.5074
  20954382.906     1278335.04349    993959.62349  20954387.6164   20954393.7254
 96  7  9 17 35 59.9940000  0  6 16  6 24  5  4  9
  22641257.153     -637717.53059   -460607.51159  22641262.2134   22641270.7704
  22352483.367   -11814163.58649  -9172944.32549  22352487.2864   22352496.4564
  18617706.758   -13491876.55749 -10505809.30649  18617711.9534   18617717.8184
  18532222.116   -17116201.10049 -13325273.93549  18532225.5214   18532230.9904
  20163176.291    -1103053.70149   -860138.54449  20163181.0004   20163186.7484
  20959229.895     1303785.92449   1013791.41949  20959231.1424   20959236.7584
 96  7  9 17 36 29.9930000  0  6 16  6 24  5  4  9
  22610684.651     -798374.77449   -585794.82449  22610689.5484   22610698.1514
  22326129.537   -11952658.71949  -9280862.55849  22326133.4394   22326141.0044
  18608368.480   -13540952.84549 -10544050.57449  18608372.8654   18608379.0174
  18515966.846   -17201628.55749 -13391840.78749  18515969.1234   18515974.4454
  20166311.910    -1086577.55649   -847300.01949  20166316.8724   20166322.3654
  20964127.905     1329549.98749   1033867.26649  20964133.2714   20964139.9494
 96  7  9 17 36 59.9930000  0  6 16  6 24  5  4  9
  22580129.793     -958963.41649   -710928.75949  22580130.4524   22580137.9304
  22299803.359   -12091014.21949  -9388671.95949  22299805.5824   22299812.3764
  18599142.988   -13589429.53149 -10581824.62249  18599148.3674   18599154.0724
  18499811.231   -17286514.93149 -13457986.01549  18499815.6154   18499821.1194
  20169528.940    -1069671.91949   -834126.81649  20169534.0964   20169539.1964
  20969092.971     1355635.59049   1054193.65749  20969097.3254   20969103.3114
 96  7  9 17 37 29.9930000  0  6 16  6 24  5  4  9
  22549581.066    -1119461.69049   -835992.27449  22549589.0474   22549596.8534
  22273500.223   -12229219.36649  -9496364.19949  22273505.9074   22273513.1324
  18590034.336   -13637295.85949 -10619123.06249  18590039.5814   18590045.2544
  18483768.660   -17370825.71549 -13523682.73549  18483772.1764   18483777.5284
  20172826.821    -1052333.58549   -820616.44949  20172832.8224   20172838.7654
  20974122.367     1382059.14349   1074783.40549  20974126.3474   20974131.5274
 96  7  9 17 37 59.9930000  0  6 16  6 24  5  4  9
  22519023.950    -1280046.62749   -961123.30349  22519030.8034   22519039.4064
  22247199.496   -12367437.70449  -9604066.70949  22247203.1404   22247210.3214
  18581009.524   -13684725.49249 -10656081.21049  18581013.8894   18581019.8524
  18467802.541   -17454727.65549 -13589060.85749  18467806.0524   18467811.5564
  20176175.866    -1034755.36549   -806919.16049  20176178.3724   20176183.3304
  20979182.020     1408642.17349   1095497.40449  20979184.6064   20979190.6614
 96  7  9 17 38 29.9930000  0  6 16  6 24  5  4  9
  22488515.001    -1440375.69749  -1086054.91749  22488521.7444   22488529.8184
  22220960.833   -12505320.91049  -9711508.10549  22220965.5634   22220972.0244
  18572129.861   -13731386.02149 -10692440.06249  18572134.8254   18572140.5614
  18451978.521   -17537876.17049 -13653851.90449  18451983.3734   18451989.0404
  20179624.671    -1016610.25149   -792780.12549  20179630.8514   20179636.0734
  20984333.233     1435726.49949   1116602.03249  20984337.9674   20984343.7734
 96  7  9 17 38 59.9930000  0  6 16  6 24  5  4  9
  22458063.764    -1600408.82849  -1210755.97549  22458068.2134   22458076.2484
  22194792.304   -12642837.97849  -9818664.18549  22194796.0314   22194802.7864
  18563398.743   -13777269.15049 -10728193.14849  18563403.7774   18563409.4174
  18436305.051   -17620249.97749 -13718039.28449  18436308.3134   18436313.7784
  20183190.905     -997882.45249   -778187.05149  20183195.0854   20183200.4834
  20989587.589     1463340.97149   1138119.77649  20989592.6854   20989599.4744
 96  7  9 17 39 29.9930000  0  6 16  6 24  5  4  9
  22427647.917    -1760238.59349  -1335298.59549  22427653.7544   22427661.4784
  22168674.550   -12780080.19249  -9925606.13649  22168680.3074   22168686.4734
  18554796.597   -13822468.26749 -10763413.22949  18554802.4094   18554808.1714
  18420758.324   -17701945.31649 -13781697.97549  18420761.9974   18420767.4344
  20186846.547     -978673.13949   -763218.75849  20186850.7354   20186855.2944
  20994928.027     1491385.84549   1159972.87049  20994929.3854   20994936.2714
 96  7  9 17 39 59.9930000  0  6 16  6 24  5  4  9
  22397243.231    -1920019.59149  -1459803.21849  22397246.8754   22397256.4564
  22142589.132   -12917171.37449 -10032430.36749  22142590.1484   22142599.2274
  18546305.148   -13867099.36449 -10798190.70449  18546309.6844   18546315.3374
  18405313.648   -17783107.00049 -13844940.84249  18405317.5764   18405322.8864
  20190568.484     -959115.19749   -747978.83449  20190572.2444   20190577.7164
  21000320.903     1519728.14749   1182057.76649  21000323.0714   21000329.0754
 96  7  9 17 40 29.9930000  0  6 16  6 24  5  4  9
  22366804.248    -2079965.96649  -1584436.67349  22366810.7104   22366818.9604
  22116485.924   -13054336.13449 -10139311.91349  22116490.5454   22116497.3194
  18537880.423   -13911374.70149 -10832690.96749  18537883.8954   18537889.5024
  18389928.953   -17863955.99649 -13907940.06049  18389932.6804   18389938.1014
  20194319.829     -939400.66649   -732616.88949  20194323.4334   20194328.3484
  21005731.655     1548170.69849   1204220.75249  21005734.9834   21005741.8004
 96  7  9 17 40 59.9930000  0  6 16  6 24  5  4  9
  22336360.223    -2239982.10449  -1709124.47949  22336361.0164   22336368.8694
  22090388.349   -13191478.53549 -10246176.06249  22090392.4574   22090399.1444
  18529540.976   -13955187.92349 -10866831.13849  18529546.7964   18529552.5974
  18374620.510   -17944402.85349 -13970625.91749  18374623.9414   18374629.4584
  20198120.686     -919421.99749   -717049.11149  20198125.6714   20198131.0094
  21011183.721     1576818.63449   1226543.74549  21011187.0534   21011193.9704
 96  7  9 17 41 29.9930000  0  6 16  6 24  5  4  9
  22305877.650    -2400132.40649  -1833916.86949  22305885.0834   22305892.8604
  22064283.678   -13328659.51149 -10353070.29149  22064288.1784   22064294.1814
  18521284.048   -13998587.41249 -10900648.92049  18521288.2084   18521293.7244
  18359377.007   -18024504.67449 -14033042.92349  18359380.9974   18359386.4894
  20201962.258     -899235.71749   -701319.54749  20201966.7234   20201972.0044
  21016663.228     1605611.57249   1248979.75549  21016665.9854   21016672.7304
 96  7  9 17 41 59.9930000  0  6 16  6 24  5  4  9
  22275374.339    -2560446.44349  -1958836.80349  22275377.9504   22275385.6744
  22038162.726   -13465929.21649 -10460033.62349  22038166.0824   22038173.6724
  18513092.563   -14041621.38149 -10934181.88649  18513099.1814   18513104.9614
  18344190.956   -18104304.94049 -14095224.94749  18344195.3164   18344201.0154
  20205837.521     -878884.46349   -685461.46549  20205839.2464   20205844.4134
  21022157.159     1634491.96449   1271483.91749  21022161.4454   21022168.2154
 96  7  9 17 42 29.9930000  0  6 16  6 24  5  4  9
  22244864.884    -2720787.16049  -2083777.55949  22244866.2494   22244873.8954
  22012040.474   -13603200.48149 -10566998.20449  22012044.1544   22012050.7784
  18504989.857   -14084206.82049 -10967365.34649  18504995.1264   18505001.1024
  18329084.837   -18183694.57249 -14157086.99649  18329088.4044   18329093.4794
  20209757.781     -858279.11249   -669405.36849  20209760.6654   20209766.0884
  21027687.993     1663538.27249   1294117.35849  21027689.0674   21027695.7154
 96  7  9 17 42 59.9930000  0  6 16  6 24  5  4  9
  22214350.417    -2881138.88049  -2208726.89849  22214352.1704   22214360.1974
  21985919.422   -13740464.09049 -10673956.76949  21985925.1874   21985931.5604
  18496974.808   -14126334.51349 -11000192.11849  18496978.5944   18496984.5994
  18314058.921   -18262657.29949 -14218616.39749  18314062.3014   18314067.3524
  20213722.949     -837433.85849   -653162.33149  20213727.6704   20213732.9334
  21033238.889     1692737.19449   1316869.71349  21033245.2714   21033251.9534
 96  7  9 17 43 29.9930000  0  6 16  6 24  5  4  9
  22183835.142    -3041477.18349  -2333665.75349  22183840.3514   22183849.1084
  21959805.838   -13877697.14949 -10780891.56049  21959809.0284   21959816.6214
  18489047.749   -14167991.55249 -11032652.14549  18489051.5914   18489057.4054
  18299116.977   -18341171.09549 -14279795.98449  18299121.4494   18299126.9614
  20217741.588     -816337.81549   -636723.87549  20217742.3214   20217747.0774
  21038829.472     1722102.66349   1339751.83749  21038833.6384   21038840.7924
 96  7  9 17 43 59.9930000  0  6 16  6 24  5  4  9
  22153310.245    -3201889.33649  -2458662.14149  22153315.4714   22153323.0964
  21933679.584   -14014987.60649 -10887871.06249  21933683.6154   21933690.5204
  18481189.400   -14209279.28049 -11064824.39849  18481194.5774   18481200.5334
  18284245.549   -18419324.40649 -14340694.66849  18284249.5804   18284254.8984
  20221778.195     -795094.32149   -620170.53049  20221784.1434   20221789.7594
  21044430.549     1751540.41849   1362690.30849  21044435.8164   21044441.9184
 96  7  9 17 44 29.9930000  0  6 16  6 24  5  4  9
  22122769.045    -3362385.14549  -2583723.79749  22122774.2494   22122781.9004
  21907544.263   -14152337.31949 -10994896.72749  21907547.4964   21907554.8504
  18473400.041   -14250209.11049 -11096717.77749  18473405.8584   18473411.5834
  18269441.331   -18497126.52149 -14401319.69949  18269444.1294   18269449.7134
  20225845.327     -773714.46249   -603510.93249  20225852.3784   20225858.2624
  21050047.823     1781049.10349   1385684.04549  21050050.9204   21050057.2104
 96  7  9 17 44 59.9930000  0  6 16  6 24  5  4  9
  22092203.112    -3523019.49349  -2708893.33349  22092206.6844   22092214.2314
  21881389.673   -14289777.56349 -11101992.93649  21881393.4724   21881400.1574
  18465672.789   -14290822.51649 -11128364.59049  18465677.7414   18465683.4544
  18254695.400   -18574615.22349 -14461700.51149  18254698.4994   18254703.9624
  20229938.284     -752223.65149   -586764.85849  20229942.9934   20229947.7954
  21055668.372     1810596.59749   1408708.02449  21055673.5904   21055680.2234
 96  7  9 17 45 29.9930000  0  6 16  6 24  5  4  9
  22061599.781    -3683818.21049  -2834190.90849  22061608.1634   22061614.6504
  21855213.638   -14427342.70349 -11209186.47349  21855215.8874   21855222.3934
  18457996.793   -14331158.52149 -11159795.24149  18458001.8774   18458007.6954
  18240002.207   -18651823.14149 -14521862.52849  18240006.4534   18240011.7174
  20234042.582     -730646.72449   -569951.68649  20234048.2364   20234053.7254
  21061290.629     1840133.76249   1431723.95349  21061294.4564   21061301.7394
 96  7  9 17 45 59.9930000  0  6 16  6 24  5  4  9
  22030984.199    -3844751.43649  -2959593.39149  22030982.9904   22030990.0304
  21829011.842   -14565014.11849 -11316462.83449  21829016.5454   21829025.0184
  18450377.087   -14371204.11149 -11190999.59949  18450381.3154   18450387.2464
  18225369.310   -18728723.47049 -14581784.86749  18225372.8454   18225378.0494
  20238173.535     -708956.01049   -553049.85749  20238175.6864   20238181.3384
  21066909.951     1869666.01449   1454736.03349  21066914.4194   21066921.1294
 96  7  9 17 46 29.9930000  0  6 16  6 24  5  4  9
  22000320.199    -4005852.90759  -3085127.00759  22000325.0464   22000333.4874
  21802791.391   -14702816.43249 -11423841.19849  21802794.6254   21802801.3354
  18442804.780   -14410997.36049 -11222007.32549  18442809.2214   18442815.0964
  18210791.195   -18805337.91349 -14641484.43749  18210793.6324   18210799.1054
  20242318.447     -687169.76949   -536073.59049  20242321.8774   20242326.9004
  21072525.699     1899165.93549   1477722.93649  21072528.1004   21072534.2784
 96  7  9 17 46 59.9930000  0  6 16  6 24  5  4  9
  21969666.880    -4166936.33349  -3210646.47049  21969672.7244   21969680.6954
  21776580.722   -14840553.27449 -11531168.57749  21776584.6204   21776591.1184
  18435316.297   -14450349.81949 -11252671.57749  18435320.7424   18435326.3104
  18196300.704   -18881469.04249 -14700807.39449  18196306.1874   18196311.6074
  20246516.419     -665102.08549   -518878.01249  20246521.2124   20246526.8984
  21078168.389     1928817.71849   1500828.17649  21078170.4054   21078177.0674
 96  7  9 17 47 29.9930000  0  6 16  6 24  5  4  9
  21938994.102    -4328148.44649  -3336266.23149  21938994.6634   21939003.6054
  21750353.724   -14978366.96549 -11638555.80249  21750359.0584   21750365.4604
  18427884.754   -14489397.29449 -11283098.18149  18427889.9714   18427896.1474
  18181879.976   -18957260.65049 -14759865.79349  18181883.4534   18181888.7674
  20250739.434     -642908.53749   -501584.37149  20250744.4124   20250749.8874
  21083809.683     1958486.85749   1523946.94149  21083816.2834   21083822.4494
 96  7  9 17 47 59.9930000  0  6 16  6 24  5  4  9
  21908301.024    -4489430.67249  -3461940.63749  21908305.8414   21908311.9654
  21724126.525   -15116193.35149 -11745952.89549  21724131.2244   21724137.8044
  18420526.997   -14528066.09749 -11313229.71749  18420531.3974   18420537.4994
  18167535.684   -19032640.48649 -14818603.32549  18167539.3924   18167544.9004
  20254996.744     -620537.27749   -484152.24849  20255001.5034   20255006.8844
  21089480.846     1988270.10649   1547154.60949  21089484.1234   21089490.2894
 96  7  9 17 48 29.9930000  0  6 16  6 24  5  4  9
  21877577.185    -4650897.19049  -3587758.64949  21877578.8844   21877585.8894
  21697876.020   -15254151.12449 -11853452.42249  21697879.1324   21697885.6934
  18413222.031   -14566448.24749 -11343137.88849  18413227.8334   18413233.8734
  18153248.557   -19107722.76649 -14877109.00149  18153251.7944   18153257.1554
  20259264.639     -598114.24549   -466679.78049  20259268.1854   20259273.7624
  21095149.727     2018058.24549   1570366.09149  21095152.6294   21095159.3454
 96  7  9 17 48 59.9930000  0  6 16  6 24  5  4  9
  21846823.100    -4812504.91149  -3713686.69549  21846825.4684   21846832.4484
  21671601.596   -15392219.46849 -11961038.07149  21671604.4594   21671612.5634
  18405982.789   -14604495.90049 -11372785.41049  18405987.5834   18405993.3274
  18139019.004   -19182495.17749 -14935373.21249  18139022.9144   18139028.3624
  20263542.248     -575626.39949   -449156.80249  20263547.7774   20263553.8634
  21100822.657     2047864.45649   1593591.65949  21100824.7984   21100831.2184
 96  7  9 17 49 29.9920000  0  6 16  6 24  5  4  9
  21816071.432    -4974105.14049  -3839608.91249  21816073.7374   21816080.7914
  21645328.378   -15530281.90249 -12068619.10849  21645332.7514   21645340.2934
  18398830.037   -14642084.93849 -11402075.56849  18398834.6484   18398840.3964
  18124870.300   -19256843.74449 -14993307.16149  18124874.8154   18124880.4134
  20267858.107     -552954.60849   -431490.51049  20267862.6794   20267867.4214
  21106518.437     2077804.59949   1616921.58349  21106522.2774   21106529.0934
 96  7  9 17 49 59.9920000  0  6 16  6 24  5  4  9
  21785306.919    -5135763.65049  -3965576.51049  21785309.8114   21785318.4154
  21619037.771   -15668433.05849 -12176269.30849  21619043.3354   21619050.9374
  18391744.852   -14679315.14949 -11431086.12249  18391749.7364   18391756.0304
  18110786.363   -19330863.27249 -15050984.71349  18110789.3984   18110794.9884
  20272189.979     -530180.29849   -413744.30949  20272195.4364   20272202.2324
  21112222.221     2107773.17549   1640273.66149  21112224.1544   21112231.4954
 96  7  9 17 50 29.9920000  0  6 16  6 24  5  4  9
  21754540.710    -5297453.40949  -4091568.46749  21754541.7884   21754549.1874
  21592738.862   -15806648.64249 -12283969.72549  21592741.2334   21592746.3174
  18384727.843   -14716197.80149 -11459825.85149  18384731.2304   18384737.1894
  18096760.058   -19404561.88049 -15108412.19949  18096764.9004   18096770.5734
  20276543.435     -507295.12849   -395911.74549  20276550.6704   20276556.2204
  21117923.947     2137752.43849   1663634.07349  21117929.5544   21117936.6334
 96  7  9 17 50 59.9920000  0  6 16  6 24  5  4  9
  21723768.120    -5459171.49549  -4217582.50549  21723768.1804   21723775.6054
  21566425.575   -15944924.03949 -12391716.74649  21566429.5414   21566435.8494
  18377770.066   -14752756.42349 -11488313.08849  18377774.5154   18377780.2794
  18082799.627   -19477935.19249 -15165586.21049  18082802.6554   18082807.9064
  20280925.188     -484293.48349   -377988.40149  20280928.0264   20280934.0134
  21123636.291     2167748.26349   1687007.38749  21123637.8844   21123644.9944
 96  7  9 17 51 29.9920000  0  6 16  6 24  5  4  9
  21692978.259    -5620936.04049  -4343632.73249  21692985.4044   21692993.4324
  21540098.284   -16083273.73749 -12499521.62749  21540101.6304   21540109.3024
  18370869.907   -14789021.57849 -11516571.65349  18370873.7454   18370879.4824
  18068898.294   -19550982.20349 -15222505.95849  18068902.1074   18068907.5184
  20285319.203     -461189.69649   -359985.48849  20285324.2414   20285330.7504
  21129344.289     2197749.25549   1710384.74249  21129346.8864   21129353.1184
 96  7  9 17 51 59.9920000  0  6 16  6 24  5  4  9
  21662198.290    -5782737.98949  -4469712.11249  21662196.5764   21662203.4544
  21513764.231   -16221660.07449 -12607355.07449  21513767.4054   21513774.3394
  18364030.030   -14824956.50649 -11544572.89449  18364035.0714   18364041.0984
  18055069.583   -19623653.29349 -15279132.78349  18055073.3614   18055078.7224
  20289742.266     -437960.34749   -341884.72049  20289745.7314   20289750.7304
  21135059.197     2227796.26349   1733797.95449  21135065.7054   21135071.2494
 96  7  9 17 52 29.9920000  0  6 16  6 24  5  4  9
  21631381.880    -5944618.58749  -4595852.78349  21631391.0064   21631398.5984
  21487418.328   -16360099.58849 -12715229.95049  21487423.0944   21487430.9224
  18357254.242   -14860565.80549 -11572320.40249  18357258.9754   18357264.7154
  18041312.207   -19695952.76149 -15335470.03549  18041315.3604   18041320.5184
  20294178.665     -414636.35249   -323710.21149  20294183.1034   20294188.5554
  21140789.183     2257882.45349   1757241.68349  21140790.1354   21140797.3884
 96  7  9 17 52 59.9920000  0  6 16  6 24  5  4  9
  21600562.686    -6106644.01349  -4722106.30149  21600557.8694   21600566.5434
  21461048.923   -16498674.22449 -12823210.10949  21461053.5244   21461060.8884
  18350528.560   -14895910.44849 -11599861.68949  18350533.3604   18350539.1264
  18027613.637   -19767934.30449 -15391559.55449  18027617.7754   18027622.9244
  20298622.131     -391292.39449   -305520.13449  20298625.6454   20298631.0834
  21146501.645     2287928.97649   1780654.48049  21146507.3984   21146514.5284
 96  7  9 17 53 29.9920000  0  6 16  6 24  5  4  9
  21569693.641    -6268815.26849  -4848473.43349  21569698.1484   21569705.1804
  21434654.336   -16637387.99349 -12931298.70549  21434657.7634   21434664.7994
  18343852.980   -14930991.18149 -11627197.32449  18343857.6344   18343863.5644
  18013973.305   -19839614.19649 -15447414.01949  18013977.4724   18013982.9144
  20303061.374     -367948.28049   -287329.94349  20303067.6644   20303074.1554
  21152210.296     2317919.72349   1804023.81949  21152214.6294   21152221.5954
 96  7  9 17 53 59.9920000  0  6 16  6 24  5  4  9
  21538830.329    -6430992.56749  -4974845.30449  21538837.2084   21538845.9444
  21408251.484   -16776112.35749 -13039395.53649  21408259.0074   21408265.0434
  18337251.651   -14965681.00949 -11654228.36749  18337256.2044   18337261.9204
  18000414.943   -19910869.79849 -15502937.87049  18000418.0554   18000423.2374
  20307531.518     -344471.58749   -269036.43449  20307534.9614   20307540.3094
  21157935.883     2347992.28249   1827456.91649  21157937.5014   21157944.4174
 96  7  9 17 54 29.9920000  0  6 16  6 24  5  4  9
  21507971.689    -6593168.30749  -5101215.94649  21507975.1514   21507984.6024
  21381853.338   -16914860.12849 -13147510.60949  21381855.9264   21381862.6884
  18330719.924   -15000010.96749 -11680978.97949  18330723.3104   18330729.5314
  17986931.081   -19981727.69549 -15558151.81549  17986934.3324   17986939.4524
  20312022.531     -320870.00849   -250645.62049  20312025.5654   20312033.0874
  21163666.508     2378116.98949   1850930.66449  21163670.9284   21163676.4814
 96  7  9 17 54 59.9920000  0  6 16  6 24  5  4  9
  21477114.561    -6755326.86349  -5227573.20049  21477116.3784   21477126.1284
  21355444.616   -17053630.71949 -13255643.47949  21355449.3514   21355456.2454
  18324252.900   -15033990.34849 -11707456.43049  18324257.3304   18324263.5194
  17973520.700   -20052197.07249 -15613063.02349  17973524.2714   17973529.6374
  20316538.084     -297129.53049   -232146.59349  20316544.2164   20316549.3814
  21169409.486     2408293.15349   1874444.50549  21169412.9774   21169419.1394
 96  7  9 17 55 29.9920000  0  6 16  6 24  5  4  9
  21446248.302    -6917528.92749  -5353964.35249  21446251.4814   21446260.0124
  21329023.493   -17192472.99249 -13363832.19149  21329028.4374   21329034.7534
  18317843.120   -15067667.19349 -11733698.13049  18317849.4474   18317855.0964
  17960175.342   -20122326.29049 -15667709.16449  17960179.3034   17960184.7324
  20321077.343     -273293.66449   -213573.20149  20321080.1274   20321085.5374
  21175152.864     2438488.24949   1897973.08949  21175159.0634   21175164.8294
 96  7  9 17 55 59.9920000  0  6 16  6 24  5  4  9
  21415401.050    -7079671.19649  -5480308.90049  21415398.4234   21415405.6164
  21302614.005   -17331265.65949 -13471982.25849  21302615.9544   21302623.9164
  18311514.520   -15100929.12949 -11759616.52549  18311519.6944   18311525.4784
  17946919.576   -20191991.55049 -15721993.79249  17946922.5974   17946927.4924
  20325652.943     -249240.69849   -194830.66549  20325657.2834   20325662.4694
  21180925.551     2468805.34249   1921596.74249  21180927.9784   21180934.7924
 96  7  9 17 56 29.9920000  0  6 16  6 24  5  4  9
  21384555.007    -7241723.15149  -5606583.08149  21384558.4344   21384567.1434
  21276217.532   -17469962.97649 -13580058.02349  21276222.8124   21276230.4674
  18305271.257   -15133736.71149 -11785180.87349  18305276.4394   18305282.3954
  17933754.904   -20261159.25149 -15775890.69849  17933759.9874   17933765.5324
  20330281.463     -224934.08349   -175890.44849  20330283.1264   20330288.3564
  21186717.802     2499254.57649   1945323.35349  21186722.7194   21186729.1884
 96  7  9 17 56 59.9920000  0  6 16  6 24  5  4  9
  21353721.645    -7403734.32449  -5732825.49149  21353729.2044   21353737.2904
  21249833.879   -17608617.32249 -13688100.32249  21249837.8894   21249844.7514
  18299107.927   -15166127.76249 -11810420.65249  18299112.5324   18299118.7174
  17920681.779   -20329864.17849 -15829427.00249  17920686.1504   17920691.5784
  20334942.014     -200420.14749   -156788.71349  20334946.9594   20334953.9414
  21192531.049     2529788.55049   1969115.98849  21192533.0044   21192539.7354
 96  7  9 17 57 29.9920000  0  6 16  6 24  5  4  9
  21322888.145    -7565774.48949  -5859090.46849  21322893.7084   21322901.5424
  21223441.358   -17747302.80249 -13796166.85149  21223447.2604   21223453.5774
  18293009.001   -15198184.36049 -11835399.82549  18293012.4884   18293018.2454
  17907683.741   -20398172.82749 -15882654.53049  17907686.9714   17907692.5844
  20339633.285     -175780.87849   -137589.33949  20339636.8754   20339641.3234
  21198337.300     2560320.67849   1992907.19449  21198343.6794   21198349.4384
 96  7  9 17 57 59.9920000  0  6 16  6 24  5  4  9
  21292050.214    -7727841.09649  -5985376.05849  21292054.8634   21292063.8994
  21197044.606   -17886028.97449 -13904265.13649  21197047.6484   21197053.8924
  18286966.687   -15229930.46549 -11860137.05649  18286971.6674   18286977.2084
  17894757.665   -20466101.64449 -15935586.08749  17894761.0024   17894766.2404
  20344338.778     -151040.68749   -118311.27449  20344344.6944   20344349.7384
  21204144.470     2590826.40849   2016677.83549  21204148.2724   21204154.9664
 96  7  9 17 58 29.9920000  0  6 16  6 24  5  4  9
  21261214.064    -7889890.85349  -6111648.54249  21261218.1954   21261224.7074
  21170640.470   -18024785.97549 -14012387.41149  21170643.5384   21170651.6074
  18280990.824   -15261338.44649 -11884610.80849  18280995.1034   18281000.4674
  17881911.001   -20533613.55449 -15988192.77549  17881913.9854   17881918.9794
  20349069.951     -126179.32849    -98938.81949  20349074.9634   20349080.8654
  21209950.551     2621344.64849   2040458.22949  21209955.0464   21209962.0734
 96  7  9 17 58 59.9920000  0  6 16  6 24  5  4  9
  21230383.313    -8051890.00349  -6237881.57749  21230389.9294   21230396.8624
  21144231.022   -18163561.12849 -14120523.85649  21144235.8464   21144241.7554
  18275080.643   -15292382.16449 -11908800.71949  18275087.4374   18275092.9704
  17869150.023   -20600667.67049 -16040442.73549  17869154.0144   17869159.0504
  20353825.958     -101183.46249    -79461.53049  20353831.1354   20353837.1554
  21215770.654     2651916.26749   2064280.19649  21215772.5074   21215779.3064
 96  7  9 17 59 29.9920000  0  6 16  6 24  5  4  9
  21199554.524    -8213881.02149  -6364108.27249  21199562.4484   21199571.0894
  21117808.589   -18302400.28449 -14228710.14349  21117814.9704   21117821.2424
  18269235.243   -15323110.67949 -11932745.02249  18269239.9794   18269245.7124
  17856465.423   -20667323.93449 -16092382.69049  17856469.7234   17856475.1114
  20358596.140      -76123.07749    -59934.00249  20358600.6294   20358606.4084
  21221587.719     2682486.66249   2088101.20449  21221590.8454   21221597.1604
 96  7  9 17 59 59.9920000  0  6 16  6 24  5  4  9
  21168744.027    -8375826.02649  -6490299.12149  21168745.7924   21168753.3284
  21091386.987   -18441266.28949 -14336917.35849  21091389.8914   21091396.7854
  18263457.373   -15353476.99849 -11956407.08649  18263461.5534   18263467.4884
  17843864.199   -20733549.11149 -16143986.73249  17843867.7144   17843872.7894
  20363381.292      -50969.04649    -40333.48249  20363387.0294   20363392.9134
  21227410.503     2713089.30249   2111947.34549  21227414.3094   21227419.8394
 96  7  9 18  0 29.9920000  0  6 16  6 24  5  4  9
  21137919.800    -8537794.15349  -6616507.99249  21137925.4564   21137931.9384
  21064942.103   -18580236.81249 -14445206.03149  21064944.1424   21064952.0704
  18257732.405   -15383559.85249 -11979848.27849  18257736.8274   18257742.7294
  17831328.775   -20799416.21549 -16195311.75149  17831333.0234   17831338.4824
  20368172.920      -25792.96549    -20715.77849  20368177.8634   20368183.9824
  21233224.400     2743636.92049   2135750.60949  21233226.8384   21233233.9434
 96  7  9 18  0 59.9920000  0  6 16  6 24  5  4  9
  21107117.557    -8699672.85449  -6742647.17749  21107121.3564   21107127.3434
  21038498.750   -18719193.69549 -14553484.08049  21038502.4894   21038508.8874
  18252078.694   -15413266.25349 -12002996.12749  18252083.9454   18252089.8444
  17818880.054   -20864840.83049 -16246291.97149  17818883.5304   17818889.0264
  20372988.191        -496.45949     -1004.26249  20372992.0954   20372998.5494
  21239046.045     2774226.74449   2159586.77349  21239047.8114   21239055.0034
 96  7  9 18  1 29.9910000  0  6 16  6 24  5  4  9
  21076332.100    -8861438.87849  -6868698.57949  21076337.6894   21076344.5234
  21012064.117   -18858094.92849 -14661718.76549  21012070.4144   21012076.5024
  18246501.324   -15442582.29349 -12025839.79649  18246505.4434   18246511.3094
  17806517.695   -20929801.81049 -16296910.91849  17806521.6884   17806527.4594
  20377829.184       24948.42149     18822.91049  20377833.9854   20377839.0124
  21244875.748     2804875.74649   2183469.04649  21244880.4704   21244887.6064
 96  7  9 18  1 59.9910000  0  6 16  6 24  5  4  9
  21045564.249    -9023122.11149  -6994685.45249  21045570.0784   21045577.0214
  20985642.235   -18996953.99749 -14769920.61149  20985646.4094   20985651.5184
  18240991.692   -15471534.89949 -12048400.27049  18240995.5514   18241001.6144
  17794244.207   -20994300.10849 -16347169.33549  17794248.2424   17794253.4934
  20382703.583       50556.21149     38776.98849  20382707.2114   20382712.5894
  21250717.959     2835572.40449   2207388.44949  21250721.9554   21250728.4764
 96  7  9 18  2 29.9910000  0  6 16  6 24  5  4  9
  21014806.041    -9184776.87449  -7120650.12249  21014807.9484   21014816.0074
  20959215.109   -19135815.68749 -14878124.47649  20959220.4534   20959228.1154
  18235541.803   -15500171.05349 -12070714.15449  18235546.5544   18235552.4874
  17782048.855   -21058383.52649 -16397104.46449  17782053.6404   17782058.8714
  20387599.748       76281.73449     58822.84249  20387603.1544   20387607.9834
  21256555.390     2866268.89049   2231307.70149  21256562.2674   21256569.3604
 96  7  9 18  2 59.9910000  0  6 16  6 24  5  4  9
  20984045.826    -9346397.14949  -7246587.95549  20984052.5014   20984060.5854
  20932795.987   -19274666.33349 -14986319.73049  20932798.9234   20932805.9654
  18230159.885   -15528453.67249 -12092752.56049  18230164.7124   18230170.4664
  17769939.818   -21122027.89049 -16446697.48549  17769942.6664   17769947.9734
  20392519.117      102138.80749     78971.16749  20392523.5834   20392528.9954
  21262401.690     2896983.36349   2255240.97349  21262407.5984   21262414.4724
 96  7  9 18  3 29.9910000  0  6 16  6 24  5  4  9
  20953301.771    -9507982.08949  -7372498.24349  20953304.9904   20953311.3654
  20906375.794   -19413493.06249 -15094496.36549  20906381.3484   20906387.3384
  18224849.679   -15556362.75549 -12114499.90049  18224853.4124   18224859.5784
  17757916.436   -21185205.69749 -16495926.94749  17757919.9824   17757925.2074
  20397466.528      128148.48549     99238.41449  20397472.3974   20397477.9094
  21268253.785     2927727.45449   2279197.33149  21268258.2904   21268265.8784
 96  7  9 18  3 59.9910000  0  6 16  6 24  5  4  9
  20922573.355    -9669463.20649  -7498327.64149  20922574.6644   20922582.4154
  20879970.548   -19552259.64849 -15202626.09349  20879974.7524   20879981.0654
  18219622.168   -15583828.93849 -12135902.12249  18219627.0574   18219632.9794
  17745990.734   -21247871.49249 -16544757.43949  17745995.0974   17746000.4394
  20402454.863      154350.68949    119655.71149  20402459.6104   20402463.9164
  21274118.407     2958547.23049   2303212.65249  21274123.6454   21274131.4274
 96  7  9 18  4 29.9910000  0  6 16  6 24  5  4  9
  20891874.430    -9830774.91749  -7624025.02749  20891877.7634   20891885.4774
  20853580.956   -19690934.77249 -15310684.58849  20853584.7264   20853591.3294
  18214489.201   -15610793.49749 -12156913.47149  18214495.8044   18214501.7894
  17734170.465   -21309991.90449 -16593162.96149  17734174.2564   17734179.5444
  20407479.608      180762.38649    140236.21649  20407484.1704   20407490.8984
  21280011.278     2989498.92749   2327330.77249  21280013.5494   21280020.6444
 96  7  9 18  4 59.9910000  0  6 16  6 24  5  4  9
  20861213.946    -9991885.33449  -7749565.54249  20861220.8694   20861227.4094
  20827211.474   -19829500.61749 -15418657.92649  20827216.9654   20827223.9324
  18209455.891   -15637262.56249 -12177538.71649  18209458.7204   18209464.6024
  17722458.088   -21371542.83649 -16641124.73049  17722461.4394   17722466.9364
  20412548.006      207392.46249    160986.87249  20412552.1874   20412557.5294
  21285928.487     3020599.76449   2351565.12149  21285932.5114   21285939.8874
 96  7  9 18  5 29.9910000  0  6 16  6 24  5  4  9
  20830603.279   -10152761.21849  -7874923.33949  20830606.4234   20830612.4584
  20800871.445   -19967924.79949 -15526520.86849  20800875.8834   20800882.6534
  18204510.857   -15663237.16849 -12197778.67449  18204516.1224   18204521.9844
  17710857.448   -21432501.76049 -16688625.20149  17710861.2054   17710866.6244
  20417659.750      234267.03749    181928.08949  20417666.1314   20417672.1824
  21291880.105     3051876.24849   2375936.30249  21291884.8804   21291890.3674
 96  7  9 18  5 59.9910000  0  6 16  6 24  5  4  9
  20800032.082   -10313439.20249  -8000126.90749  20800030.3574   20800036.8374
  20774548.437   -20106267.44749 -15634320.27149  20774549.8254   20774557.0434
  18199652.139   -15688776.94749 -12217679.80449  18199656.1694   18199661.7644
  17699358.280   -21492926.25049 -16735709.22449  17699362.6674   17699367.9384
  20422814.269      261327.29749    203013.97649  20422815.8874   20422821.3884
  21297855.926     3083262.86649   2400393.32249  21297856.2044   21297862.1134
 96  7  9 18  6 29.9910000  0  6 16  6 24  5  4  9
  20769491.855   -10473883.78349  -8125148.58949  20769497.9254   20769507.8454
  20748244.522   -20244478.51549 -15742017.16249  20748249.8874   20748256.0404
  18194875.842   -15713872.04049 -12237234.43149  18194880.4484   18194886.3954
  17687971.142   -21552769.67249 -16782340.47049  17687974.7874   17687980.2274
  20428005.648      288623.39249    224283.64149  20428009.6534   20428015.4694
  21303852.716     3114792.92249   2424962.11249  21303856.1314   21303862.8684
 96  7  9 18  6 59.9910000  0  6 16  6 24  5  4  9
  20739016.775   -10634057.03549  -8249958.86149  20739019.1734   20739025.7684
  20721980.836   -20382507.39049 -15849572.06549  20721982.8354   20721990.2814
  18190188.645   -15738502.41349 -12256426.93449  18190193.4624   18190199.4184
  17676703.021   -21611984.26849 -16828481.72049  17676706.7914   17676712.2064
  20433252.733      316204.70349    245775.52249  20433258.5184   20433265.0604
  21309883.063     3146478.37749   2449652.00549  21309885.5414   21309893.2184
 96  7  9 18  7 29.9910000  0  6 16  6 24  5  4  9
  20708581.336   -10793986.71249  -8374579.35549  20708584.6224   20708592.8784
  20695740.699   -20520396.54049 -15957018.13449  20695744.5984   20695749.6064
  18185587.443   -15762687.10349 -12275272.15749  18185591.3954   18185597.3494
  17665544.392   -21670618.18049 -16874170.49249  17665549.3184   17665554.5884
  20438548.605      344026.77249    267455.03549  20438553.6694   20438557.1134
  21315933.762     3178269.94649   2474424.57149  21315935.4794   21315942.7834
 96  7  9 18  7 59.9910000  0  6 16  6 24  5  4  9
  20678196.524   -10953677.37649  -8499013.56549  20678197.7954   20678205.1734
  20669522.959   -20658163.01049 -16064368.59849  20669527.8354   20669534.1004
  18181070.603   -15786421.39449 -12293766.41949  18181074.9564   18181080.9444
  17654493.878   -21728690.64449 -16919421.77149  17654498.6054   17654503.8114
  20443882.282      372061.56449    289300.30249  20443887.5454   20443893.3934
  21321996.363     3210149.82349   2499265.93349  21322002.0934   21322008.9324
 96  7  9 18  8 29.9910000  0  6 16  6 24  5  4  9
  20647850.246   -11113116.43149  -8623251.75049  20647857.0374   20647863.4794
  20643338.609   -20795777.67949 -16171600.76049  20643340.3634   20643347.7184
  18176643.630   -15809676.72149 -12311887.46249  18176649.4244   18176655.4884
  17643556.495   -21786172.09049 -16964212.52149  17643560.2624   17643565.3654
  20449262.422      400327.30549    311325.50349  20449267.3664   20449272.4184
  21328089.496     3242147.68249   2524199.22749  21328091.7804   21328098.6704
 96  7  9 18  8 59.9910000  0  6 16  6 24  5  4  9
  20617553.784   -11272327.88649  -8747312.56049  20617559.9684   20617567.9614
  20617173.328   -20933262.89249 -16278732.07249  20617177.4124   20617184.5134
  18172309.161   -15832458.33749 -12329639.37749  18172314.3974   18172320.5624
  17632726.303   -21843084.00349 -17008559.47049  17632730.1074   17632735.5354
  20454676.908      428798.26449    333510.65649  20454683.9784   20454690.4014
  21334195.563     3274251.43149   2549215.03449  21334201.3634   21334207.7374
 96  7  9 18  9 29.9910000  0  6 16  6 24  5  4  9
  20587295.812   -11431330.07649  -8871210.31549  20587302.7784   20587310.6344
  20591034.111   -21070628.81049 -16385770.38449  20591038.3614   20591045.1524
  18168066.030   -15854758.25049 -12347015.94349  18168070.6414   18168076.8164
  17622002.822   -21899440.43249 -17052473.57549  17622005.9964   17622010.9624
  20460133.788      457456.48349    355841.70849  20460137.9224   20460143.8594
  21340325.532     3306470.38449   2574320.62649  21340332.3154   21340339.5724
 96  7  9 18  9 59.9910000  0  6 16  6 24  5  4  9
  20557088.360   -11590082.31249  -8994913.29249  20557092.1974   20557099.7094
  20564927.959   -21207821.73149 -16492673.92349  20564930.7404   20564937.5954
  18163919.018   -15876546.54149 -12363993.84049  18163924.6034   18163930.5634
  17611393.443   -21955186.29949 -17095911.91849  17611397.7764   17611403.3294
  20465633.875      486350.12949    378356.20349  20465636.6344   20465642.2714
  21346490.386     3338853.56049   2599554.16749  21346494.0734   21346502.1694
 96  7  9 18 10 29.9910000  0  6 16  6 24  5  4  9
  20526907.003   -11748675.31449  -9118492.22449  20526913.4114   20526920.5264
  20538838.764   -21344925.78249 -16599508.22549  20538841.2894   20538847.8154
  18159850.724   -15897937.16249 -12380661.86249  18159854.3844   18159859.9194
  17600887.286   -22010401.19149 -17138936.51149  17600890.7744   17600895.8794
  20471157.629      515393.73049    400987.56149  20471162.9684   20471169.6824
  21352662.742     3371315.65449   2624849.22349  21352671.2034   21352678.0444
 96  7  9 18 10 59.9910000  0  6 16  6 24  5  4  9
  20496766.012   -11907095.89749  -9241936.77349  20496766.2484   20496775.3194
  20512761.795   -21481947.64349 -16706278.44949  20512766.7694   20512773.7434
  18155852.927   -15918942.02249 -12397029.28949  18155857.1194   18155862.7904
  17590477.831   -22065098.66849 -17181557.92849  17590481.9284   17590487.1964
  20476714.130      544574.78049    423725.98349  20476715.4664   20476722.1854
  21358856.942     3403844.77149   2650196.49649  21358861.5354   21358868.8984
 96  7  9 18 11 29.9910000  0  6 16  6 24  5  4  9
  20466659.917   -12065292.50349  -9365206.78749  20466662.4924   20466670.1764
  20486709.032   -21618855.25849 -16812959.67949  20486713.8154   20486720.2974
  18151933.321   -15939533.31849 -12413074.46749  18151938.4154   18151944.5054
  17580171.636   -22119258.32449 -17223760.26449  17580176.0054   17580181.3704
  20482299.069      573922.28049    446594.12349  20482301.0874   20482306.3094
  21365065.307     3436453.85049   2675606.08949  21365066.1194   21365074.8274
 96  7  9 18 11 59.9910000  0  6 16  6 24  5  4  9
  20436589.947   -12223298.18349  -9488328.05549  20436596.5334   20436603.9904
  20460668.190   -21755707.28249 -16919597.57849  20460672.3234   20460677.7724
  18148081.758   -15959773.88649 -12428846.34449  18148086.7284   18148092.9004
  17569960.749   -22172925.08449 -17265578.53149  17569963.5164   17569968.8204
  20487908.149      603406.36149    469568.71849  20487911.3894   20487916.8254
  21371271.506     3469076.84749   2701026.49049  21371274.5344   21371282.7104
 96  7  9 18 12 29.9910000  0  6 16  6 24  5  4  9
  20406576.160   -12381047.16249  -9611249.30949  20406576.6104   20406584.0394
  20434645.873   -21892442.20949 -17026144.21449  20434652.6664   20434658.2574
  18144309.773   -15979592.69449 -12444289.58349  18144315.3074   18144321.3924
  17559853.143   -22226033.81749 -17306961.96849  17559857.1334   17559862.4924
  20493558.743      633105.22149    492710.67149  20493562.1514   20493569.1404
  21377495.226     3501766.42849   2726498.81449  21377496.6124   21377502.6264
 96  7  9 18 12 59.9910000  0  6 16  6 24  5  4  9
  20376599.404   -12538549.07349  -9733978.02349  20376606.4924   20376612.0424
  20408646.977   -22029082.43749 -17132617.08249  20408649.4904   20408655.9874
  18140620.324   -15998982.96749 -12459398.90349  18140625.7284   18140631.7844
  17549849.607   -22278601.45849 -17347923.77849  17549853.8154   17549859.2364
  20499247.661      663014.42849    516016.51449  20499254.7374   20499260.4654
  21383717.481     3534497.16049   2752003.18049  21383724.6264   21383731.7154
 96  7  9 18 13 29.9910000  0  6 16  6 24  5  4  9
  20346683.648   -12695779.47149  -9856495.16749  20346685.7644   20346692.9024
  20382669.608   -22165592.01749 -17238988.15249  20382673.8124   20382680.3804
  18137020.261   -16017908.74049 -12474146.26149  18137024.4274   18137030.6254
  17539960.739   -22330570.07149 -17388418.81249  17539964.7094   17539970.1714
  20504990.925      693171.94249    539515.81149  20504993.0354   20504999.9104
  21389967.164     3567310.33649   2777571.80149  21389968.3494   21389975.7134
 96  7  9 18 13 59.9900000  0  6 16  6 24  5  4  9
  20316801.934   -12852795.01349  -9978844.88849  20316806.9984   20316813.8384
  20356710.624   -22302003.87749 -17345283.06749  20356714.9674   20356721.3994
  18133498.113   -16036417.41949 -12488568.61649  18133502.1224   18133507.9244
  17530181.158   -22381955.26249 -17428459.22949  17530186.2094   17530191.8044
  20510760.725      723517.77049    563161.88749  20510766.5784   20510773.8014
  21396218.362     3600184.82449   2803188.20749  21396224.1894   21396231.0844
 96  7  9 18 14 29.9900000  0  6 16  6 24  5  4  9
  20286959.237   -13009607.77449 -10101036.61249  20286965.5584   20286973.9744
  20330774.087   -22438309.75049 -17451495.41349  20330777.6654   20330783.7564
  18130054.376   -16054507.70049 -12502664.94649  18130059.8244   18130065.8444
  17520514.222   -22432763.95049 -17468050.42449  17520517.8364   17520523.1604
  20516567.576      754026.48149    586934.87549  20516572.8304   20516578.6704
  21402491.717     3633133.76949   2828862.60449  21402493.6084   21402502.2954
 96  7  9 18 14 59.9900000  0  6 16  6 24  5  4  9
  20257166.731   -13166206.57049 -10223061.60249  20257166.6064   20257173.6244
  20304852.622   -22574515.28749 -17557629.57249  20304858.1484   20304864.4964
  18126690.415   -16072191.73549 -12516444.72549  18126694.7284   18126700.4374
  17510953.361   -22483004.43349 -17507198.86349  17510957.3384   17510962.7104
  20522401.432      784663.52249    610807.87349  20522404.2244   20522410.3674
  21408773.195     3666153.86349   2854592.45349  21408777.4854   21408786.3664
 96  7  9 18 15 29.9900000  0  6 16  6 24  5  4  9
  20227406.891   -13322583.16849 -10344913.45349  20227408.8754   20227416.4794
  20278954.950   -22710617.59549 -17663683.28049  20278958.0124   20278964.3704
  18123398.206   -16089485.93949 -12529920.73349  18123403.5504   18123409.6424
  17501499.245   -22532685.25949 -17545911.20949  17501503.5724   17501508.9434
  20528249.186      815408.16749    634764.70249  20528253.5784   20528260.3234
  21415072.216     3699245.44649   2880377.97649  21415074.4374   21415082.6214
 96  7  9 18 15 59.9900000  0  6 16  6 24  5  4  9
  20197681.054   -13478767.31149 -10466615.35249  20197688.4164   20197695.4564
  20253067.542   -22846659.14349 -17769689.64749  20253070.5144   20253076.8264
  18120171.987   -16106437.99349 -12543130.13349  18120177.6544   18120183.7464
  17492139.667   -22581874.60349 -17584240.56949  17492143.0844   17492148.4604
  20534112.046      846217.06249    658771.60049  20534116.1884   20534122.7224
  21421370.103     3732343.02449   2906168.19949  21421374.1024   21421380.7254
 96  7  9 18 16 29.9900000  0  6 16  6 24  5  4  9
  20168010.552   -13634703.35349 -10588123.90649  20168013.8914   20168021.2614
  20227192.009   -22982620.85449 -17875633.80249  20227197.9564   20227203.2204
  18117018.708   -16123015.97349 -12556048.04549  18117022.9974   18117028.8974
  17482875.821   -22630552.33349 -17622171.27149  17482879.7874   17482885.3374
  20540001.177      877145.93549    682871.99249  20540003.0744   20540008.5974
  21427672.157     3765449.47349   2931965.32849  21427673.2534   21427681.3004
 96  7  9 18 16 59.9900000  0  6 16  6 24  5  4  9
  20138389.005   -13790365.70549 -10709419.20349  20138392.7204   20138400.0554
  20201339.906   -23118490.58449 -17981506.31449  20201343.0544   20201348.6214
  18113935.434   -16139201.88949 -12568660.45349  18113942.6134   18113948.5944
  17473714.435   -22678690.69149 -17659681.68249  17473719.4254   17473725.2814
  20545913.949      908226.77449    707090.79249  20545916.8094   20545923.3874
  21433970.553     3798572.47949   2957775.36949  21433977.2654   21433983.7474
 96  7  9 18 17 29.9900000  0  6 16  6 24  5  4  9
  20108813.334   -13945777.55749 -10830519.31949  20108819.0104   20108826.1004
  20175498.952   -23254277.36149 -18087314.15749  20175503.1434   20175508.5304
  18110928.269   -16155016.81849 -12580983.77649  18110933.2314   18110939.3364
  17464655.458   -22726307.96649 -17696786.07349  17464658.3584   17464663.8354
  20551854.301      939454.50649    731424.06449  20551860.1524   20551866.1044
  21440271.487     3831687.07149   2983578.85049  21440278.0584   21440286.1554
 96  7  9 18 17 59.9900000  0  6 16  6 24  5  4  9
  20079284.746   -14100973.36849 -10951451.06049  20079286.0894   20079292.8044
  20149668.585   -23390014.03949 -18193082.96149  20149673.6984   20149680.2394
  18107983.482   -16170495.70149 -12593045.25149  18107987.9914   18107993.8854
  17455687.363   -22773425.78849 -17733501.26749  17455691.7884   17455697.4284
  20557819.863      970806.10649    755853.84349  20557824.1904   20557831.4344
  21446568.486     3864756.29449   3009346.97349  21446571.8654   21446578.1824
 96  7  9 18 18 29.9900000  0  6 16  6 24  5  4  9
  20049775.980   -14256025.68949 -11072271.02349  20049780.9404   20049787.1424
  20123835.653   -23525777.17749 -18298872.39249  20123838.7844   20123845.3594
  18105088.773   -16185710.14049 -12604900.66449  18105092.6614   18105098.6614
  17446804.809   -22820109.29349 -17769878.03549  17446808.2374   17446813.9304
  20563794.239     1002198.52849    780315.40749  20563799.4734   20563806.0984
  21452842.540     3897725.89949   3035037.49149  21452846.3554   21452852.5824
 96  7  9 18 18 59.9900000  0  6 16  6 24  5  4  9
  20020311.410   -14410885.18849 -11192940.71049  20020311.2394   20020318.8714
  20098007.934   -23661498.19849 -18404628.99349  20098011.4364   20098017.2544
  18102251.085   -16200607.79849 -12616509.22849  18102257.9614   18102264.0624
  17438012.859   -22866313.63549 -17805881.42449  17438016.0464   17438021.3384
  20569781.387     1033660.92649    804831.55949  20569786.2204   20569790.8834
  21459110.723     3930658.32849   3060699.03049  21459112.1694   21459119.7724
 96  7  9 18 19 29.9900000  0  6 16  6 24  5  4  9
  19990869.015   -14565584.90749 -11313485.89149  19990873.3824   19990880.4904
  20072181.453   -23797215.07849 -18510382.38949  20072185.3704   20072191.5424
  18099471.424   -16215234.87849 -12627906.96049  18099474.1724   18099480.1984
  17429303.373   -22912077.07949 -17841541.26349  17429307.6614   17429313.0084
  20575773.312     1065146.55649    829365.81649  20575779.0514   20575784.8054
  21465360.768     3963523.87849   3086308.46149  21465366.5614   21465374.9044
 96  7  9 18 19 59.9900000  0  6 16  6 24  5  4  9
  19961470.472   -14720100.78549 -11433887.84549  19961470.4774   19961476.8624
  20046357.637   -23932919.71349 -18616126.22449  20046361.1084   20046368.3354
  18096740.066   -16229576.40149 -12639082.17549  18096745.4034   18096751.1424
  17420682.717   -22957378.78049 -17876841.29749  17420686.9124   17420692.4544
  20581771.030     1096660.58649    853922.15549  20581774.2274   20581782.1124
  21471606.833     3996336.39149   3111876.55549  21471609.9364   21471618.8274
 96  7  9 18 20 29.9900000  0  6 16  6 24  5  4  9
  19932104.774   -14874392.24249 -11554114.89749  19932108.7264   19932115.9344
  20020545.739   -24068565.59149 -18721824.27149  20020548.4024   20020555.2634
  18094073.245   -16243593.24949 -12650004.39249  18094078.1144   18094083.9334
  17412157.013   -23002186.12949 -17911756.12049  17412160.4554   17412165.9554
  20587777.851     1128244.03949    878532.59549  20587784.8144   20587791.5844
  21477847.460     4029125.64549   3137426.52149  21477850.2674   21477858.4254
 96  7  9 18 20 59.9900000  0  6 16  6 24  5  4  9
  19902798.372   -15028410.71949 -11674129.28449  19902800.1264   19902806.9944
  19994754.105   -24204098.83049 -18827434.55849  19994758.8234   19994764.1844
  18091475.766   -16257240.82449 -12660638.86749  18091480.8774   18091486.8994
  17403734.174   -23046444.41149 -17946243.10349  17403738.2504   17403743.7864
  20593813.826     1159954.69549    903242.17649  20593820.3834   20593825.6504
  21484091.399     4061926.86449   3162985.80849  21484092.5254   21484099.7254
 96  7  9 18 21 29.9900000  0  6 16  6 24  5  4  9
  19873549.479   -15182116.31049 -11793899.82049  19873550.8474   19873557.9324
  19968987.876   -24339487.11149 -18932931.87849  19968994.1074   19968999.9694
  18088957.804   -16270477.85649 -12670953.44749  18088962.3304   18088968.1524
  17395425.899   -23090108.07349 -17980266.75349  17395429.6664   17395434.7134
  20599880.391     1191842.00249    928089.39049  20599886.2494   20599893.4464
  21490341.152     4094776.38649   3188582.71749  21490343.5324   21490351.5454
 96  7  9 18 21 59.9900000  0  6 16  6 24  5  4  9
  19844368.519   -15335453.74549 -11913383.51349  19844372.3034   19844378.8644
  19943266.685   -24474671.36749 -19038270.25249  19943270.0034   19943275.5244
  18086531.414   -16283231.74649 -12680891.54649  18086535.0644   18086541.0654
  17387238.599   -23133132.52049 -18013792.30849  17387242.2054   17387247.7634
  20605997.072     1223976.63349    953129.31149  20606001.9974   20606007.8994
  21496610.162     4127724.49749   3214256.47449  21496613.1574   21496621.1064
 96  7  9 18 22 29.9900000  0  6 16  6 24  5  4  9
  19815246.366   -15488501.17549 -12032641.21249  19815248.0274   19815254.6204
  19917566.311   -24609726.49549 -19143507.95549  19917570.0454   19917575.9904
  18084183.062   -16295569.77349 -12690505.59449  18084187.4294   18084193.2674
  17379159.551   -23175585.85149 -18046872.83449  17379163.5774   17379169.1224
  20612147.998     1256296.17449    978313.35149  20612153.1024   20612157.6134
  21502888.154     4160706.81349   3239956.87649  21502890.6434   21502897.3564
 96  7  9 18 22 59.9900000  0  6 16  6 24  5  4  9
  19786165.188   -15641315.84649 -12151717.53049  19786168.6624   19786175.4734
  19891876.922   -24744712.50149 -19248691.80549  19891882.4394   19891889.1354
  18081901.902   -16307555.25749 -12699844.93449  18081906.3924   18081912.1534
  17371179.937   -23217518.52349 -18079547.65349  17371183.9594   17371189.3984
  20618318.134     1288726.34549   1003583.57649  20618324.4564   20618331.5834
  21509158.153     4193665.74149   3265639.06149  21509161.8454   21509168.5914
 96  7  9 18 23 29.9900000  0  6 16  6 24  5  4  9
  19757127.412   -15793909.68849 -12270621.79449  19757130.2474   19757138.4784
  19866202.183   -24879644.10549 -19353833.28649  19866206.4044   19866212.2764
  18079683.528   -16319212.19349 -12708928.26849  18079688.2554   18079694.1224
  17363294.595   -23258950.17449 -18111832.07349  17363299.7864   17363305.4324
  20624500.604     1321237.57049   1028916.92349  20624510.4034   20624517.3444
  21515420.936     4226580.07149   3291286.48149  21515425.1844   21515433.1234
 96  7  9 18 23 59.9900000  0  6 16  6 24  5  4  9
  19728127.781   -15946290.76149 -12389360.24749  19728132.0314   19728140.4804
  19840532.688   -25014537.88949 -19458945.30849  19840536.8154   19840541.8334
  18077523.765   -16330566.45649 -12717775.74249  18077527.7564   18077533.3994
  17355506.711   -23299889.71749 -18143733.02549  17355509.3464   17355514.7134
  20630703.882     1353804.24249   1054293.56049  20630708.9964   20630712.9024
  21521673.645     4259429.49049   3316883.33149  21521675.7504   21521684.1864
 96  7  9 18 24 29.9900000  0  6 16  6 24  5  4  9
  19699173.630   -16098448.63549 -12507924.79449  19699178.9324   19699185.8664
  19814869.617   -25149388.30749 -19564023.52849  19814875.0894   19814880.9724
  18075417.053   -16341637.62949 -12726402.63249  18075420.9974   18075426.9184
  17347810.101   -23340328.12649 -18175243.49049  17347814.3034   17347819.6904
  20636909.962     1386400.52349   1079693.25649  20636911.2274   20636916.7674
  21527903.996     4292197.63849   3342416.86849  21527911.0344   21527918.9844
 96  7  9 18 24 59.9900000  0  6 16  6 24  5  4  9
  19670269.775   -16250355.45149 -12626293.72449  19670270.9814   19670278.4774
  19789220.957   -25284181.37449 -19669057.04549  19789225.4394   19789230.7764
  18073363.625   -16352420.76749 -12734805.08449  18073369.1314   18073375.0804
  17340209.368   -23380272.87849 -18206369.28049  17340212.9544   17340218.6354
  20643112.728     1419021.22249   1105111.94849  20643118.5494   20643124.4614
  21534128.028     4324878.27149   3367882.18949  21534129.9684   21534138.2864
 96  7  9 18 25 29.9900000  0  6 16  6 24  5  4  9
  19641411.662   -16401994.62749 -12744454.08749  19641415.2484   19641422.7394
  19763580.116   -25418914.32549 -19774043.72849  19763585.8864   19763592.1984
  18071371.093   -16362897.67349 -12742968.90749  18071375.3324   18071381.1104
  17332700.946   -23419727.38749 -18237113.06449  17332704.9354   17332710.6614
  20649326.996     1451687.87949   1130566.44349  20649334.5844   20649340.4484
  21540331.199     4357483.76949   3393288.97349  21540335.3974   21540343.1994
 96  7  9 18 25 59.9890000  0  6 16  6 24  5  4  9
  19612607.246   -16553372.61149 -12862410.92849  19612608.8174   19612616.5834
  19737954.536   -25553590.95449 -19878986.53249  19737958.3294   19737963.5394
  18069432.885   -16373074.78649 -12750899.13349  18069438.5314   18069444.4974
  17325283.157   -23458702.78449 -18267483.50749  17325288.0764   17325293.9054
  20655551.856     1484392.22849   1156050.30949  20655557.6944   20655564.9924
  21546519.981     4390001.70749   3418627.51749  21546522.5764   21546530.7644
 96  7  9 18 26 29.9890000  0  6 16  6 24  5  4  9
  19583847.993   -16704489.67749 -12980164.45949  19583852.0434   19583859.2474
  19712337.313   -25688193.79649 -19983871.84349  19712343.2054   19712350.7084
  18067560.103   -16382924.92449 -12758574.56949  18067563.9594   18067570.0164
  17317962.956   -23497173.27449 -18297460.51649  17317967.4174   17317972.9364
  20661787.015     1517158.83449   1181582.63349  20661792.6874   20661799.7384
  21552695.646     4422453.24649   3443914.33249  21552698.0794   21552706.5884
 96  7  9 18 26 59.9890000  0  6 16  6 24  5  4  9
  19555143.355   -16855333.94149 -13097705.40649  19555148.2604   19555155.3924
  19686742.830   -25822704.84649 -20088685.61749  19686747.0294   19686753.7404
  18065752.466   -16392425.65349 -12765977.74049  18065756.4204   18065761.8634
  17310742.223   -23535119.51249 -18327029.02749  17310746.5284   17310752.1724
  20668043.459     1550010.29449   1207181.14749  20668044.7044   20668051.1274
  21558859.824     4454867.15149   3469171.80049  21558867.2684   21558875.2004
 96  7  9 18 27 29.9890000  0  6 16  6 24  5  4  9
  19526490.551   -17005905.66349 -13215033.98649  19526495.1314   19526501.8144
  19661166.427   -25957112.31249 -20193418.68349  19661170.2794   19661176.0054
  18064011.118   -16401570.99749 -12773103.98549  18064015.9574   18064021.8264
  17303626.373   -23572518.95349 -18356171.46249  17303629.8654   17303635.1594
  20674308.013     1582947.34149   1232846.39749  20674312.3084   20674319.7744
  21565026.787     4487258.24549   3494411.46449  21565030.8924   21565037.6554
 96  7  9 18 27 59.9890000  0  6 16  6 24  5  4  9
  19497893.601   -17156196.24249 -13332143.49649  19497895.9194   19497902.6504
  19635611.024   -26091409.03249 -20298065.44349  19635614.9034   19635620.7634
  18062335.336   -16410376.36549 -12779965.32049  18062340.3634   18062346.0714
  17296615.816   -23609360.15049 -18384878.91149  17296619.2114   17296624.3064
  20680587.256     1615958.72449   1258569.49349  20680594.6154   20680600.5344
  21571189.079     4519633.32749   3519638.71849  21571192.7014   21571200.5984
 96  7  9 18 28 29.9890000  0  6 16  6 24  5  4  9
  19469338.817   -17306238.07749 -13449059.18449  19469343.5204   19469350.4754
  19610063.880   -26225646.08049 -20402665.69249  19610069.9674   19610076.5494
  18060715.351   -16418884.94049 -12786595.38349  18060721.0514   18060727.0484
  17289700.377   -23645694.35049 -18413191.29049  17289704.9124   17289710.4894
  20686875.071     1649003.95149   1284318.95849  20686882.3794   20686888.5594
  21577339.134     4551952.80049   3544822.62549  21577342.5874   21577350.5794
 96  7  9 18 28 59.9890000  0  6 16  6 24  5  4  9
  19440851.213   -17455960.23249 -13565725.76949  19440852.2374   19440860.3664
  19584538.884   -26359786.73149 -20507190.87049  19584544.1524   19584549.9224
  18059159.101   -16427068.75549 -12792972.39049  18059163.7704   18059169.9834
  17282886.203   -23681503.58649 -18441094.60449  17282890.4554   17282896.3114
  20693182.616     1682130.77449   1310132.03849  20693186.5054   20693193.0804
  21583492.495     4584257.83349   3569995.24949  21583489.4904   21583497.7444
 96  7  9 18 29 29.9890000  0  6 16  6 24  5  4  9
  19412434.239   -17605281.87049 -13682080.26649  19412436.8524   19412444.3464
  19559045.996   -26493765.97149 -20611590.24249  19559048.6874   19559054.4044
  18057674.746   -16434870.69749 -12799051.83849  18057679.4884   18057685.1284
  17276184.853   -23716720.33249 -18468536.23449  17276189.0614   17276194.8364
  20699515.677     1715421.21749   1336072.61649  20699522.1164   20699528.7744
  21589643.768     4616606.39649   3595201.79349  21589646.5014   21589652.8574
 96  7  9 18 29 59.9890000  0  6 16  6 24  5  4  9
  19384080.575   -17754265.96549 -13798171.75749  19384087.1434   19384093.6824
  19533569.355   -26627649.03349 -20715914.70349  19533571.6164   19533577.2504
  18056249.114   -16442360.43049 -12804888.00049  18056254.0554   18056259.8224
  17269585.324   -23751407.47149 -18495565.19249  17269588.5874   17269594.0804
  20705874.755     1748832.16749   1362107.07649  20705878.8094   20705886.4794
  21595791.700     4648920.13249   3620381.14349  21595795.1204   21595801.9714
 96  7  9 18 30 29.9890000  0  6 16  6 24  5  4  9
  19355799.337   -17902903.57349 -13913993.24049  19355801.5074   19355808.7464
  19508111.238   -26761426.03049 -20820156.47549  19508114.5624   19508120.4724
  18054889.158   -16449512.78549 -12810461.27149  18054893.0204   18054898.5764
  17263088.444   -23785539.57249 -18522161.65249  17263092.9214   17263098.5994
  20712254.896     1782387.39549   1388253.92849  20712263.6164   20712272.0894
  21601934.169     4681197.90449   3645532.58749  21601937.2714   21601945.6784
 96  7  9 18 30 59.9890000  0  6 16  6 24  5  4  9
  19327575.237   -18051221.47549 -14029565.59649  19327578.2774   19327585.3754
  19482669.111   -26895117.34949 -20924331.50549  19482673.8464   19482678.8834
  18053587.395   -16456358.14649 -12815795.32049  18053590.3704   18053596.3574
  17256696.053   -23819134.77149 -18548339.73849  17256700.3754   17256705.7284
  20718671.999     1816057.81649   1414490.54549  20718672.1544   20718678.0154
  21608053.499     4713403.12749   3670627.43949  21608066.2024   21608074.7654
 96  7  9 18 31 29.9890000  0  6 16  6 24  5  4  9
  19299404.478   -18199249.19249 -14144911.85649  19299409.0304   19299415.7794
  19457242.419   -27028737.79349 -21028451.32349  19457246.3754   19457252.8974
  18052339.375   -16462905.52449 -12820897.18349  18052344.2914   18052350.6154
  17250404.621   -23852199.72649 -18574104.65349  17250408.1604   17250413.7464
  20725091.487     1849805.87549   1440787.74649  20725094.1884   20725100.5224
  21614174.284     4745505.30449   3695641.96149  21614174.5064   21614182.4144
 96  7  9 18 31 59.9890000  0  6 16  6 24  5  4  9
  19271300.754   -18346953.98349 -14260006.46349  19271301.9244   19271309.0304
  19431836.397   -27162253.20149 -21132489.28849  19431839.6754   19431845.6304
  18051158.855   -16469116.17149 -12825736.65649  18051162.5884   18051168.5604
  17244216.962   -23884715.03449 -18599441.27349  17244220.7544   17244226.2714
  20731523.110     1883632.69449   1467146.24649  20731531.8034   20731538.3164
  21620262.039     4777536.78249   3720601.45649  21620269.9874   21620277.6114
 96  7  9 18 32 29.9890000  0  6 16  6 24  5  4  9
  19243247.616   -18494365.71049 -14374872.71749  19243249.9074   19243257.5214
  19406439.967   -27295717.04949 -21236487.09849  19406442.2744   19406448.7524
  18050030.034   -16475036.97449 -12830350.27649  18050035.7434   18050041.8584
  17238122.763   -23916743.04149 -18624398.17949  17238126.1194   17238131.9694
  20737966.071     1917470.49649   1493513.33949  20737970.5904   20737976.7624
  21626342.121     4809456.43349   3745473.76849  21626343.7564   21626352.7434
 96  7  9 18 32 59.9890000  0  6 16  6 24  5  4  9
  19215257.155   -18641458.90249 -14489490.78049  19215259.9734   19215266.6864
  19381054.705   -27429108.01349 -21340428.10149  19381058.4014   19381065.0554
  18048962.553   -16480656.07549 -12834728.80749  18048966.8644   18048972.9114
  17232121.508   -23948286.35049 -18648977.40049  17232124.1074   17232129.2974
  20744409.317     1951319.70649   1519889.29249  20744411.7924   20744418.2544
  21632392.203     4841275.45749   3770267.68249  21632399.3084   21632407.0724
 96  7  9 18 33 29.9890000  0  5 16  6 24  5  4
  19187314.408   -18788297.51549 -14603910.43649  19187316.3224   19187323.8684
  19355675.664   -27562474.85049 -21444350.28649  19355678.8304   19355686.0284
  18047939.243   -16486029.87549 -12838916.18549  18047944.3754   18047949.9584
  17226199.192   -23979391.64049 -18673215.31049  17226204.3884   17226210.0784
  20750838.881     1985114.76549   1546223.07349  20750843.1794   20750850.1684
 96  7  9 18 33 59.9890000  0  5 16  6 24  5  4
  19159428.201   -18934847.52949 -14718105.23749  19159429.8144   19159436.9234
  19330307.428   -27695785.46949 -21548228.66449  19330311.1054   19330317.7084
  18046967.698   -16491129.93349 -12842890.26649  18046973.7684   18046979.6614
  17220372.422   -24010026.45549 -18697086.60749  17220374.8974   17220380.6584
  20757273.651     2018905.63149   1572553.54949  20757273.0004   20757279.4124
 96  7  9 18 34 29.9890000  0  5 16  6 24  5  4
  19131597.368   -19081092.60049 -14832062.40949  19131599.8784   19131607.1014
  19304952.757   -27829044.82549 -21652067.09849  19304953.8154   19304959.2244
  18046050.221   -16495956.46149 -12846651.20449  18046055.2504   18046061.4504
  17214633.650   -24040174.79749 -18720578.85149  17214638.0514   17214643.4024
  20763700.456     2052705.48449   1598891.03549  20763704.6064   20763712.1914
 96  7  9 18 34 59.9890000  0  5 16  6 24  5  4
  19103819.455   -19227057.34049 -14945801.15649  19103824.0434   19103830.7524
  19279599.929   -27962254.35249 -21755866.69849  19279603.5764   19279610.1714
  18045179.395   -16500535.67749 -12850219.43249  18045184.0594   18045189.4724
  17208990.530   -24069838.52149 -18743693.45349  17208993.2324   17208998.9074
  20770129.760     2086501.93649   1625225.88649  20770136.5864   20770142.7924
 96  7  9 18 35 29.9890000  0  5 16  6 24  5  4
  19076094.751   -19372742.51049 -15059322.03549  19076100.6564   19076108.2234
  19254260.536   -28095421.85249 -21859633.55449  19254263.6454   19254269.7754
  18044351.764   -16504888.08349 -12853610.92849  18044355.5744   18044361.4524
  17203435.421   -24099019.28749 -18766431.73849  17203440.3194   17203445.9114
  20776565.681     2120302.69349   1651564.11549  20776569.8204   20776574.5764
 96  7  9 18 35 59.9890000  0  5 16  6 24  5  4
  19048427.187   -19518152.69249 -15172628.65849  19048429.8074   19048436.6074
  19228920.922   -28228583.04449 -21963395.49949  19228923.7544   19228929.6804
  18043558.163   -16509049.29049 -12856853.43249  18043564.0054   18043569.5934
  17197969.986   -24127745.52449 -18788815.82749  17197973.7054   17197979.3354
  20782993.739     2154089.22049   1677891.29649  20782998.8514   20783004.8834
 96  7  9 18 36 29.9890000  0  5 16  6 24  5  4
  19020809.160   -19663278.32649 -15285713.55549  19020813.5624   19020820.6114
  19203586.882   -28361721.47949 -22067139.71649  19203588.8104   19203594.4904
  18042802.350   -16513018.90849 -12859946.65249  18042808.2754   18042813.9994
  17192591.906   -24156007.67949 -18810838.30349  17192595.7884   17192601.5024
  20789417.464     2187861.27249   1704207.14749  20789423.5174   20789431.7764
 96  7  9 18 36 59.9890000  0  5 16  6 24  5  4
  18993267.305   -19808028.30649 -15398505.71649  18993268.8304   18993274.9164
  19178280.633   -28494704.52049 -22170762.84449  19178282.5904   19178287.8954
  18042105.206   -16516687.78249 -12862805.52449  18042109.9854   18042116.6334
  17187321.197   -24183705.79349 -18832421.26249  17187325.1044   17187330.4184
  20795873.332     2221746.10049   1730610.82749  20795871.2764   20795879.6654
 96  7  9 18 37 29.9890000  0  5 16  6 24  5  4
  18965789.485   -19952419.52749 -15511018.33649  18965792.1154   18965798.2604
  19152994.688   -28627569.37649 -22274293.88249  19152998.7404   19153005.1224
  18041461.911   -16520068.50949 -12865439.87249  18041467.0084   18041472.9774
  17182150.396   -24210874.30249 -18853591.54349  17182154.8704   17182160.5244
  20802326.210     2255709.63949   1757075.81649  20802334.7664   20802342.0504
 96  7  9 18 37 59.9890000  0  5 16  6 24  5  4
  18938385.554   -20096414.23149 -15623221.97849  18938390.6144   18938397.6804
  19127740.394   -28760270.37449 -22377697.22749  19127746.8064   19127752.2004
  18040883.284   -16523109.18549 -12867809.24949  18040888.3214   18040894.3934
  17177089.782   -24237473.86649 -18874318.48849  17177093.2114   17177098.9834
  20808815.882     2289773.64549   1783619.14949  20808818.2084   20808824.5884
 96  7  9 18 38 29.9880000  0  5 16  6 24  5  4
  18911061.850   -20240020.67149 -15735123.08049  18911063.0924   18911069.9454
  19102523.058   -28892801.07349 -22480967.87649  19102526.5094   19102532.1564
  18040366.810   -16525807.19449 -12869911.60549  18040374.8374   18040381.3754
  17172132.549   -24263522.58249 -18894616.21249  17172136.4054   17172141.9214
  20815311.883     2323921.75249   1810228.05249  20815315.9394   20815321.9144
 96  7  9 18 38 59.9880000  0  5 16  6 24  5  4
  18883809.270   -20383222.53249 -15846708.92949  18883812.5674   18883819.5304
  19077335.461   -29025171.94549 -22584113.99749  19077337.9524   19077342.9784
  18039924.004   -16528143.86149 -12871732.39449  18039929.4684   18039935.8494
  17167284.098   -24289001.78349 -18914470.14849  17167288.0004   17167293.4294
  20821823.216     2358156.85049   1836904.75849  20821830.0344   20821837.1574
 96  7  9 18 39 29.9880000  0  5 16  6 24  5  4
  18856638.258   -20526010.60049 -15957972.33749  18856640.9834   18856647.9854
  19052169.965   -29157400.58949 -22687149.27149  19052174.7404   19052181.3364
  18039546.185   -16530133.92749 -12873283.10649  18039551.0964   18039557.6434
  17162544.559   -24313904.11749 -18933874.58249  17162548.8624   17162554.8834
  20828355.320     2392453.60349   1863629.44749  20828355.6624   20828365.0924
 96  7  9 18 39 59.9880000  0  5 16  6 24  5  4
  18829546.628   -20668364.47149 -16068897.42249  18829551.6564   18829558.2234
  19027040.777   -29289458.02049 -22790051.13949  19027045.0104   19027051.6264
  18039236.767   -16531768.06449 -12874556.47349  18039240.7084   18039246.7304
  17157921.320   -24338205.28849 -18952810.57649  17157924.9424   17157930.5014
  20834898.676     2426851.77949   1890433.13049  20834903.2594   20834909.1464
 96  7  9 18 40 29.9880000  0  5 16  6 24  5  4
  18802531.925   -20810334.33849 -16179523.27349  18802535.6294   18802542.8034
  19001934.657   -29421412.85349 -22892873.06049  19001935.7114   19001940.7274
  18038980.744   -16533103.94049 -12875597.42849  18038986.1134   18038992.3374
  17153399.555   -24361958.61749 -18971319.67649  17153404.5934   17153410.2674
  20841452.501     2461303.34949   1917278.45149  20841460.0944   20841465.6454
 96  7  9 18 40 59.9880000  0  5 16  6 24  5  4
  18775597.883   -20951878.99749 -16289817.79249  18775600.0354   18775607.8974
  18976847.070   -29553231.32149 -22995588.74249  18976851.5874   18976857.5134
  18038788.845   -16534106.23149 -12876378.43849  18038795.3104   18038801.8844
  17148995.214   -24385119.22049 -18989366.91549  17148997.5504   17149003.2664
  20848033.121     2495853.30249   1944200.44249  20848034.3664   20848039.7074
 96  7  9 18 41 29.9880000  0  5 16  6 24  5  4
  18748759.995   -21092904.72349 -16399707.94649  18748764.6144   18748771.5284
  18951808.598   -29684810.59649 -23098118.02249  18951812.5284   18951817.9894
  18038679.706   -16534685.85549 -12876830.10749  18038684.8774   18038691.2344
  17144709.903   -24407619.19049 -19006899.37049  17144715.6114   17144721.6004
  20854637.355     2530605.47949   1971280.06249  20854648.0014   20854652.8864
 96  7  9 18 41 59.9880000  0  5 16  6 24  5  4
  18722022.477   -21233413.41749 -16509195.21049  18722026.4914   18722033.6604
  18926813.442   -29816162.90049 -23200470.45349  18926816.9754   18926822.6004
  18038650.464   -16534844.84249 -12876954.00949  18038654.6744   18038660.9624
  17140555.513   -24429467.21749 -19023923.82349  17140558.3204   17140564.0534
  20861291.650     2565544.07349   1998504.90449  20861295.4374   20861301.9484
 96  7  9 18 42 29.9880000  0  5 16  6 24  5  4
  18695372.326   -21373455.59649 -16618318.96249  18695377.3264   18695384.0114
  18901849.592   -29947347.67849 -23302692.33449  18901853.6774   18901858.8194
  18038690.707   -16534626.58649 -12876783.94849  18038696.5754   18038702.7134
  17136510.508   -24450714.59049 -19040480.23349  17136514.9524   17136520.6034
  20867963.500     2600597.38849   2025819.11049  20867967.0964   20867972.1564
 96  7  9 18 42 59.9880000  0  5 16  6 24  5  4
  18668790.470   -21513144.71449 -16727167.59349  18668795.4604   18668802.5534
  18876897.508   -30078467.01149 -23404863.23649  18876901.7664   18876907.7604
  18038779.918   -16534164.16349 -12876423.63349  18038784.2404   18038789.9684
  17132556.949   -24471489.64849 -19056668.61249  17132561.4204   17132567.2054
  20874628.016     2635650.09549   2053132.87449  20874636.4414   20874643.0904
 96  7  9 18 43 29.9880000  0  5 16  6 24  5  4
  18642278.375   -21652487.00149 -16835745.97049  18642279.3554   18642286.7624
  18851957.662   -30209531.49949 -23506991.38749  18851961.1374   18851967.3304
  18038909.531   -16533477.68849 -12875888.72149  18038914.8244   18038921.1684
  17128692.179   -24491804.44149 -19072498.33749  17128695.4644   17128701.5154
  20881300.894     2670685.19549   2080432.85949  20881304.1434   20881309.4874
 96  7  9 18 43 59.9880000  0  5 16  6 24  5  4
  18615843.053   -21791385.16049 -16943978.28049  18615847.9364   18615854.8584
  18827047.200   -30340431.47149 -23608991.34349  18827051.3384   18827057.4054
  18039104.503   -16532462.86249 -12875097.95749  18039108.4514   18039114.5564
  17124936.127   -24511543.48349 -19087879.42749  17124939.6044   17124945.6004
  20887979.816     2705805.12049   2107799.01249  20887985.4804   20887992.9924
 96  7  9 18 44 29.9880000  0  5 16  6 24  5  4
  18589479.397   -21929936.93349 -17051940.66849  18589482.1144   18589490.0464
  18802152.161   -30471246.79549 -23710925.33549  18802158.5934   18802164.2564
  18039340.381   -16531218.40849 -12874128.26849  18039345.7004   18039351.1874
  17121268.050   -24530817.76749 -19102898.37249  17121271.8974   17121277.5074
  20894664.709     2740927.13749   2135166.74949  20894670.3744   20894676.2264
 96  7  9 18 44 59.9880000  0  5 16  6 24  5  4
  18563183.072   -22068126.97949 -17159621.19649  18563185.7074   18563192.4774
  18777281.618   -30601954.01949 -23812775.10249  18777285.7964   18777291.2134
  18039621.279   -16529742.42849 -12872978.16049  18039626.0014   18039631.8624
  17117690.568   -24549613.97749 -19117544.78749  17117695.2314   17117701.1344
  20901356.557     2776071.91749   2162552.23949  20901357.4414   20901364.4734
 96  7  9 18 45 29.9880000  0  5 16  6 24  5  4
  18536971.875   -22205863.80449 -17266948.54749  18536975.7054   18536982.9494
  18752447.173   -30732460.39549 -23914468.36149  18752451.0534   18752456.9594
  18039965.261   -16527926.39549 -12871563.08449  18039971.4614   18039977.6104
  17114226.874   -24567825.14049 -19131735.33049  17114229.7654   17114235.4434
  20908066.445     2811325.91949   2190022.84849  20908066.2554   20908071.9464
 96  7  9 18 45 59.9880000  0  5 16  6 24  5  4
  18510848.665   -22343143.50949 -17373919.71049  18510851.9284   18510858.1064
  18727650.553   -30862767.72449 -24016006.51949  18727654.3924   18727659.7464
  18040378.228   -16525782.14449 -12869892.24449  18040379.4484   18040385.9814
  17110871.485   -24585454.77649 -19145472.71949  17110875.0474   17110880.6784
  20914790.277     2846676.38349   2217568.65249  20914794.1274   20914798.5014
 96  7  9 18 46 29.9880000  0  5 16  6 24  5  4
  18484810.954   -22479980.32149 -17480545.76649  18484813.0304   18484819.6144
  18702883.136   -30992922.71249 -24117425.97049  18702887.1554   18702892.0664
  18040834.792   -16523366.99249 -12868010.32049  18040839.5804   18040845.2954
  17107620.586   -24602537.51949 -19158783.97249  17107623.9264   17107630.1144
  20921528.714     2882080.75549   2245156.44249  20921530.5274   20921537.0714
 96  7  9 18 46 59.9880000  0  5 16  6 24  5  4
  18458850.989   -22616388.84149 -17586838.08349  18458854.8514   18458861.8454
  18678135.642   -31122962.88549 -24218755.95549  18678140.4604   18678147.3764
  18041339.526   -16520721.32649 -12865948.77349  18041342.7934   18041348.8204
  17104468.689   -24619098.13049 -19171688.35949  17104472.8974   17104478.5904
  20928264.444     2917490.33349   2272748.22449  20928268.5014   20928275.9604
 96  7  9 18 47 29.9880000  0  5 16  6 24  5  4
  18432983.927   -22752325.59949 -17692762.79349  18432987.0714   18432994.0464
  18653417.555   -31252863.51549 -24319977.19449  18653421.4254   18653427.7234
  18041891.295   -16517822.34849 -12863689.84049  18041894.0234   18041900.1894
  17101420.696   -24635116.27749 -19184170.05149  17101424.4414   17101430.4044
  20935004.491     2952919.95049   2300355.64949  20935010.6764   20935017.3714
 96  7  9 18 47 59.9880000  0  5 16  6 24  5  4
  18407219.596   -22887720.00449 -17798264.89149  18407221.9184   18407229.0234
  18628734.069   -31382578.60849 -24421053.88549  18628737.7994   18628743.5204
  18042495.917   -16514633.41549 -12861204.97349  18042501.1684   18042506.6294
  17098487.010   -24650541.44749 -19196189.68249  17098489.7344   17098495.0584
  20941757.752     2988412.80749   2328012.31749  20941765.7004   20941771.6634
 96  7  9 18 48 29.9880000  0  5 16  6 24  5  4
  18381537.985   -23022683.40949 -17903431.15049  18381540.0334   18381546.6054
  18604065.197   -31512206.35849 -24522062.50049  18604070.4354   18604076.4104
  18043141.826   -16511239.63349 -12858560.48549  18043146.9724   18043153.2854
  17095644.153   -24665475.29849 -19207826.46249  17095647.2394   17095653.2124
  20948513.253     3023877.86749   2355647.40749  20948514.0924   20948520.1504
 96  7  9 18 48 59.9880000  0  5 16  6 24  5  4
  18355950.674   -23157144.27249 -18008205.81949  18355952.5284   18355959.4864
  18579434.349   -31641649.92149 -24622927.59749  18579438.0894   18579444.1124
  18043846.912   -16507537.82649 -12855675.98749  18043851.8164   18043857.6664
  17092911.821   -24679832.56749 -19219013.95449  17092915.4304   17092921.3214
  20955268.560     3059398.66549   2383325.92149  20955274.1354   20955280.2954
 96  7  9 18 49 29.9880000  0  5 16  6 24  5  4
  18330437.431   -23291192.67649 -18112659.08949  18330443.6334   18330450.6514
  18554820.595   -31770994.21449 -24723715.34049  18554824.8254   18554830.5774
  18044596.564   -16503605.36749 -12852611.75049  18044600.0504   18044605.9824
  17090273.328   -24693690.59849 -19229812.43549  17090278.0984   17090284.2934
  20962023.273     3094900.47449   2410989.62549  20962028.6144   20962035.6304
 96  7  9 18 49 59.9880000  0  5 16  6 24  5  4
  18304997.426   -23424902.81549 -18216848.78049  18304999.5264   18305006.4334
  18530214.671   -31900296.64249 -24824470.47349  18530219.3074   18530225.2434
  18045377.626   -16499494.99849 -12849408.88449  18045382.4494   18045388.1384
  17087720.840   -24707108.60649 -19240268.05049  17087725.1834   17087730.7544
  20968766.991     3130327.55649   2438595.11949  20968771.6614   20968776.8154
 96  7  9 18 50 29.9870000  0  5 16  6 24  5  4
  18279609.358   -23558311.84249 -18320803.83749  18279612.5724   18279619.9244
  18505612.928   -32029571.91149 -24925204.42749  18505618.7414   18505624.8554
  18046190.317   -16495228.50949 -12846084.36549  18046193.8074   18046199.9804
  17085242.966   -24720129.23249 -19250414.01149  17085247.3944   17085253.3254
  20975488.015     3165659.93949   2466126.80049  20975495.3134   20975500.7834
 96  7  9 18 50 59.9870000  0  5 16  6 24  5  4
  18254278.557   -23691423.00949 -18424526.79249  18254282.4914   18254289.0904
  18481015.489   -32158845.85449 -25025937.35249  18481018.8384   18481025.0464
  18047024.560   -16490827.08049 -12842654.70449  18047031.3414   18047037.7194
  17082840.258   -24732765.96449 -19260260.83649  17082842.6244   17082848.5204
  20982188.440     3200879.43049   2493570.46749  20982196.0754   20982202.7324
 96  7  9 18 51 29.9870000  0  6 16  6 25 24  5  4
  18229016.409   -23824181.94949 -18527975.29149  18229019.1554   18229025.9844
  18456422.430   -32288073.22949 -25126633.98449  18456427.1294   18456433.3044
  21027634.218    -6958266.22859  -5399998.70159  21027636.2804   21027643.6424
  18047897.728   -16486250.66949 -12839088.68149  18047902.1844   18047908.5114
  17080514.563   -24744979.69149 -19269778.04549  17080518.4704   17080523.9884
  20988880.868     3236031.72149   2520961.83749  20988885.3474   20988892.2864
 96  7  9 18 51 59.9870000  0  6 16  6 25 24  5  4
  18203832.426   -23956528.94749 -18631102.79149  18203833.8694   18203841.0404
  18431855.475   -32417182.22849 -25227238.38049  18431859.3394   18431865.4594
  21010054.425    -7050640.62649  -5471978.72149  21010057.9774   21010064.1244
  18048813.405   -16481427.86649 -12835330.68049  18048819.9064   18048825.9264
  17078283.205   -24756708.86049 -19278917.67749  17078286.3084   17078292.3544
  20995576.097     3271193.93649   2548360.89649  20995577.2054   20995584.7164
 96  7  9 18 52 29.9870000  0  6 16  6 25 24  5  4
  18178725.109   -24088459.14349 -18733905.51649  18178729.0294   18178735.7244
  18407306.030   -32546185.72949 -25327760.58049  18407310.3904   18407316.2084
  20992571.901    -7142493.35749  -5543552.30449  20992578.8624   20992583.8084
  18049781.458   -16476354.78649 -12831377.64349  18049785.6804   18049791.5774
  17076143.911   -24767947.26749 -19287674.89749  17076147.9204   17076153.5704
  21002267.675     3306376.44549   2575775.73249  21002271.0054   21002277.5204
 96  7  9 18 52 59.9870000  0  6 16  6 25 24  5  4
  18153695.261   -24219988.10849 -18836395.59749  18153700.2504   18153707.1084
  18382773.440   -32675107.48349 -25428219.07049  18382777.4464   18382783.2934
  20975191.900    -7233834.08249  -5614726.89449  20975195.6804   20975203.1584
  18050793.509   -16471035.34149 -12827232.64649  18050797.8394   18050804.0774
  17074098.190   -24778699.32149 -19296053.13949  17074101.9154   17074107.9584
  21008964.971     3341559.08249   2603190.70049  21008966.7274   21008974.6644
 96  7  9 18 53 29.9870000  0  6 16  6 25 24  5  4
  18128742.745   -24351126.85249 -18938581.60249  18128744.5514   18128751.4204
  18358254.153   -32803951.62649 -25528617.08449  18358259.2254   18358265.2534
  20957911.712    -7324652.97049  -5685494.87049  20957916.1344   20957922.0704
  18051851.988   -16465472.15949 -12822897.70949  18051856.5094   18051862.9554
  17072143.342   -24788972.98249 -19304058.61149  17072146.7424   17072152.7924
  21015653.734     3376744.87949   2630608.17249  21015663.3954   21015669.1504
 96  7  9 18 53 59.9870000  0  6 16  6 25 24  5  4
  18103849.391   -24481905.77849 -19040487.24049  18103858.2744   18103865.6184
  18333743.086   -32932763.65749 -25628990.08449  18333747.6844   18333753.3204
  20940721.281    -7414988.92149  -5755886.55349  20940724.8984   20940731.9674
  18052945.628   -16459722.00049 -12818417.07949  18052950.2894   18052956.8124
  17070270.268   -24798810.96549 -19311724.57849  17070274.3734   17070280.6954
  21022347.406     3411893.27249   2657996.49649  21022352.8204   21022358.7994
 96  7  9 18 54 29.9870000  0  6 16  6 25 24  5  4
  18079045.446   -24612282.08149 -19142079.14449  18079049.1754   18079055.1824
  18309240.710   -33061528.00349 -25729325.91849  18309243.9634   18309250.5294
  20923622.387    -7504843.71949  -5825903.27649  20923627.0624   20923633.6824
  18054074.291   -16453792.29349 -12813796.55049  18054078.4294   18054085.0774
  17068483.469   -24808204.66449 -19319044.36249  17068486.8974   17068492.9264
  21029030.204     3446996.59449   2685349.69249  21029032.1284   21029037.6034
 96  7  9 18 54 59.9870000  0  6 16  6 25 24  5  4
  18054316.553   -24742225.42049 -19243333.66449  18054320.6844   18054327.7404
  18284751.158   -33190211.06749 -25829598.41349  18284756.0204   18284762.8324
  20906616.005    -7594212.27549  -5895541.08849  20906620.2154   20906625.1254
  18055235.691   -16447697.93249 -12809047.71449  18055238.9394   18055244.8964
  17066782.589   -24817147.77949 -19326013.03849  17066785.3974   17066791.4524
  21035698.454     3482045.09849   2712660.24049  21035700.9714   21035705.9234
 96  7  9 18 55 29.9870000  0  6 16  6 25 24  5  4
  18029676.348   -24871718.62049 -19344237.43849  18029679.4214   18029686.5364
  18260283.683   -33318791.65249 -25929791.06049  18260288.7164   18260294.3484
  20889703.180    -7683088.10349  -5964794.99149  20889708.3594   20889713.8624
  18056421.878   -16441463.61149 -12804189.81449  18056424.9644   18056430.8704
  17065168.424   -24825631.25449 -19332623.54749  17065171.1394   17065176.8014
  21042355.839     3517043.90149   2739931.95449  21042359.9364   21042368.0464
 96  7  9 18 55 59.9870000  0  5 16  6 25 24  5
  18005117.717   -25000770.99449 -19444797.69849  18005121.6504   18005128.2174
  18235833.953   -33447278.86949 -26029910.95349  18235837.7664   18235844.0614
  20872878.445    -7771504.34849  -6033690.75149  20872882.5084   20872888.9674
  18057629.958   -16435109.74749 -12799238.76749  18057634.2434   18057640.0314
  17063638.766   -24833665.36149 -19338883.90249  17063642.2704   17063647.8044
 96  7  9 18 56 29.9870000  0  5 16  6 25 24  5
  17980661.295   -25129298.82849 -19544949.22749  17980663.5144   17980670.2224
  18211417.889   -33575578.17149 -26129884.41249  18211423.2344   18211430.0184
  20856159.173    -7859372.59549  -6102159.49949  20856161.5974   20856168.4074
  18058882.432   -16428526.75949 -12794109.18249  18058886.6964   18058893.1784
  17062211.864   -24841158.83349 -19344722.99349  17062216.2144   17062222.1234
 96  7  9 18 56 59.9870000  0  5 16  6 25 24  5
  17956286.074   -25257388.82449 -19644759.58749  17956288.4034   17956295.5244
  18187028.997   -33703758.67249 -26229765.30149  18187031.7384   18187037.2894
  20839529.109    -7946759.28049  -6170253.06249  20839532.6594   20839539.3664
  18060167.796   -16421771.25549 -12788845.17349  18060172.3624   18060179.1574
  17060874.101   -24848187.17249 -19350199.63049  17060878.6824   17060884.4994
 96  7  9 18 57 29.9870000  0  5 16  6 25 24  5
  17931988.354   -25385062.17949 -19744245.29049  17931993.4484   17932000.5564
  18162655.785   -33831838.34049 -26329567.62849  18162659.1644   18162664.9914
  20822989.069    -8033675.02649  -6237979.63149  20822993.4294   20823000.3954
  18061486.813   -16414834.33149 -12783439.79349  18061492.4254   18061499.0834
  17059621.731   -24854773.79449 -19355332.08149  17059625.3284   17059631.3524
 96  7  9 18 57 59.9870000  0  5 16  6 25 24  5
  17907789.169   -25512241.69849 -19843346.19249  17907791.8764   17907798.7244
  18138311.056   -33959762.81449 -26429249.01249  18138315.6524   18138321.7244
  20806549.387    -8120058.05849  -6305291.09849  20806554.8254   20806562.0544
  18062856.659   -16407634.81249 -12777829.79849  18062862.8014   18062869.7264
  17058459.400   -24860875.06449 -19360086.33849  17058464.4464   17058470.4144
 96  7  9 18 58 29.9870000  0  5 16  6 25 24  5
  17883681.031   -25638922.74249 -19942058.66449  17883684.8064   17883692.2004
  18114000.138   -34087521.79949 -26528801.45049  18114004.1244   18114009.9694
  20790218.143    -8205895.30549  -6372177.30249  20790221.8294   20790226.6774
  18064275.194   -16400178.97649 -12772020.07049  18064281.5054   18064287.6124
  17057390.233   -24866498.36349 -19364468.14849  17057393.9474   17057400.3814
 96  7  9 18 58 59.9870000  0  6 16  6 25 24  5 17
  17859662.468   -25765141.94649 -20040411.27449  17859666.6074   17859673.4724
  18089714.951   -34215143.35049 -26628246.81049  18089718.3564   18089723.9604
  20773980.714    -8291211.68549  -6438657.55449  20773986.1344   20773991.6594
  18065735.809   -16392513.41249 -12766046.92349  18065740.3574   18065746.7234
  17056407.177   -24871669.42949 -19368497.56949  17056410.5364   17056416.1494
  21104132.215    -5601945.10259  -3945550.63259  21104132.8434   21104141.7094
 96  7  9 18 59 29.9870000  0  6 16  6 25 24  5 17
  17835721.064   -25890956.87249 -20138448.85549  17835724.5814   17835731.5884
  18065441.284   -34342693.40249 -26727636.44149  18065446.3034   18065452.2034
  20757831.631    -8376068.87049  -6504780.02049  20757837.1144   20757845.2204
  18067224.800   -16384708.01249 -12759964.81049  18067226.1224   18067231.6944
  17055500.358   -24876433.12049 -19372209.55249  17055503.9414   17055510.1014
  21072717.977    -5766996.52749  -4074162.05049  21072723.5904   21072733.7384
 96  7  9 18 59 59.9870000  0  6 16  6 25 24  5 17
  17811858.356   -26016355.97149 -20236162.41649  17811862.2894   17811868.9324
  18041182.706   -34470177.33049 -26826974.54949  18041187.2674   18041193.3204
  20741770.504    -8460482.10049  -6570556.55849  20741775.5504   20741780.4554
  18068729.412   -16376781.06949 -12753787.98749  18068734.3064   18068740.3654
  17054674.842   -24880771.84749 -19375590.40049  17054678.4524   17054684.1834
  21041324.313    -5931992.16149  -4202729.95449  21041327.5724   21041335.9634
 96  7  9 19  0 29.9870000  0  6 16  6 25 24  5 17
  17788086.356   -26141276.96549 -20333503.42249  17788090.2964   17788096.8784
  18016949.757   -34597518.86749 -26926201.70149  18016954.4194   18016960.5404
  20725806.474    -8544376.00349  -6635928.44149  20725810.9504   20725816.5854
  18070274.832   -16368664.93449 -12747463.73049  18070278.7904   18070283.9764
  17053947.534   -24884591.20549 -19378566.53349  17053951.4084   17053957.1034
  21009943.892    -6096878.34349  -4331212.59049  21009951.4494   21009959.5734
 96  7  9 19  0 59.9870000  0  6 16  6 25 24  5 17
  17764416.621   -26265666.38249 -20430430.22449  17764420.0824   17764426.4274
  17992752.484   -34724672.12849 -27025282.15149  17992758.2674   17992764.5444
  20709949.506    -8627700.76649  -6700856.82049  20709953.7674   20709960.0934
  18071868.194   -16360294.83749 -12740941.59649  18071871.4554   18071877.3004
  17053331.141   -24887839.94749 -19381098.03249  17053333.2034   17053339.1494
  20978598.489    -6261618.67249  -4459581.57749  20978601.2994   20978610.1624
 96  7  9 19  1 29.9870000  0  6 16  6 25 24  5 17
  17740883.833   -26389319.59449 -20526783.34449  17740889.7554   17740895.7384
  17968627.963   -34851455.75149 -27124074.55849  17968632.4994   17968637.6714
  20694237.589    -8710278.75749  -6765203.31249  20694238.7674   20694246.8964
  18073541.659   -16351489.03549 -12734079.94149  18073547.2894   18073552.8244
  17052851.649   -24890346.52349 -19383051.22549  17052855.9704   17052862.2844
  20947311.225    -6426028.02749  -4587692.68849  20947315.1934   20947324.2104
 96  7  9 19  1 59.9870000  0  6 16  6 25 24  5 17
  17717472.215   -26512364.03449 -20622662.10949  17717474.6214   17717481.7804
  17944548.623   -34977996.26949 -27222677.54249  17944552.1234   17944557.9194
  20678637.780    -8792241.27649  -6829070.23349  20678643.2694   20678650.1974
  18075274.915   -16342376.38949 -12726979.19549  18075281.1804   18075287.4954
  17052490.610   -24892252.22549 -19384536.20349  17052493.5684   17052499.4014
  20916059.632    -6590229.14049  -4715641.51849  20916068.3084   20916077.3474
 96  7  9 19  2 29.9870000  0  6 16  6 25 24  5 17
  17694190.734   -26634698.53049 -20717987.66749  17694195.3234   17694202.2784
  17920537.967   -35104170.79749 -27320995.34349  17920541.6444   17920548.0124
  20663186.954    -8873447.13749  -6892347.54349  20663190.6324   20663197.8214
  18077092.870   -16332833.34249 -12719543.06149  18077097.0704   18077103.0414
  17052259.595   -24893460.19049 -19385477.49249  17052263.6524   17052269.8194
  20884884.659    -6754088.14649  -4843323.75949  20884887.3224   20884896.8144
 96  7  9 19  2 59.9860000  0  6 16  6 25 24  5 17
  17671009.477   -26756522.08549 -20812915.09149  17671012.8764   17671019.8444
  17896557.920   -35230184.51949 -27419187.83949  17896562.1804   17896568.1874
  20647840.300    -8954088.95549  -6955185.33449  20647844.1954   20647850.2094
  18078948.819   -16323073.74849 -12711938.20549  18078954.0674   18078960.3664
  17052121.983   -24894187.96249 -19386044.61149  17052125.4894   17052131.1664
  20853730.139    -6917786.24049  -4970880.61349  20853736.2644   20853745.2684
 96  7  9 19  3 29.9860000  0  6 16  6 25 24  5 17
  17647915.080   -26877876.48449 -20907476.94049  17647919.8524   17647927.0834
  17872598.739   -35356091.60349 -27517297.24049  17872602.9944   17872608.6584
  20632592.344    -9034213.41449  -7017619.99549  20632597.2984   20632604.1074
  18080838.720   -16313146.89149 -12704203.01649  18080843.1584   18080849.3654
  17052067.854   -24894469.47749 -19386263.98849  17052071.3934   17052077.5284
  20822607.523    -7081352.95049  -5098335.08249  20822610.7684   20822619.4124
 96  7  9 19  3 59.9860000  0  6 16  6 25 24  5 17
  17624927.332   -26998696.19049 -21001622.14649  17624928.8254   17624935.6544
  17848674.753   -35481817.47649 -27615265.43949  17848678.2284   17848683.6514
  20617458.929    -9113738.60149  -7079587.65249  20617463.7734   20617470.1314
  18082775.037   -16302975.58949 -12696277.33849  18082778.5424   18082784.9514
  17052111.047   -24894240.67149 -19386085.70849  17052115.4974   17052121.2594
  20791520.302    -7244708.17149  -5225624.81549  20791524.5034   20791533.5464
 96  7  9 19  4 29.9860000  0  6 16  6 25 24  5 17
  17602013.241   -27119101.88049 -21095444.73149  17602016.1104   17602023.0954
  17824760.924   -35607483.82049 -27713187.24949  17824764.8014   17824770.1884
  20602420.581    -9192778.40649  -7141177.11249  20602423.1854   20602429.8114
  18084733.449   -16292678.53249 -12688253.66349  18084737.9744   18084744.2164
  17052226.683   -24893626.85149 -19385607.43349  17052231.8474   17052237.7184
  20760452.376    -7407977.32649  -5352847.46549  20760456.7384   20760465.4354
 96  7  9 19  4 59.9860000  0  6 16  6 25 24  5 17
  17579203.136   -27238952.62549 -21188834.90549  17579209.1894   17579216.1464
  17800880.517   -35732969.13949 -27810967.99549  17800885.5114   17800891.5944
  20587492.128    -9271218.98549  -7202299.64649  20587496.6314   20587502.5914
  18086742.167   -16282125.27049 -12680030.37249  18086746.6324   18086753.0234
  17052445.689   -24892493.23749 -19384724.10649  17052447.6534   17052453.6394
  20729419.263    -7571041.34949  -5479910.26049  20729425.2534   20729434.8614
 96  7  9 19  5 29.9860000  0  6 16  6 25 24  5 17
  17556503.498   -27358263.46949 -21281804.37049  17556505.2394   17556512.4614
  17777039.582   -35858263.15949 -27908599.68549  17777042.7214   17777048.4764
  20572674.848    -9349085.31549  -7262974.72849  20572680.0044   20572684.3324
  18088796.238   -16271317.56549 -12671608.80149  18088803.3374   18088809.3724
  17052755.715   -24890848.95149 -19383442.87049  17052760.9714   17052766.9234
  20698426.409    -7733919.59549  -5606828.31049  20698431.2624   20698440.5474
 96  7  9 19  5 59.9860000  0  6 16  6 25 24  5 17
  17533885.231   -27477116.13549 -21374416.80849  17533888.5784   17533895.1304
  17753219.437   -35983438.98949 -28006139.28949  17753222.5724   17753228.0264
  20557954.157    -9426452.79749  -7323261.09249  20557957.2134   20557963.8854
  18090884.052   -16260344.99849 -12663058.76749  18090891.1764   18090897.2784
  17053150.493   -24888777.39949 -19381828.68849  17053154.8874   17053161.0024
  20667450.912    -7896701.59349  -5733671.36049  20667455.4734   20667461.8834
 96  7  9 19  6 29.9860000  0  6 16  6 25 24  5 17
  17511330.240   -27595643.96449 -21466776.13149  17511333.3044   17511340.0094
  17729394.851   -36108633.09949 -28103693.12649  17729399.2534   17729404.7964
  20543296.061    -9503463.94549  -7383269.76449  20543302.7664   20543307.9274
  18092977.950   -16249364.13649 -12654502.27549  18092980.8494   18092986.4354
  17053603.324   -24886405.52149 -19379980.49549  17053606.6454   17053612.6144
  20636465.332    -8059527.69649  -5860548.75349  20636469.9364   20636478.0084
 96  7  9 19  6 59.9860000  0  6 16  6 25 24  5 17
  17488861.599   -27713720.80749 -21558784.03349  17488863.9864   17488870.6624
  17705589.032   -36233729.57649 -28201170.89149  17705593.9924   17705598.9704
  20528732.861    -9580006.58649  -7442913.42749  20528736.9494   20528742.2284
  18095089.710   -16238276.03249 -12645862.20549  18095091.0054   18095096.9114
  17054132.183   -24883612.59749 -19377804.21649  17054138.1004   17054144.2044
  20605497.052    -8222279.86249  -5987368.56449  20605499.5634   20605507.3014
 96  7  9 19  7 29.9860000  0  6 16  6 25 24  5 17
  17466513.542   -27831165.51649 -21650299.36549  17466514.9684   17466521.4664
  17681834.201   -36358561.09349 -28298442.19449  17681839.2294   17681844.5464
  20514288.211    -9655912.48249  -7502060.87849  20514293.0294   20514297.7044
  18097247.112   -16226925.21549 -12637017.42149  18097250.8344   18097256.6524
  17054777.602   -24880230.72049 -19375169.01049  17054781.5864   17054787.4194
  20574573.290    -8384782.91749  -6113994.27549  20574574.9104   20574585.9244
 96  7  9 19  7 59.9860000  0  6 16  6 25 24  5 17
  17444292.015   -27947930.55849 -21741285.07949  17444295.1944   17444301.6774
  17658133.075   -36483113.77749 -28395496.21649  17658137.8144   17658143.7104
  20499972.140    -9731138.48049  -7560678.56649  20499977.1224   20499983.4764
  18099460.963   -16215281.26549 -12627944.23749  18099466.1614   18099472.7584
  17055538.905   -24876228.63249 -19372050.52549  17055543.2484   17055549.5004
  20543702.243    -8547006.22249  -6240402.01849  20543705.7974   20543714.5344
 96  7  9 19  8 29.9860000  0  6 16  6 25 24  5 17
  17422156.888   -28064241.65249 -21831917.06949  17422162.2834   17422168.3724
  17634441.192   -36607611.63749 -28492507.51449  17634446.4594   17634451.7774
  20485742.805    -9805914.53749  -7618945.64549  20485747.3344   20485753.8654
  18101692.425   -16203554.43449 -12618806.45949  18101697.8164   18101703.9184
  17056376.851   -24871834.08949 -19368626.22949  17056379.4784   17056385.4264
  20512843.030    -8709173.14949  -6366765.79249  20512846.4714   20512854.5654
 96  7  9 19  8 59.9860000  0  6 16  6 25 24  5 17
  17400120.582   -28180047.50949 -21922155.37949  17400124.7344   17400131.8654
  17610773.481   -36731994.92649 -28589429.56149  17610777.3524   17610782.1514
  20471606.069    -9880205.28549  -7676834.57149  20471610.4074   20471616.3704
  18103952.637   -16191675.11449 -12609549.87549  18103958.2454   18103964.9704
  17057293.491   -24867009.90449 -19364867.13049  17057297.1934   17057303.5894
  20482009.985    -8871218.59349  -6493034.89649  20482010.0524   20482017.9424
 96  7  9 19  9 29.9860000  0  6 16  6 25 24  5 17
  17378173.716   -28295391.79949 -22012034.02049  17378175.5314   17378182.6414
  17587123.701   -36856279.74849 -28686274.85449  17587126.5234   17587132.3474
  20457555.695    -9954044.82349  -7734371.85749  20457559.3804   20457566.6354
  18106239.686   -16179662.15549 -12600189.14849  18106244.6284   18106250.2214
  17058284.262   -24861799.95449 -19360807.45449  17058288.8464   17058294.7744
  20451187.425    -9033169.03949  -6619229.99349  20451191.7834   20451199.2524
 96  7  9 19  9 59.9860000  0  6 16  6 25 24  5 17
  17356318.315   -28410236.62449 -22101523.47249  17356321.4514   17356328.0734
  17563502.101   -36980402.86149 -28782994.14449  17563507.0024   17563512.4144
  20443598.975   -10027382.89449  -7791518.41649  20443602.8474   20443609.8644
  18108565.452   -16167457.43249 -12590678.98149  18108567.4914   18108573.3334
  17059358.897   -24856162.77749 -19356414.86949  17059361.4224   17059367.4944
  20420395.932    -9194977.52949  -6745314.53049  20420400.9264   20420408.6834
 96  7  9 19 10 29.9860000  0  6 16  6 25 24  5 17
  17334555.393   -28524589.36649 -22190629.47749  17334560.7394   17334567.6884
  17539911.824   -37104372.14049 -28879593.57149  17539915.9104   17539921.0074
  20429733.701   -10100248.35749  -7848296.72549  20429737.7754   20429743.7514
  18110916.404   -16155089.46249 -12581041.62349  18110921.4444   18110927.8134
  17060507.487   -24850118.62849 -19351705.15949  17060511.7904   17060517.5554
  20389630.871    -9356644.94049  -6871289.10949  20389635.8694   20389643.9214
 96  7  9 19 10 59.9860000  0  6 16  6 25 24  5 17
  17312887.736   -28638456.06549 -22279356.75249  17312892.6274   17312898.9794
  17516348.682   -37228201.52949 -28976083.98449  17516352.3324   17516357.8604
  20415952.801   -10172660.89649  -7904722.09149  20415957.9984   20415964.7384
  18113295.655   -16142594.77649 -12571305.52349  18113298.5974   18113304.8354
  17061729.680   -24843695.60549 -19346700.22049  17061734.0644   17061739.9774
  20358889.398    -9518194.22949  -6997171.65849  20358893.6614   20358901.9794
 96  7  9 19 11 29.9860000  0  6 16  6 25 24  5 17
  17291307.086   -28751871.96949 -22367732.76049  17291310.5484   17291317.3214
  17492800.091   -37351956.77249 -29072516.62249  17492802.5354   17492808.2284
  20402254.421   -10244649.94049  -7960817.46349  20402259.0844   20402266.2414
  18115683.799   -16130040.53149 -12561523.00949  18115687.8144   18115694.3484
  17063016.812   -24836929.63349 -19341428.05449  17063021.6624   17063027.1924
  20328160.108    -9679685.03549  -7123008.57149  20328163.9614   20328173.2574
 96  7  9 19 11 59.9860000  0  6 16  6 25 24  5 17
  17269824.365   -28864763.32349 -22455700.02149  17269827.4864   17269834.3514
  17469269.470   -37475604.96249 -29168865.85249  17469272.9894   17469277.7744
  20388647.136   -10316161.51449  -8016540.78449  20388651.5654   20388657.7084
  18118091.407   -16117380.98049 -12551658.45449  18118096.9964   18118102.9604
  17064383.479   -24829757.89949 -19335839.71749  17064385.7994   17064391.9394
  20297450.606    -9841060.75949  -7248755.84549  20297454.8944   20297463.3214
 96  7  9 19 12 29.9860000  0  6 16  6 25 24  5 17
  17248350.107   -28977607.33049 -22543630.38349  17248354.2344   17248361.2984
  17445667.051   -37599634.93149 -29265512.56549  17445670.5704   17445676.5894
  20375037.966   -10387680.68649  -8072270.02549  20375042.1014   20375046.9144
  18120427.668   -16105111.41849 -12542097.76149  18120431.2854   18120437.6134
  17065733.200   -24822657.22049 -19330306.74049  17065737.8254   17065743.4684
  20266669.975   -10002814.94549  -7374798.00349  20266674.4404   20266682.2234
 96  7  9 19 12 59.9860000  0  6 16  6 25 24  5 17
  17227015.337   -29089728.05649 -22630997.16149  17227018.1014   17227025.0954
  17422123.443   -37723358.94949 -29361920.87149  17422126.8494   17422132.3774
  20361561.166   -10458498.44649  -8127452.69449  20361564.8124   20361571.1584
  18122820.205   -16092529.38049 -12532293.59149  18122825.8884   18122831.7114
  17067206.305   -24814932.01249 -19324287.11149  17067207.1194   17067213.2764
  20235946.889   -10164270.59949  -7500607.53149  20235950.6664   20235958.5574
 96  7  9 19 13 29.9860000  0  6 16  6 25 24  5 17
  17205788.233   -29201277.73849 -22717918.97249  17205791.3044   17205797.8774
  17398609.510   -37846928.63549 -29458208.92349  17398612.4194   17398617.4584
  20348193.450   -10528751.88049  -8182195.61249  20348196.6204   20348202.0324
  18125249.941   -16079762.69349 -12522345.53949  18125255.1574   18125260.9414
  17068767.563   -24806710.54949 -19317880.79949  17068771.9504   17068777.9174
  20205251.996   -10325564.50349  -7626291.02349  20205256.5544   20205263.9394
 96  7  9 19 13 59.9860000  0  6 16  6 25 24  5 17
  17184644.129   -29312372.41949 -22804486.22949  17184650.3614   17184657.2714
  17375109.611   -37970419.67349 -29554435.69049  17375112.7204   17375118.3134
  20334909.897   -10598551.44149  -8236584.90649  20334914.4014   20334918.9454
  18127695.278   -16066903.70649 -12512325.56849  18127701.9074   18127708.3004
  17070406.297   -24798101.86849 -19311172.74949  17070409.5234   17070415.9364
  20174574.026   -10486792.70949  -7751923.34649  20174576.0764   20174584.1114
 96  7  9 19 14 29.9860000  0  6 16  6 25 24  5 17
  17163593.345   -29423012.38849 -22890699.17449  17163596.2164   17163602.7314
  17351630.542   -38093802.27649 -29650577.95949  17351633.9904   17351638.9804
  20321716.720   -10667877.59349  -8290605.29649  20321720.1744   20321727.3054
  18130165.104   -16053932.78449 -12502218.37449  18130170.2064   18130176.8004
  17072119.989   -24789095.16749 -19304154.55149  17072124.4454   17072130.1684
  20143904.524   -10647949.85449  -7877500.25249  20143909.7314   20143916.4584
 96  7  9 19 14 59.9850000  0  6 16  6 25 24  5 17
  17142625.633   -29533202.63049 -22976561.67649  17142628.0774   17142634.5094
  17328169.204   -38217081.67149 -29746639.80649  17328174.1044   17328179.5824
  20308615.203   -10736733.44849  -8344259.23049  20308619.6574   20308624.7764
  18132653.988   -16040854.88749 -12492027.82749  18132659.5654   18132665.0924
  17073904.425   -24779706.60749 -19296838.80049  17073910.1274   17073916.8704
  20113255.947   -10809017.16249  -8003007.19649  20113259.1174   20113266.9404
 96  7  9 19 15 29.9850000  0  6 16  6 25 24  5 17
  17121741.815   -29642934.63749 -23062067.11349  17121746.5264   17121753.1164
  17304731.786   -38340252.61149 -29842617.15349  17304735.9824   17304741.7224
  20295598.752   -10805137.28549  -8397560.94249  20295603.0754   20295608.5824
  18135163.393   -16027675.94349 -12481758.53749  18135167.5524   18135173.5434
  17075766.482   -24769943.40249 -19289231.12749  17075769.5954   17075775.3414
  20082623.203   -10969991.76649  -8128441.88049  20082626.4994   20082635.1154
 96  7  9 19 15 59.9850000  0  6 16  6 25 24  5 17
  17100953.559   -29752191.95749 -23147202.66149  17100955.5214   17100962.5854
  17281316.507   -38463297.85049 -29938496.53849  17281320.9834   17281326.5974
  20282666.459   -10873086.97649  -8450508.77349  20282671.2894   20282678.0664
  18137687.570   -16014402.43549 -12471415.55849  18137693.2604   18137698.2244
  17077691.628   -24759821.85949 -19281344.22649  17077694.4464   17077700.5234
  20052006.422   -11130869.14649  -8253800.81549  20052011.8034   20052020.3964
 96  7  9 19 16 29.9850000  0  6 16  6 25 24  5 17
  17080262.846   -29860915.90149 -23231922.60049  17080265.6934   17080272.6314
  17257929.734   -38586197.79149 -30034262.71449  17257934.2154   17257939.0344
  20269833.858   -10940535.65149  -8503066.18849  20269837.3724   20269841.0244
  18140238.561   -16000992.19449 -12460966.02649  18140244.7334   18140250.9094
  17079691.372   -24749305.48349 -19273149.64949  17079696.5194   17079702.3124
  20021425.436   -11291593.46749  -8379040.46449  20021427.5404   20021435.6544
 96  7  9 19 16 59.9850000  0  6 16  6 25 24  5 17
  17059678.109   -29969085.55049 -23316210.62249  17059681.7164   17059688.2284
  17234569.308   -38708956.52749 -30129918.86349  17234574.0684   17234579.3584
  20257091.566   -11007485.99949  -8555235.30949  20257096.0394   20257101.8264
  18142819.555   -15987446.12249 -12450410.67649  18142822.7594   18142828.8624
  17081767.026   -24738397.62349 -19264650.04549  17081771.5964   17081777.5184
  19990871.782   -11452140.40149  -8504141.86249  19990875.0574   19990884.0724
 96  7  9 19 17 29.9850000  0  6 16  6 25 24  5 17
  17039213.023   -30076618.49149 -23400002.50649  17039218.9164   17039225.8414
  17211254.231   -38831481.07949 -30225392.51949  17211258.3354   17211263.6464
  20244462.761   -11073851.58449  -8606948.76149  20244467.8704   20244474.1754
  18145436.785   -15973681.04749 -12439684.67149  18145442.1464   18145448.2564
  17083934.320   -24727020.64449 -19255784.87249  17083937.1554   17083942.3914
  19960369.264   -11612431.09449  -8629043.60049  19960373.9954   19960382.4814
 96  7  9 19 17 59.9850000  0  6 16  6 25 24  5 17
  17018855.819   -30183609.40949 -23483372.02149  17018859.4554   17018866.2434
  17187964.425   -38953870.07449 -30320760.55649  17187968.1754   17187973.3324
  20231930.007   -11139707.90549  -8658265.38249  20231934.5984   20231940.8844
  18148082.155   -15959792.45649 -12428862.40149  18148085.0044   18148090.5414
  17086170.216   -24715259.60249 -19246620.44649  17086174.5714   17086181.1604
  19929900.519   -11772549.31949  -8753810.97849  19929904.2464   19929912.6714
 96  7  9 19 18 29.9850000  0  6 16  6 25 24  5 17
  16998602.776   -30290038.42449 -23566303.70149  16998606.7144   16998613.5714
  17164702.364   -39076113.31749 -30416015.01749  17164706.4604   17164711.9824
  20219498.130   -11205040.82149  -8709174.15949  20219502.3164   20219509.7234
  18150745.217   -15945777.48949 -12417941.66649  18150751.8154   18150758.0034
  17088487.466   -24703085.95249 -19237134.49949  17088491.7144   17088496.9834
  19899468.025   -11932466.01049  -8878421.34049  19899473.4504   19899481.1184
 96  7  9 19 18 59.9850000  0  6 16  6 25 24  5 17
  16978457.159   -30395902.93949 -23648795.51049  16978461.3604   16978468.0604
  17141473.029   -39198179.22649 -30511131.29949  17141477.8144   17141482.8264
  20207169.432   -11269834.52449  -8759662.76249  20207172.4044   20207180.2214
  18153441.232   -15931636.00549 -12406922.34249  18153443.0564   18153449.3584
  17090885.274   -24690484.17949 -19227314.95349  17090889.1464   17090895.0334
  19869077.477   -12092191.43849  -9002882.67449  19869078.8384   19869085.4144
 96  7  9 19 19 29.9850000  0  6 16  6 25 24  5 17
  16958439.261   -30501104.17749 -23730770.48049  16958442.2814   16958448.6314
  17118299.965   -39319949.35749 -30606017.10249  17118305.3834   17118310.6414
  20194962.439   -11333981.46049  -8809647.42049  20194967.4224   20194972.6324
  18156172.583   -15917262.32249 -12395722.10049  18156177.8084   18156185.3564
  17093388.949   -24677335.43849 -19217069.20749  17093391.5394   17093397.6104
  19838731.731   -12251635.39049  -9127124.70049  19838737.0244   19838745.3524
 96  7  9 19 19 59.9850000  0  6 16  6 25 24  5 17
  16938524.557   -30605760.02149 -23812320.46949  16938526.7764   16938533.2044
  17095159.301   -39441563.01549 -30700780.98149  17095163.3034   17095168.8624
  20182854.537   -11397617.99249  -8859234.33549  20182856.2204   20182862.4764
  18158927.770   -15902786.81449 -12384442.50849  18158932.5334   18158938.6574
  17095974.322   -24663750.06249 -19206483.21249  17095976.8554   17095982.1124
  19808419.279   -12410934.00949  -9251253.42949  19808423.8074   19808431.2014
 96  7  9 19 20 29.9850000  0  6 16  6 25 24  5 17
  16918695.662   -30709959.76549 -23893515.05449  16918698.2394   16918704.6214
  17072031.230   -39563098.79949 -30795484.17049  17072035.6734   17072041.2724
  20170818.130   -11460854.24149  -8908509.30749  20170823.1334   20170828.3004
  18161684.817   -15888290.11649 -12373146.39749  18161691.4084   18161697.6274
  17098622.583   -24649823.31949 -19195631.21649  17098626.8234   17098632.8644
  19778111.058   -12570199.96449  -9375356.67949  19778116.1984   19778125.3294
 96  7  9 19 20 59.9850000  0  6 16  6 25 24  5 17
  16898992.011   -30813501.76949 -23974197.12349  16898995.0974   16899001.3234
  17048960.652   -39684335.02949 -30889953.94449  17048965.3354   17048970.6574
  20158899.692   -11523486.78149  -8957313.93149  20158903.3204   20158910.3544
  18164492.820   -15873544.45449 -12361656.29849  18164497.8024   18164504.3434
  17101376.304   -24635352.03649 -19184354.91849  17101380.8474   17101386.3584
  19747847.697   -12729237.12149  -9499281.65149  19747850.8234   19747861.1264
 96  7  9 19 21 29.9850000  0  6 16  6 25 24  5 17
  16879387.965   -30916517.41649 -24054469.03249  16879391.5074   16879398.0114
  17025918.498   -39805421.67149 -30984307.16149  17025923.2614   17025928.6844
  20147067.643   -11585677.46949  -9005774.21949  20147070.8614   20147076.9254
  18167319.426   -15858683.33549 -12350076.22949  18167325.5994   18167332.3594
  17104207.957   -24620478.87249 -19172765.45949  17104210.7524   17104216.5814
  19717599.856   -12888166.57049  -9623122.68249  19717607.5834   19717616.4014
 96  7  9 19 21 59.9850000  0  6 16  6 25 24  5 17
  16859941.562   -31018707.83749 -24134097.91349  16859945.4684   16859951.7884
  17002961.537   -39926065.38149 -31078315.22749  17002965.4954   17002971.0344
  20135373.306   -11647119.05349  -9053650.80749  20135378.5094   20135383.6984
  18170225.230   -15843409.05749 -12338174.21549  18170231.9764   18170238.7464
  17107165.830   -24604929.00249 -19160648.69149  17107170.3824   17107176.4984
  19687444.636   -13046671.51349  -9746632.94649  19687447.0234   19687455.2204
 96  7  9 19 22 29.9850000  0  6 16  6 25 24  5 17
  16840602.858   -31120332.11949 -24213285.64849  16840607.0824   16840613.4384
  16980041.940   -40046512.59649 -31172170.19049  16980045.1184   16980050.5114
  20123776.050   -11708065.65349  -9101141.67549  20123780.5234   20123787.6314
  18173166.380   -15827972.80449 -12326145.99149  18173169.3384   18173175.3294
  17110202.713   -24588977.26449 -19148218.79749  17110205.7174   17110210.9204
  19657317.555   -13204989.80749  -9869997.81649  19657319.8394   19657328.3874
 96  7  9 19 22 59.9850000  0  6 16  6 25 24  5 17
  16821377.971   -31221362.46649 -24292010.58049  16821381.5574   16821388.0824
  16957161.593   -40166751.34349 -31265862.69949  16957164.3614   16957170.1504
  20112282.147   -11768475.94649  -9148214.61649  20112285.1384   20112289.2784
  18176134.018   -15812363.66149 -12313983.03849  18176140.4044   18176145.9304
  17113317.128   -24572608.29949 -19135463.76649  17113320.5634   17113326.7694
  19627233.860   -13363072.20649  -9993178.85449  19627237.1564   19627246.4804
 96  7  9 19 23 29.9850000  0  6 16  6 25 24  5 17
  16802279.718   -31321723.24249 -24370213.77149  16802283.5764   16802289.5944
  16934330.534   -40286723.99249 -31359347.87049  16934334.5354   16934339.9914
  20100902.722   -11828269.00449  -9194806.67349  20100906.8464   20100913.2344
  18179149.967   -15796531.21849 -12301646.09149  18179152.9814   18179159.0634
  17116524.599   -24555759.73549 -19122335.04449  17116527.1134   17116532.8534
  19597211.212   -13520834.65149 -10116110.54849  19597215.6194   19597224.7874
 96  7  9 19 23 59.9850000  0  6 16  6 25 24  5 17
  16783288.509   -31421530.56549 -24447985.69949  16783290.9314   16783297.6024
  16911528.878   -40406544.78149 -31452714.70149  16911533.4954   16911539.0104
  20089622.159   -11887555.56549  -9241003.99649  20089625.0964   20089630.7464
  18182180.035   -15780606.20849 -12289237.01649  18182183.4974   18182189.8884
  17119796.685   -24538560.21449 -19108932.83449  17119799.9614   17119804.8434
  19567226.639   -13678411.28749 -10238897.43549  19567229.2004   19567238.2624
 96  7  9 19 24 29.9850000  0  6 16  6 25 24  5 17
  16764417.798   -31520681.52649 -24525246.17649  16764422.8904   16764429.4034
  16888773.715   -40526121.80749 -31545891.58049  16888778.2324   16888783.9624
  20078450.141   -11946255.48949  -9286744.20849  20078454.2804   20078461.0134
  18185242.855   -15764505.50449 -12276691.03149  18185247.1554   18185253.5604
  17123155.871   -24520902.71149 -19095173.75949  17123159.3594   17123166.1474
  19537286.575   -13835729.42849 -10361482.93249  19537291.7164   19537302.5044
 96  7  9 19 24 59.9850000  0  6 16  6 25 24  5 17
  16745670.961   -31619197.30249 -24602011.70949  16745676.1434   16745682.4684
  16866058.867   -40645487.71949 -31638903.96849  16866063.3754   16866069.2704
  20067387.093   -12004390.09349  -9332043.93449  20067391.3944   20067398.5344
  18188335.150   -15748265.30149 -12264036.35349  18188337.5394   18188343.4554
  17126597.739   -24502818.12149 -19081081.90049  17126601.3434   17126607.0644
  19507397.427   -13992830.40549 -10483899.22849  19507396.8084   19507406.7024
 96  7  9 19 25 29.9850000  0  6 16  6 25 24  5 17
  16727009.684   -31717266.23349 -24678429.03849  16727014.0004   16727020.2764
  16843353.090   -40764820.99249 -31731890.92249  16843355.4894   16843361.1654
  20056394.193   -12062170.61049  -9377067.74649  20056396.4704   20056401.2954
  18191417.203   -15732061.68349 -12251410.18149  18191420.7644   18191427.3894
  17130085.193   -24484486.92949 -19066797.86749  17130089.3264   17130095.2484
  19477501.430   -14149922.61949 -10606308.74949  19477504.3394   19477512.3194
 96  7  9 19 25 59.9850000  0  6 16  6 25 24  5 17
  16708453.674   -31814786.81149 -24754419.08249  16708456.6014   16708462.9764
  16820668.324   -40884014.57949 -31824769.02149  16820673.7024   16820679.1754
  20045483.594   -12119497.41849  -9421738.02449  20045488.8494   20045494.9934
  18194513.378   -15715779.16949 -12238722.52149  18194518.9374   18194525.4684
  17133640.747   -24465803.48149 -19052239.36749  17133644.7864   17133651.1604
  19447626.778   -14306913.81049 -10728639.51349  19447628.8604   19447637.5874
 96  7  9 19 26 29.9850000  0  6 16  6 25 24  5 17
  16690016.532   -31911667.17449 -24829910.25849  16690020.7044   16690027.4534
  16798033.767   -41002966.33449 -31917458.68749  16798037.9344   16798043.5394
  20034681.761   -12176263.17749  -9465971.12649  20034685.6614   20034692.4624
  18197650.065   -15699307.16249 -12225887.20949  18197653.5594   18197660.5294
  17137285.424   -24446655.11649 -19037318.59249  17137288.7404   17137294.0804
  19417793.307   -14463689.94249 -10850802.67249  19417796.3464   19417804.4854
 96  7  9 19 26 59.9850000  0  6 16  6 25 24  5 17
  16671719.505   -32007820.79849 -24904835.14349  16671723.5514   16671729.5904
  16775462.188   -41121577.31049 -32009882.81349  16775466.6864   16775472.4414
  20024002.687   -12232376.42049  -9509695.72549  20024007.6954   20024014.3154
  18200838.953   -15682545.92549 -12212826.53649  18200843.8094   18200849.9634
  17141035.419   -24426958.14449 -19021970.31749  17141037.1034   17141043.2284
  19388019.075   -14620140.84849 -10972712.39849  19388024.2254   19388033.8654
 96  7  9 19 27 29.9840000  0  6 16  6 25 24  5 17
  16653565.672   -32103219.22149 -24979171.56249  16653569.6494   16653576.2184
  16752964.372   -41239806.21549 -32102009.22049  16752968.7414   16752974.2734
  20013455.562   -12287806.67749  -9552888.15449  20013460.4644   20013464.9224
  18204088.009   -15665473.23349 -12199523.17249  18204092.3294   18204098.7544
  17144892.636   -24406680.41749 -19006169.53649  17144895.5024   17144901.7014
  19358320.691   -14776220.41749 -11094332.77049  19358323.4914   19358332.4454
 96  7  9 19 27 59.9840000  0  6 16  6 25 24  5 17
  16635527.683   -32198009.31949 -25053033.95849  16635531.8924   16635538.1404
  16730510.154   -41357805.98449 -32193957.08349  16730513.9494   16730519.5484
  20003011.165   -12342687.54449  -9595652.54049  20003015.8354   20003022.2294
  18207363.910   -15648255.98849 -12186107.14649  18207368.5014   18207374.8474
  17148831.615   -24385981.15949 -18990040.26049  17148835.2684   17148840.3434
  19328662.817   -14932068.95449 -11215773.14949  19328666.4844   19328674.4064
 96  7  9 19 28 29.9840000  0  6 16  6 25 24  5 17
  16617618.318   -32292130.65049 -25126375.23449  16617621.1554   16617627.5254
  16708110.886   -41475511.07349 -32285675.31749  16708115.2944   16708121.2184
  19992680.940   -12396976.31949  -9637955.49149  19992685.4614   19992691.2684
  18210671.659   -15630861.35349 -12172552.90849  18210678.3164   18210685.0504
  17152857.147   -24364825.32249 -18973555.21749  17152860.5334   17152866.6504
  19299061.488   -15087633.28849 -11336992.05849  19299062.0644   19299070.8434
 96  7  9 19 28 59.9840000  0  6 16  6 25 24  5 17
  16599838.615   -32385564.58049 -25199180.88149  16599841.2544   16599847.2614
  16685769.434   -41592910.78049 -32377155.60149  16685775.2524   16685780.4424
  19982464.467   -12450663.06649  -9679789.32849  19982469.0274   19982476.0844
  18214018.653   -15613289.73849 -12158860.77149  18214022.6204   18214029.3144
  17156968.341   -24343215.29949 -18956716.27149  17156972.4194   17156979.2744
  19269511.747   -15242912.14049 -11457988.56649  19269515.6074   19269522.2214
 96  7  9 19 29 29.9840000  0  6 16  6 25 24  5 17
  16582161.573   -32478450.73649 -25271559.68749  16582165.4074   16582171.9304
  16663462.376   -41710151.20149 -32468511.75749  16663465.2234   16663470.4444
  19972337.770   -12503880.51449  -9721257.48549  19972343.0824   19972347.8894
  18217367.568   -15595694.03949 -12145149.85349  18217371.4214   18217377.3074
  17161139.876   -24321294.74249 -18939635.34349  17161143.8654   17161150.1334
  19239987.101   -15398053.22049 -11578877.67149  19239993.1424   19240000.9824
 96  7  9 19 29 59.9840000  0  6 16  6 25 24  5 17
  16564603.123   -32570723.07149 -25343460.19649  16564606.7554   16564612.9244
  16641194.560   -41827163.55649 -32559690.20749  16641198.5414   16641203.6694
  19962311.893   -12556568.34949  -9762313.00849  19962314.3234   19962322.4504
  18220732.084   -15577999.31749 -12131361.78849  18220738.1794   18220744.1714
  17165384.931   -24298985.05449 -18922251.19749  17165389.5784   17165395.9284
  19210504.591   -15552988.11549 -11699606.07049  19210508.7484   19210517.1394
 96  7  9 19 30 29.9840000  0  6 16  6 25 24  5 17
  16547157.154   -32662396.24449 -25414893.82149  16547161.7224   16547168.1634
  16618967.649   -41943969.52149 -32650707.83549  16618971.3574   16618976.3514
  19952382.897   -12608739.41149  -9802965.81749  19952387.7164   19952394.5444
  18224121.061   -15560195.14649 -12117488.41349  18224125.5014   18224131.9624
  17169705.031   -24276288.61249 -18904565.68849  17169708.1954   17169714.4184
  19181060.664   -15707720.54249 -11820176.72749  19181065.1614   19181073.4564
 96  7  9 19 30 59.9840000  0  6 16  6 25 24  5 17
  16529843.322   -32753390.55349 -25485798.46549  16529846.3144   16529852.4534
  16596792.244   -42060495.28549 -32741507.11849  16596796.8404   16596802.4314
  19942573.895   -12660291.31849  -9843136.15049  19942578.1464   19942584.2134
  18227552.964   -15542178.16049 -12103449.24849  18227554.0724   18227560.5594
  17174114.885   -24253111.82949 -18886505.88649  17174119.0324   17174124.7284
  19151676.752   -15862141.48649 -11940504.71349  19151680.1754   19151687.2694
 96  7  9 19 31 29.9840000  0  6 16  6 25 24  5 17
  16512621.766   -32843889.63249 -25556317.21249  16512624.6384   16512630.6694
  16574636.258   -42176925.23349 -32832231.74049  16574640.8264   16574646.5004
  19932844.528   -12711417.00649  -9882974.35149  19932849.0624   19932856.1614
  18230985.490   -15524125.88749 -12089382.54549  18230990.0664   18230996.4624
  17178582.093   -24229640.18549 -18868216.31949  17178584.9654   17178591.4934
  19122315.453   -16016426.56649 -12060726.82749  19122320.5414   19122328.0004
 96  7  9 19 31 59.9840000  0  6 16  6 25 24  5 17
  16495524.201   -32933733.23849 -25626325.20249  16495527.7064   16495534.0164
  16552528.767   -42293104.56449 -32922761.07649  16552532.5914   16552538.0854
  19923221.920   -12761977.52549  -9922372.19049  19923228.3604   19923234.0064
  18234455.995   -15505876.79249 -12075162.50749  18234461.2984   18234469.7324
  17183131.788   -24205732.90549 -18849587.30449  17183134.9444   17183140.7764
  19093009.230   -16170434.85149 -12180733.18949  19093012.6094   19093020.8864
 96  7  9 19 32 29.9840000  0  6 16  6 25 24  5 17
  16478550.232   -33022929.10449 -25695828.46249  16478554.2504   16478561.0564
  16530465.326   -42409050.36449 -33013108.44849  16530469.0364   16530474.5354
  19913707.772   -12811989.44849  -9961342.51749  19913710.8684   19913717.6324
  18237963.832   -15487458.38349 -12060810.52249  18237967.1224   18237973.0134
  17187757.637   -24181427.48349 -18830648.04249  17187760.4454   17187766.1624
  19063748.372   -16324202.20649 -12300551.84549  19063752.4704   19063759.2974
 96  7  9 19 32 59.9840000  0  6 16  6 25 24  5 17
  16461693.288   -33111518.63149 -25764859.24849  16461696.5984   16461702.5634
  16508440.278   -42524791.47849 -33103296.31749  16508444.3674   16508449.4344
  19904283.243   -12861510.49649  -9999930.40749  19904288.4524   19904293.4464
  18241483.599   -15468940.53649 -12046381.04749  18241490.6404   18241497.1844
  17192448.763   -24156777.48349 -18811440.29149  17192450.8954   17192457.0734
  19034521.081   -16477796.71449 -12420235.86449  19034523.2314   19034530.5574
 96  7  9 19 33 29.9840000  0  6 16  6 25 24  5 17
  16444957.790   -33199455.12949 -25833381.17649  16444962.8694   16444969.5564
  16486461.921   -42640288.35649 -33193293.87449  16486465.7144   16486471.4434
  19894954.736   -12910534.40049 -10038130.88049  19894958.9374   19894965.3504
  18245033.426   -15450310.32849 -12031864.02149  18245035.9334   18245042.7404
  17197211.100   -24131753.44349 -18791941.06749  17197212.8634   17197218.9404
  19005324.966   -16631200.68549 -12539771.36749  19005331.5044   19005339.1834
 96  7  9 19 33 59.9840000  0  6 16  6 25 24  5 17
  16428355.545   -33286710.75149 -25901372.56249  16428358.8914   16428364.9144
  16464536.382   -42755505.17849 -33283073.20149  16464540.7394   16464546.4404
  19885724.803   -12959042.30849 -10075929.27249  19885728.0324   19885733.6004
  18248603.176   -15431551.45549 -12017246.76149  18248605.2464   18248611.7854
  17202045.449   -24106326.31649 -18772127.75349  17202051.6444   17202057.4094
  18976178.515   -16784385.61749 -12659136.17149  18976182.1354   18976190.2644
 96  7  9 19 34 29.9840000  0  6 16  6 25 24  5 17
  16411875.205   -33373316.11349 -25968857.24749  16411877.8924   16411884.7164
  16442660.842   -42870460.86349 -33372649.05049  16442665.4224   16442670.9344
  19876587.075   -13007053.16249 -10113340.34149  19876591.6944   19876598.8554
  18252189.233   -15412688.54549 -12002548.38649  18252195.3284   18252202.0084
  17206961.373   -24080509.91049 -18752011.11149  17206964.2624   17206970.3634
  18947073.283   -16937339.73749 -12778321.09949  18947075.6104   18947084.3524
 96  7  9 19 34 59.9840000  0  6 16  6 25 24  5 17
  16395502.856   -33459350.16849 -26035896.76049  16395506.5454   16395512.4074
  16420821.656   -42985228.86849 -33462078.66149  16420825.8294   16420831.0084
  19867531.269   -13054648.88149 -10150427.95349  19867534.7974   19867539.8164
  18255786.123   -15393786.60049 -11987819.62249  18255792.4714   18255799.2104
  17211933.374   -24054379.25849 -18731649.60049  17211937.0444   17211942.5644
  18918000.441   -17090114.92249 -12897366.61549  18918003.6994   18918010.9034
 96  7  9 19 35 29.9840000  0  6 16  6 25 24  5 17
  16379290.329   -33544547.33149 -26102284.14849  16379293.8954   16379300.2254
  16399065.932   -43099553.94449 -33551163.12249  16399070.7044   16399076.0194
  19858604.347   -13101556.23749 -10186979.15649  19858609.3484   19858615.7624
  18259445.155   -15374559.34149 -11972837.37149  18259451.4154   18259457.9864
  17217015.196   -24027665.68249 -18710833.86049  17217020.6744   17217026.3144
  18889016.023   -17242426.24849 -13016050.74249  18889020.0304   18889026.0884
 96  7  9 19 35 59.9840000  0  6 16  6 25 24  5 17
  16363192.327   -33629140.69349 -26168201.04249  16363196.4094   16363202.6024
  16377352.999   -43213651.30249 -33640070.14249  16377358.5454   16377363.8284
  19849773.392   -13147973.84549 -10223148.77349  19849774.4244   19849782.3844
  18263129.325   -15355209.98849 -11957759.96849  18263133.8044   18263140.6434
  17222169.339   -24000587.95049 -18689734.36949  17222173.1774   17222178.5104
  18860076.012   -17394497.22949 -13134547.55849  18860080.8074   18860089.3864
 96  7  9 19 36 29.9840000  0  6 16  6 25 24  5 17
  16347208.321   -33713142.86849 -26233657.27749  16347211.4314   16347217.6074
  16355677.551   -43327559.28049 -33728829.60049  16355682.5884   16355687.8154
  19841031.028   -13193912.11249 -10258944.83749  19841033.5954   19841039.2624
  18266831.067   -15335746.75149 -11942593.85849  18266837.3644   18266843.6504
  17227388.160   -23973165.46749 -18668366.23349  17227391.7904   17227397.2184
  18831178.057   -17546356.93549 -13252879.72749  18831184.2554   18831191.0054
 96  7  9 19 36 59.9840000  0  6 16  6 25 24  5 17
  16331357.402   -33796443.87449 -26298567.14149  16331359.7224   16331366.2474
  16334056.775   -43441182.15749 -33817366.89649  16334060.6554   16334066.2504
  19832397.691   -13239271.19849 -10294289.59349  19832402.7284   19832408.7584
  18270577.901   -15316081.91949 -11927270.62749  18270579.5044   18270585.9764
  17232690.305   -23945301.98449 -18646654.46449  17232693.6354   17232700.0714
  18802336.126   -17697936.19549 -13370993.35349  18802339.4054   18802347.6254
 96  7  9 19 37 29.9840000  0  6 16  6 25 24  5 17
  16315613.461   -33879170.83249 -26363029.69849  16315617.0844   16315623.4114
  16312467.992   -43554635.45349 -33905772.05049  16312471.6174   16312476.8134
  19823853.963   -13284169.88349 -10329275.61349  19823858.4704   19823864.4934
  18274331.385   -15296343.37249 -11911889.97249  18274335.8954   18274342.4904
  17238054.939   -23917106.35649 -18624683.88349  17238058.9184   17238065.0044
  18773517.413   -17849363.65949 -13488988.68249  18773523.1624   18773531.7654
 96  7  9 19 37 59.9840000  0  6 16  6 25 24  5 17
  16299991.245   -33961268.81449 -26427002.14749  16299994.3574   16300000.5404
  16290923.039   -43667847.79349 -33993989.45049  16290927.7244   16290932.9534
  19815406.630   -13328555.72049 -10363862.02749  19815412.5994   19815417.5214
  18278108.103   -15276487.55449 -11896417.92849  18278113.6954   18278121.3014
  17243496.245   -23888519.89349 -18602408.75149  17243498.8084   17243504.8614
  18744742.455   -18000582.97049 -13606821.84349  18744747.4674   18744755.0374
 96  7  9 19 38 29.9840000  0  6 16  6 25 24  5 17
  16284523.517   -34042555.58849 -26490342.48349  16284526.3704   16284532.4364
  16269458.037   -43780639.48549 -34081879.06849  16269463.9424   16269469.5604
  19807091.996   -13372263.75149 -10397920.20249  19807095.5384   19807102.2284
  18281941.691   -15256355.35049 -11880730.52349  18281944.5474   18281950.8784
  17249039.091   -23859379.87449 -18579702.28549  17249043.9774   17249050.3884
  18716041.657   -18151404.09749 -13724344.78449  18716046.6574   18716054.2724
 96  7  9 19 38 59.9840000  0  6 16  6 25 24  5 17
  16269175.798   -34123206.72049 -26553187.50849  16269178.7394   16269185.4844
  16248051.167   -43893142.37849 -34169543.64949  16248055.7304   16248061.1234
  19798872.674   -13415448.77449 -10431570.94749  19798878.2824   19798883.3184
  18285788.435   -15236112.63149 -11864956.99349  18285797.3754   18285804.0634
  17254660.261   -23829846.77149 -18556689.51949  17254664.2364   17254670.3434
  18687391.308   -18301971.43549 -13841669.93149  18687394.0824   18687402.3804
 96  7  9 19 39 29.9840000  0  6 16  6 25 24  5 17
  16253947.981   -34203228.03249 -26615541.77549  16253951.4524   16253957.3414
  16226698.490   -44005358.84049 -34256985.04149  16226701.7084   16226706.9124
  19790754.633   -13458107.67649 -10464811.65649  19790759.2644   19790766.0174
  18289667.350   -15215752.83649 -11849092.25749  18289671.5634   18289678.2104
  17260355.655   -23799922.06949 -18533371.60649  17260358.4504   17260364.3064
  18658787.478   -18452278.79949 -13958792.49049  18658792.4914   18658799.7374
 96  7  9 19 39 59.9830000  0  6 16  6 25 24  5 17
  16238830.400   -34282666.61649 -26677441.95549  16238834.4774   16238840.7174
  16205383.675   -44117364.08349 -34344261.84649  16205387.5614   16205392.7734
  19782727.995   -13500292.44349 -10497682.90649  19782733.0354   19782738.7304
  18293549.406   -15195342.80949 -11833188.34749  18293556.4234   18293562.0854
  17266109.604   -23769689.21849 -18509813.57649  17266112.2784   17266118.3584
  18630222.304   -18602386.14149 -14075759.17049  18630226.6384   18630234.9174
 96  7  9 19 40 29.9830000  0  6 16  6 25 24  5 17
  16223828.028   -34361505.38749 -26738874.75849  16223831.6034   16223838.0734
  16184110.104   -44229155.19949 -34431371.79649  16184114.3544   16184119.8084
  19774794.387   -13541989.63849 -10530174.29849  19774799.4954   19774803.0604
  18297454.115   -15174856.16749 -11817224.74649  18297454.1314   18297460.6104
  17271924.398   -23739127.06849 -18485998.96249  17271927.9274   17271933.5014
  18601696.316   -18752292.05549 -14192568.91049  18601701.2024   18601707.9624
 96  7  9 19 40 59.9830000  0  5 16  6 24  5 17
  16208950.719   -34439696.51849 -26799802.89749  16208952.5644   16208958.9064
  16162885.025   -44340697.65949 -34518287.98849  16162888.7314   16162893.9344
  18301370.503   -15154244.14549 -11801163.46249  18301376.5334   18301383.6564
  17277813.149   -23708179.62449 -18461884.09249  17277816.3974   17277823.1064
  18573214.541   -18901965.63749 -14309197.66349  18573218.8434   18573226.7054
 96  7  9 19 41 29.9830000  0  5 16  6 24  5 17
  16194182.653   -34517289.37649 -26860264.85449  16194186.9314   16194193.2984
  16141693.279   -44452057.28249 -34605061.71549  16141697.6354   16141702.8114
  18305306.500   -15133571.32849 -11785054.80449  18305311.2944   18305316.6374
  17283762.203   -23676920.74549 -18437526.57649  17283764.9294   17283771.4864
  18544766.040   -19051474.11149 -14425697.72849  18544767.7784   18544776.7414
 96  7  9 19 41 59.9830000  0  5 16  6 24  5 17
  16179531.350   -34594291.21949 -26920266.28549  16179534.3314   16179540.7444
  16120539.970   -44563223.48149 -34691684.71949  16120543.1744   16120548.7594
  18309250.853   -15112846.81649 -11768905.86749  18309253.5784   18309260.8514
  17289764.930   -23645370.76149 -18412942.20749  17289769.0354   17289774.7954
  18516344.801   -19200813.68049 -14542066.17749  18516350.3494   18516358.7734
 96  7  9 19 42 29.9830000  0  5 16  6 24  5 17
  16164998.139   -34670670.77149 -26979782.81049  16164999.9024   16165005.9854
  16099431.749   -44674143.97549 -34778116.26749  16099435.7464   16099441.1124
  18313210.284   -15092040.19449 -11752692.92249  18313213.6494   18313219.7584
  17295829.309   -23613495.81249 -18388104.62849  17295834.1984   17295840.9324
  18487966.011   -19349945.17449 -14658272.48049  18487971.8114   18487979.2444
 96  7  9 19 42 59.9830000  0  5 16  6 24  5 17
  16150569.994   -34746477.50549 -27038852.98849  16150573.9484   16150580.5064
  16078362.046   -44784863.99649 -34864391.60349  16078366.3434   16078371.5004
  18317176.314   -15071203.62449 -11736456.67349  18317178.1444   18317184.8324
  17301944.143   -23581362.70149 -18363065.88149  17301949.3374   17301955.7284
  18459623.017   -19498897.03449 -14774338.85349  18459625.7894   18459634.7424
 96  7  9 19 43 29.9830000  0  5 16  6 24  5 17
  16136272.881   -34821612.43449 -27097399.67949  16136276.5524   16136282.7984
  16057350.891   -44895279.87249 -34950429.93349  16057354.8084   16057360.0644
  18321159.629   -15050250.53649 -11720129.62849  18321164.4834   18321171.6964
  17308120.757   -23548894.15549 -18337765.76049  17308127.3984   17308133.8984
  18431334.053   -19647551.96149 -14890173.82149  18431338.6834   18431347.2764
 96  7  9 19 43 59.9830000  0  5 16  6 24  5 17
  16122097.479   -34896104.10849 -27155445.13049  16122101.1994   16122107.4814
  16036388.818   -45005434.50349 -35036264.70049  16036393.1454   16036398.1874
  18325166.108   -15029211.36949 -11703735.51149  18325170.6494   18325176.2614
  17314363.178   -23516114.95649 -18312223.56949  17314365.7714   17314371.5584
  18403095.898   -19795942.36249 -15005802.67149  18403100.8214   18403108.3314
 96  7  9 19 44 29.9830000  0  5 16  6 24  5 17
  16108043.802   -34969949.47549 -27212986.96449  16108048.6344   16108055.0464
  16015474.886   -45115342.04649 -35121906.93249  16015478.4994   16015483.9784
  18329186.402   -15008085.08649 -11687273.50649  18329190.3124   18329195.0574
  17320661.829   -23483018.13949 -18286433.87849  17320663.6514   17320670.3594
  18374911.007   -19944069.29949 -15121226.22349  18374912.8684   18374922.0074
 96  7  9 19 44 59.9830000  0  5 16  6 24  5 17
  16094106.176   -35043192.05449 -27270059.09649  16094111.3174   16094117.8004
  15994596.438   -45225048.79049 -35207392.69649  15994602.1084   15994607.5024
  18333215.343   -14986906.55349 -11670770.77249  18333219.8584   18333224.7674
  17327009.546   -23449646.77849 -18260430.26649  17327014.0224   17327019.9534
  18346765.148   -20091972.45349 -15236475.40049  18346768.5944   18346776.0214
 96  7  9 19 45 29.9830000  0  5 16  6 24  5 17
  16080295.987   -35115777.64449 -27326619.29149  16080298.4664   16080304.8934
  15973769.028   -45334499.12549 -35292678.66049  15973774.0894   15973779.5054
  18337266.272   -14965626.07049 -11654188.58349  18337269.0244   18337276.0964
  17333425.171   -23415944.09349 -18234168.47249  17333427.3704   17333434.5514
  18318667.353   -20239615.81049 -15351522.13949  18318672.9904   18318679.5054
 96  7  9 19 45 59.9830000  0  5 16  6 24  5 17
  16066610.106   -35187690.09549 -27382654.96649  16066614.0184   16066620.4494
  15952999.177   -45443650.03949 -35377731.31349  15953003.4764   15953009.1684
  18341340.811   -14944197.73449 -11637491.22449  18341346.9114   18341354.2564
  17339907.640   -23381870.37149 -18207617.57149  17339911.5294   17339918.0624
  18290628.512   -20386974.49049 -15466347.05249  18290631.9364   18290637.5384
 96  7  9 19 46 29.9830000  0  5 16  6 24  5 17
  16053064.019   -35258877.50849 -27438125.66849  16053067.7414   16053073.8284
  15932301.857   -45552420.85549 -35462487.78049  15932305.0064   15932310.2754
  18345463.430   -14922559.78249 -11620630.50249  18345464.7004   18345470.8774
  17346473.542   -23347371.80849 -18180735.61449  17346476.5644   17346483.2794
  18262651.324   -20533981.76149 -15580898.16349  18262656.4174   18262664.4684
 96  7  9 19 46 59.9830000  0  5 16  6 24  5 17
  16039648.228   -35329380.32349 -27493062.92149  16039651.5584   16039657.9234
  15911669.276   -45660840.78049 -35546970.83649  15911673.8174   15911679.1114
  18349608.370   -14900754.88649 -11603639.69449  18349614.7034   18349618.8724
  17353108.937   -23312496.58049 -18153560.16149  17353113.3444   17353119.9434
  18234735.791   -20680683.61449 -15695211.26249  18234739.9954   18234748.2224
 96  7  9 19 47 29.9830000  0  5 16  6 24  5 17
  16026374.631   -35399127.63549 -27547411.46949  16026378.8344   16026385.1744
  15891118.165   -45768833.79549 -35631121.22549  15891123.0624   15891128.4344
  18353805.956   -14878712.91049 -11586464.16949  18353808.3934   18353815.2214
  17359833.393   -23277161.22349 -18126026.17049  17359837.2784   17359843.5104
  18206888.718   -20827014.30649 -15809235.10749  18206893.7454   18206902.0664
 96  7  9 19 47 59.9830000  0  5 16  6 24  5 17
  16013218.564   -35468258.80249 -27601279.90049  16013223.3584   16013229.8154
  15870623.449   -45876541.16749 -35715049.04449  15870626.8344   15870632.3214
  18358014.834   -14856579.47549 -11569217.36249  18358020.6094   18358025.6034
  17366616.742   -23241516.45349 -18098251.07449  17366620.5654   17366626.0094
  18179088.865   -20973121.97549 -15923085.19949  18179091.2914   18179098.2584
 96  7  9 19 48 29.9830000  0  5 16  6 24  5 17
  16000191.626   -35536729.73849 -27654633.86949  16000194.1434   16000200.5364
  15850182.236   -45983961.26749 -35798753.01349  15850185.7194   15850191.0174
  18362245.582   -14834354.12349 -11551898.93549  18362249.0264   18362255.4414
  17373457.570   -23205554.76249 -18070229.00849  17373462.9114   17373469.9354
  18151331.152   -21118994.52749 -16036752.10649  18151332.4904   18151339.4204
 96  7  9 19 48 59.9830000  0  5 16  6 24  5 17
  15987279.066   -35604569.58149 -27707496.07649  15987284.4024   15987290.6594
  15829784.652   -46091149.74749 -35882276.49449  15829788.7524   15829793.7394
  18366482.189   -14812084.21649 -11534545.79149  18366487.8194   18366494.5024
  17380357.270   -23169314.02149 -18041989.53849  17380359.7994   17380366.6324
  18123606.077   -21264675.96449 -16150270.09949  18123610.4994   18123617.3664
 96  7  9 19 49 29.9830000  0  5 16  6 24  5 17
  15974489.467   -35671790.02249 -27759875.63149  15974492.6564   15974499.0684
  15809429.842   -46198114.03249 -35965625.28249  15809433.8724   15809439.1014
  18370726.977   -14789798.27049 -11517180.16649  18370729.1604   18370736.4964
  17387304.759   -23132802.28449 -18013538.87249  17387307.9684   17387313.7744
  18095915.258   -21410182.78049 -16263651.99249  18095920.5154   18095928.0804
 96  7  9 19 49 59.9830000  0  5 16  6 24  5 17
  15961822.100   -35738355.88349 -27811745.12449  15961825.5824   15961832.1914
  15789124.076   -46304819.16349 -36048772.12649  15789128.5954   15789134.1784
  18374973.674   -14767473.57749 -11499784.33249  18374977.3024   18374983.0674
  17394304.703   -23095994.90849 -17984857.85249  17394311.8394   17394318.7134
  18068271.201   -21555475.15949 -16376866.78649  18068272.8884   18068279.0574
 96  7  9 19 50 29.9830000  0  5 16  6 24  5 17
  15949277.424   -35804282.88849 -27863116.80749  15949280.0734   15949286.5174
  15768862.873   -46411289.70349 -36131736.17449  15768867.6684   15768872.9074
  18379224.297   -14745124.59349 -11482369.56549  18379230.0144   18379234.9414
  17401368.237   -23058895.63749 -17955949.39449  17401371.8454   17401377.9494
  18040659.623   -21700551.67149 -16489913.37949  18040664.4154   18040673.5864
 96  7  9 19 50 59.9830000  0  5 16  6 24  5 17
  15936846.364   -35869617.84149 -27914027.15049  15936847.5544   15936853.9794
  15748643.365   -46517546.75249 -36214533.86249  15748647.5784   15748652.8854
  18383477.052   -14722772.42449 -11464952.32849  18383483.7494   18383489.0544
  17408481.070   -23021527.35849 -17926831.28849  17408483.0574   17408488.4494
  18013089.905   -21845436.57049 -16602810.63649  18013094.9364   18013101.7054
 96  7  9 19 51 29.9830000  0  5 16  6 24  5 17
  15924537.321   -35934285.67449 -27964417.65749  15924541.5174   15924547.8954
  15728482.446   -46623491.75149 -36297088.39449  15728487.0204   15728492.2524
  18387747.618   -14700328.10049 -11447463.27149  18387754.4414   18387760.0914
  17415656.306   -22983812.65149 -17897443.23849  17415660.0794   17415666.6454
  17985573.131   -21990037.76749 -16715486.85649  17985578.0214   17985585.2674
 96  7  9 19 51 59.9830000  0  5 16  6 24  5 17
  15912341.177   -35998374.75449 -28014357.18949  15912346.1014   15912352.4594
  15708361.218   -46729232.16949 -36379483.51749  15708365.3044   15708370.5334
  18392025.132   -14677862.64849 -11429957.75049  18392028.5574   18392035.7854
  17422879.443   -22945858.76149 -17867868.84549  17422882.1244   17422888.1924
  17958098.607   -22134424.63049 -16827996.03349  17958101.3354   17958109.9074
 96  7  9 19 52 29.9830000  0  5 16  6 24  5 17
  15900256.163   -36061885.91449 -28063846.39049  15900260.1024   15900266.5454
  15688281.875   -46834756.85049 -36461710.53249  15688284.9314   15688290.2364
  18396305.690   -14655362.89649 -11412425.48949  18396310.9504   18396317.3034
  17430145.639   -22907680.95749 -17838119.94449  17430147.1194   17430153.1944
  17930666.424   -22278595.77249 -16940337.13149  17930666.3004   17930673.4014
 96  7  9 19 52 59.9820000  0  5 16  6 24  5 17
  15888269.495   -36124873.92249 -28112927.94449  15888274.0264   15888280.3334
  15668238.391   -46940083.89149 -36543783.53949  15668241.8774   15668247.0534
  18400583.595   -14632878.97149 -11394905.57749  18400588.5264   18400596.5194
  17437440.779   -22869339.34149 -17808243.41849  17437443.7784   17437449.4854
  17903257.081   -22422609.05549 -17052555.24549  17903261.6874   17903269.3534
 96  7  9 19 53 29.9820000  0  5 16  6 24  5 17
  15876385.285   -36187325.15649 -28161591.22549  15876389.4864   15876395.6874
  15648232.946   -47045203.37849 -36625694.82249  15648237.9804   15648243.2954
  18404860.881   -14610406.48249 -11377394.59949  18404865.1334   18404873.7064
  17444766.925   -22830821.39149 -17778229.48149  17444772.7494   17444779.1014
  17875886.808   -22566465.58249 -17164651.19449  17875887.3514   17875894.3924
 96  7  9 19 53 59.9820000  0  5 16  6 24  5 17
  15864610.729   -36249201.08549 -28209806.22549  15864615.0054   15864621.2864
  15628274.706   -47150091.36749 -36707425.70849  15628278.5014   15628283.9234
  18409142.722   -14587916.85249 -11359870.25049  18409145.8964   18409150.6374
  17452138.616   -22792094.97949 -17748053.10249  17452142.8724   17452148.8574
  17848541.868   -22710141.47149 -17276606.39549  17848546.8824   17848552.7524
 96  7  9 19 54 29.9820000  0  5 16  6 24  5 17
  15852941.105   -36310530.84149 -28257595.63049  15852944.5264   15852950.7894
  15608357.032   -47254761.60849 -36788986.92949  15608360.4394   15608365.7674
  18413416.157   -14565452.07649 -11342365.25149  18413420.2094   18413425.9074
  17459545.427   -22753170.50349 -17717722.40749  17459549.3124   17459556.4004
  17821226.890   -22853685.98449 -17388459.23649  17821231.6594   17821238.6304
 96  7  9 19 54 59.9820000  0  5 16  6 24  5 17
  15841383.897   -36371266.43149 -28304922.04649  15841386.9844   15841393.2584
  15588480.808   -47359202.74149 -36870369.62249  15588485.9614   15588491.0684
  18417690.617   -14542989.92749 -11324862.32649  18417694.8924   18417701.4694
  17467002.470   -22713996.64949 -17687197.36649  17467004.5174   17467010.8144
  17793943.036   -22997060.35949 -17500179.46849  17793947.5774   17793956.1804
 96  7  9 19 55 29.9820000  0  5 16  6 24  5 17
  15829937.661   -36431401.52349 -28351780.54949  15829943.1734   15829949.8284
  15568646.732   -47463437.79649 -36951591.73849  15568650.4214   15568655.8354
  18421963.856   -14520535.03449 -11307365.04149  18421967.1994   18421974.1894
  17474501.556   -22674583.11049 -17656485.56149  17474504.4814   17474511.4054
  17766696.034   -23140255.59449 -17611760.11349  17766698.5124   17766704.6664
 96  7  9 19 55 59.9820000  0  5 16  6 24  5 17
  15818632.493   -36490822.69349 -28398082.75149  15818635.9174   15818642.6174
  15548873.295   -47567352.80849 -37032564.46949  15548876.2824   15548881.3834
  18426257.174   -14497963.98449 -11289777.23949  18426263.1664   18426270.1404
  17482065.889   -22634829.86549 -17625509.07849  17482069.3804   17482076.0064
  17739500.669   -23283153.13549 -17723108.82949  17739506.4694   17739512.7964
 96  7  9 19 56 29.9820000  0  5 16  6 24  5 17
  15807443.356   -36549618.31249 -28443897.50549  15807447.5984   15807453.6574
  15529144.638   -47671026.01249 -37113348.77949  15529147.7444   15529153.2344
  18430556.169   -14475369.34949 -11272171.06549  18430562.3564   18430570.6704
  17489672.024   -22594842.14649 -17594349.86749  17489678.6834   17489684.9904
  17712351.973   -23425833.55649 -17834288.31349  17712354.3374   17712362.0244
 96  7  9 19 56 59.9820000  0  5 16  6 24  5 17
  15796389.851   -36607713.84149 -28489166.74449  15796391.9484   15796398.5874
  15509478.988   -47774370.79649 -37193877.17549  15509481.9864   15509487.4504
  18434883.953   -14452652.29249 -11254469.49149  18434885.8414   18434892.5874
  17497342.515   -22554562.06149 -17562962.83949  17497344.0124   17497350.9834
  17685257.807   -23568205.52349 -17945227.50749  17685262.0834   17685269.8864
 96  7  9 19 57 29.9820000  0  5 16  6 24  5 17
  15785459.411   -36665147.36049 -28533920.12849  15785462.7284   15785469.6164
  15489875.050   -47877382.63849 -37274146.13649  15489879.4734   15489884.8964
  18439224.609   -14429821.94849 -11236679.67349  18439229.5084   18439237.6384
  17505055.079   -22514022.27749 -17531373.46449  17505058.4944   17505065.3894
  17658223.409   -23710279.13949 -18055934.15749  17658226.7194   17658234.4164
 96  7  9 19 57 59.9820000  0  5 16  6 24  5 17
  15774644.763   -36721969.17349 -28578196.86249  15774650.1354   15774656.2034
  15470327.990   -47980106.34549 -37354190.57449  15470332.0284   15470337.1324
  18443583.186   -14406921.55949 -11218835.22549  18443587.6884   18443594.6664
  17512809.311   -22473274.40549 -17499621.92949  17512813.0584   17512819.3904
  17631236.187   -23852092.54249 -18166438.06549  17631240.6944   17631247.1884
 96  7  9 19 58 29.9820000  0  5 16  6 24  5 17
  15763942.312   -36778219.96949 -28622028.64249  15763946.2154   15763952.4174
  15450825.734   -48082585.89949 -37434044.76749  15450830.6684   15450835.8534
  18447946.551   -14384001.32249 -11200975.36149  18447949.5464   18447957.2214
  17520598.676   -22432343.88649 -17467728.06849  17520601.1514   17520608.2124
  17604293.675   -23993680.71949 -18276766.46249  17604297.1274   17604304.1174
 96  7  9 19 58 59.9820000  0  5 16  6 24  5 17
  15753337.314   -36833943.02349 -28665449.19849  15753342.5814   15753348.8124
  15431363.746   -48184865.26349 -37513742.96449  15431367.7864   15431372.7104
  18452303.070   -14361103.97549 -11183133.30549  18452307.0444   18452313.5374
  17528415.100   -22391257.90649 -17435713.07349  17528420.0354   17528425.9624
  17577383.430   -24135084.08149 -18386950.84749  17577389.2634   17577396.2864
 96  7  9 19 59 29.9820000  0  5 16  6 24  5 17
  15742844.301   -36889088.48049 -28708419.68049  15742848.1904   15742855.0024
  15411945.402   -48286910.37249 -37593258.62549  15411949.1924   15411954.2004
  18456659.805   -14338207.18849 -11165291.70349  18456664.0694   18456671.2294
  17536279.265   -22349960.74349 -17403533.54249  17536279.5064   17536285.6384
  17550519.181   -24276261.61149 -18496959.26649  17550523.9994   17550530.9184
 96  7  9 19 59 59.9820000  0  5 16  6 24  5 17
  15732466.162   -36943629.81049 -28750919.41349  15732469.3944   15732475.9344
  15392573.609   -48388707.23949 -37672580.85549  15392577.7434   15392582.8894
  18461014.584   -14315307.03649 -11147447.51149  18461020.9634   18461028.0924
  17544175.384   -22308433.25249 -17371174.50149  17544181.3134   17544187.0854
  17523698.125   -24417218.67249 -18606795.91849  17523700.2864   17523706.9184
 96  7  9 20  0 29.9820000  0  5 16  6 24  5 17
  15722213.288   -36997505.03249 -28792900.10449  15722217.2904   15722223.7704
  15373263.701   -48490181.60949 -37751651.78849  15373267.9264   15373273.1204
  18465384.184   -14292347.37949 -11129556.88549  18465390.4004   18465397.6054
  17552137.806   -22266597.68849 -17338575.43749  17552141.3964   17552148.6424
  17496921.678   -24557908.24249 -18716424.09349  17496928.2584   17496934.5154
 96  7  9 20  0 59.9820000  0  5 16  6 24  5 17
  15712100.244   -37050658.56949 -28834318.44849  15712102.8224   15712109.1734
  15354028.881   -48591257.96949 -37830412.58249  15354033.7734   15354038.8224
  18469778.767   -14269255.86449 -11111563.50749  18469784.9094   18469790.9044
  17560171.060   -22224403.20149 -17305696.67249  17560171.0004   17560177.5884
  17470216.206   -24698266.31249 -18825793.98149  17470218.9474   17470225.7194
 96  7  9 20  1 29.9820000  0  5 16  6 24  5 17
  15702098.149   -37103217.84249 -28875273.71249  15702101.0524   15702107.4334
  15334846.199   -48692065.73049 -37908964.07949  15334850.8914   15334855.9254
  18474172.376   -14246163.79749 -11093569.70749  18474178.2534   18474186.0934
  17568240.047   -22181985.48049 -17272643.95749  17568242.9904   17568249.5914
  17443543.965   -24838421.96049 -18935006.13849  17443547.7864   17443555.7184
 96  7  9 20  1 59.9820000  0  5 16  6 24  5 17
  15692212.629   -37155165.09349 -28915752.08449  15692215.9794   15692222.1894
  15315719.512   -48792580.20449 -37987287.03849  15315723.4684   15315728.5164
  18478571.703   -14223052.42049 -11075560.87449  18478576.4164   18478584.6004
  17576357.157   -22139339.47049 -17239413.38149  17576357.6524   17576365.3514
  17416916.811   -24978358.22549 -19044047.31749  17416918.6644   17416926.0894
 96  7  9 20  2 29.9820000  0  5 16  6 24  5 17
  15682455.789   -37206437.99549 -28955704.99049  15682458.8934   15682465.1814
  15296659.912   -48892735.26049 -38065329.93249  15296664.2414   15296669.4924
  18482987.637   -14199838.36249 -11057472.05749  18482992.7864   18483001.5684
  17584525.081   -22096400.73149 -17205954.67949  17584530.2384   17584536.4164
  17390341.065   -25117994.77149 -19152854.98649  17390347.3634   17390353.7004
 96  7  9 20  2 59.9820000  0  5 16  6 24  5 17
  15672829.963   -37257019.46849 -28995119.11949  15672833.5774   15672839.6054
  15277672.854   -48992515.72749 -38143080.93649  15277676.8784   15277681.9874
  18487428.583   -14176504.11549 -11039289.60949  18487435.0024   18487442.9174
  17592750.638   -22053174.69449 -17172272.10849  17592756.3124   17592761.6134
  17363834.141   -25257304.35249 -19261407.83449  17363836.9174   17363843.8694
 96  7  9 20  3 29.9820000  0  5 16  6 24  5 17
  15663318.691   -37307005.76349 -29034069.47249  15663321.4354   15663327.9904
  15258738.764   -49092018.29349 -38220615.39249  15258742.3964   15258747.1524
  18491874.342   -14153153.74749 -11021094.55549  18491878.7194   18491886.3324
  17601009.076   -22009770.98949 -17138451.09849  17601015.2064   17601021.4974
  17337366.485   -25396389.53349 -19369785.85049  17337369.7534   17337376.6804
 96  7  9 20  3 59.9820000  0  5 16  6 24  5 17
  15653912.412   -37356423.75249 -29072576.99049  15653917.6174   15653923.9984
  15239855.112   -49191257.82349 -38297944.89449  15239857.6054   15239862.7164
  18496321.217   -14129797.93949 -11002895.24949  18496323.5254   18496331.6764
  17609300.047   -21966217.94349 -17104513.72449  17609302.7064   17609309.4134
  17310939.716   -25535264.08249 -19477999.74449  17310943.6104   17310950.0874
 96  7  9 20  4 29.9820000  0  5 16  6 24  5 17
  15644622.685   -37405245.49549 -29110619.90249  15644626.9594   15644633.1774
  15221025.664   -49290197.91549 -38375041.05949  15221029.8474   15221034.7474
  18500771.569   -14106394.65449 -10984658.94349  18500777.2024   18500783.4734
  17617624.726   -21922471.95349 -17070426.01449  17617627.8344   17617633.6404
  17284560.607   -25673883.31049 -19586014.68949  17284564.2694   17284572.0394
 96  7  9 20  4 59.9820000  0  5 16  6 24  5 17
  15635444.474   -37453475.97249 -29148202.08649  15635449.1044   15635455.5214
  15202254.500   -49388841.37349 -38451906.08649  15202258.3324   15202263.6974
  18505229.952   -14082967.59149 -10966404.13249  18505235.7134   18505242.1164
  17625982.465   -21878547.09849 -17036198.92249  17625986.2474   17625991.6324
  17258229.853   -25812252.27049 -19693834.59549  17258233.4274   17258240.3534
 96  7  9 20  5 29.9810000  0  5 16  6 24  5 17
  15626384.294   -37501095.00949 -29185307.81949  15626387.3734   15626393.9574
  15183540.698   -49487172.60849 -38528527.82249  15183546.6584   15183551.8284
  18509695.954   -14059502.23549 -10948119.50349  18509700.8094   18509706.1344
  17634382.754   -21834417.39149 -17001812.18749  17634384.1834   17634390.0414
  17231948.964   -25950353.54149 -19801445.91949  17231953.7124   17231960.7894
 96  7  9 20  5 59.9810000  0  5 16  6 24  5 17
  15617434.640   -37548116.87849 -29221948.24349  15617439.6844   15617446.1654
  15164884.955   -49585226.74249 -38604933.64249  15164887.9444   15164893.0644
  18514166.059   -14036011.55149 -10929815.10949  18514170.2264   18514177.5664
  17642814.058   -21790078.21749 -16967262.24949  17642821.3714   17642828.0064
  17205716.186   -26088214.04449 -19908869.63549  17205719.9674   17205726.5994
 96  7  9 20  6 29.9810000  0  5 16  6 24  5 17
  15608596.102   -37594570.44649 -29258145.81549  15608599.8834   15608605.7804
  15146270.782   -49683038.76449 -38681150.78849  15146274.5974   15146279.9694
  18518630.412   -14012546.68149 -10911530.83449  18518635.4264   18518643.4304
  17651286.264   -21745568.83749 -16932579.70149  17651291.0994   17651298.2564
  17179519.216   -26225877.65049 -20016139.97049  17179522.6194   17179529.8294
 96  7  9 20  6 59.9810000  0  5 16  6 24  5 17
  15599863.226   -37640461.73049 -29293905.25149  15599866.7824   15599873.0954
  15127702.046   -49780612.82749 -38757182.52349  15127706.7754   15127712.1774
  18523085.374   -13989126.83249 -10893281.64149  18523092.0394   18523099.7974
  17659784.225   -21700910.09049 -16897780.75749  17659789.9104   17659796.5694
  17153353.344   -26363366.55649 -20123274.13149  17153360.0794   17153367.3644
 96  7  9 20  7 29.9810000  0  5 16  6 24  5 17
  15591236.998   -37685801.03749 -29329234.57349  15591239.0684   15591245.4414
  15109178.771   -49877954.46349 -38833033.14049  15109183.2464   15109188.6894
  18527533.899   -13965752.31049 -10875067.74249  18527540.1904   18527546.3114
  17668312.861   -21656099.96349 -16862863.82649  17668316.6514   17668323.5554
  17127222.996   -26500698.09149 -20230285.67149  17127226.6424   17127233.3334
 96  7  9 20  7 59.9810000  0  5 16  6 24  5 17
  15582712.820   -37730590.36149 -29364135.34049  15582716.0704   15582722.6634
  15090703.797   -49975048.40049 -38908690.74849  15090706.9584   15090712.2374
  18531974.695   -13942422.62549 -10856888.81849  18531979.9924   18531987.7174
  17676867.818   -21611143.16849 -16827832.63549  17676872.1114   17676878.7264
  17101116.376   -26637872.40949 -20337174.72349  17101122.4994   17101130.0894
 96  7  9 20  8 29.9810000  0  5 16  6 24  5 17
  15574301.325   -37774789.91449 -29398576.55049  15574305.1504   15574311.4534
  15072286.753   -50071829.98549 -38984104.96249  15072290.1584   15072295.1954
  18536413.949   -13919103.40049 -10838718.04249  18536418.6014   18536424.0244
  17685456.656   -21566014.76749 -16792667.72249  17685459.3024   17685466.4454
  17075056.722   -26774843.66149 -20443905.52649  17075058.3884   17075065.3964
 96  7  9 20  8 59.9810000  0  5 16  6 24  5 17
  15566007.702   -37818375.38249 -29432539.24749  15566010.8794   15566016.9924
  15053933.560   -50168271.16649 -39059253.93149  15053938.0864   15053942.9164
  18540855.223   -13895761.92849 -10820529.91249  18540858.5164   18540865.0514
  17694080.196   -21520686.03249 -16757346.71149  17694085.2144   17694091.3484
  17049031.878   -26911575.85449 -20550450.05549  17049038.5964   17049045.8424
 96  7  9 20  9 29.9810000  0  5 16  6 24  5 17
  15557826.240   -37861370.80449 -29466042.16649  15557829.6044   15557835.3444
  15035639.718   -50264411.94849 -39134168.82249  15035642.9264   15035648.0764
  18545294.086   -13872412.40849 -10802335.53949  18545302.8684   18545309.9274
  17702741.718   -21475174.58249 -16721883.31649  17702745.5924   17702751.7924
  17023060.907   -27048079.61949 -20656816.57849  17023063.7444   17023071.0194
 96  7  9 20  9 59.9810000  0  5 16  6 24  5 17
  15549755.911   -37903785.38149 -29499092.48149  15549758.1364   15549764.1734
  15017395.779   -50360275.24649 -39208867.49149  15017400.9074   15017406.2524
  18549741.030   -13849073.43449 -10784149.39449  18549744.5304   18549750.8614
  17711429.979   -21429518.52449 -16686307.23449  17711433.6804   17711441.4774
  16997125.535   -27184362.26549 -20763010.81549  16997129.4874   16997136.3534
 96  7  9 20 10 29.9810000  0  5 16  6 24  5 17
  15541795.335   -37945613.12549 -29531685.52049  15541798.5344   15541804.6914
  14999207.398   -50455870.31549 -39283357.15249  14999209.8064   14999214.8174
  18554180.794   -13825742.31149 -10765969.34749  18554184.7634   18554190.3934
  17720142.670   -21383723.99449 -16650623.26949  17720147.5194   17720155.3604
  16971235.130   -27320423.05449 -20869032.19449  16971238.1144   16971244.4454
 96  7  9 20 10 59.9810000  0  5 16  6 24  5 17
  15533938.790   -37986901.43849 -29563858.23649  15533941.7244   15533948.0754
  14981053.413   -50551258.67149 -39357685.73049  14981057.9414   14981062.7334
  18558607.453   -13802462.45449 -10747829.27349  18558611.7354   18558619.2284
  17728872.270   -21337841.17249 -16614870.49349  17728879.8614   17728885.7164
  16945376.164   -27456310.00649 -20974918.08549  16945379.4854   16945386.4004
 96  7  9 20 11 29.9810000  0  5 16  6 24  5 17
  15526172.839   -38027704.52049 -29595652.84549  15526176.7914   15526183.5414
  14962934.604   -50646478.15549 -39431882.72249  14962938.5374   14962943.5384
  18563018.832   -13779277.34349 -10729762.99449  18563025.0734   18563031.4874
  17737611.686   -21291929.61649 -16579095.33149  17737615.8534   17737623.1174
  16919540.696   -27592074.26049 -21080708.37649  16919544.6284   16919552.1864
 96  7  9 20 11 59.9810000  0  5 16  6 24  5 17
  15518507.197   -38067995.53549 -29627048.44449  15518509.8164   15518516.1654
  14944855.950   -50741478.09149 -39505908.64349  14944860.4724   14944865.2994
  18567421.790   -13756162.20749 -10711751.25749  18567425.0964   18567431.5104
  17746358.176   -21245976.81149 -16543288.05249  17746360.4904   17746367.6914
  16893730.450   -27727698.29149 -21186389.40749  16893735.3614   16893743.0534
 96  7  9 20 12 29.9810000  0  5 16  6 24  5 17
  15510940.751   -38107752.73049 -29658028.08049  15510944.5054   15510950.9344
  14926828.674   -50836212.57149 -39579727.70549  14926833.0254   14926838.0184
  18571811.038   -13733088.49949 -10693771.78149  18571815.5274   18571822.9744
  17755119.417   -21199938.10949 -16507413.81349  17755121.3064   17755128.8014
  16867958.208   -27863140.68849 -21291928.91649  16867962.5234   16867968.8404
 96  7  9 20 12 59.9810000  0  5 16  6 24  5 17
  15503457.814   -38147068.87249 -29688664.02749  15503462.8794   15503468.7714
  14908837.717   -50930755.16649 -39653397.25249  14908842.0064   14908847.0504
  18576180.843   -13710136.42149 -10675887.07449  18576183.9784   18576189.3434
  17763881.480   -21153885.07749 -16471528.41549  17763884.7624   17763892.9174
  16842207.596   -27998466.66949 -21397377.70749  16842210.9704   16842217.7154
 96  7  9 20 13 29.9810000  0  5 16  6 24  5 17
  15496086.780   -38185820.89149 -29718860.40349  15496088.8034   15496094.3884
  14890907.815   -51024978.09449 -39726817.70749  14890911.9854   14890917.3484
  18580543.623   -13687190.58049 -10658007.22649  18580548.9194   18580556.0084
  17772669.870   -21107694.73049 -16435536.02749  17772674.0374   17772682.5154
  16816499.199   -28133557.85049 -21502643.54849  16816503.0114   16816509.7404
 96  7  9 20 13 59.9810000  0  5 16  6 24  5 17
  15488812.432   -38224045.18749 -29748645.56549  15488814.3654   15488820.9574
  14873029.965   -51118923.88549 -39800022.21549  14873034.7794   14873039.9164
  18584897.160   -13664315.99849 -10640182.93349  18584900.0484   18584909.5714
  17781478.649   -21061404.60049 -16399465.87249  17781484.4444   17781490.3984
  16790829.831   -28268454.82949 -21607758.04349  16790833.1284   16790840.6114
 96  7  9 20 14 29.9810000  0  5 16  6 24  5 17
  15481629.382   -38261784.18349 -29778052.57749  15481633.4074   15481639.0844
  14855196.698   -51212636.93449 -39873045.36349  14855201.6484   14855206.7204
  18589227.402   -13641560.33449 -10622451.31049  18589232.0534   18589239.4794
  17790303.795   -21015047.92549 -16363343.86049  17790305.1394   17790313.5524
  16765190.458   -28403185.24749 -21712742.74449  16765195.0924   16765202.5714
 96  7  9 20 14 59.9810000  0  5 16  6 24  5 17
  15474544.476   -38299017.69849 -29807065.70149  15474547.7784   15474554.3204
  14837408.855   -51306110.29649 -39945881.73949  14837414.2324   14837419.7134
  18593537.765   -13618909.97649 -10604801.73849  18593542.1154   18593549.6614
  17799134.055   -20968621.57749 -16327167.56149  17799139.3384   17799147.4524
  16739586.333   -28537753.22649 -21817600.87049  16739587.8244   16739594.6054
 96  7  9 20 15 29.9810000  0  5 16  6 24  5 17
  15467553.482   -38335755.99949 -29835692.95349  15467556.9194   15467562.9454
  14819665.095   -51399362.61749 -40018545.87749  14819668.7964   14819674.1064
  18597825.573   -13596387.07649 -10587251.46249  18597828.2854   18597833.9114
  17807974.948   -20922159.79849 -16290963.68649  17807980.9764   17807988.3244
  16713999.151   -28672191.88649 -21922358.24049  16714005.0614   16714012.2714
 96  7  9 20 15 59.9810000  0  5 16  6 24  5 17
  15460672.432   -38371908.16849 -29863863.46849  15460677.1434   15460683.7194
  14801978.585   -51492307.82049 -40090970.70149  14801982.1154   14801987.3314
  18602108.028   -13573879.80449 -10569713.38249  18602111.5684   18602118.3934
  17816846.443   -20875566.06149 -16254656.94549  17816848.8354   17816855.4844
  16688462.280   -28806399.83049 -22026935.82349  16688465.5544   16688472.9104
 96  7  9 20 16 29.9810000  0  6 16  6 24  5 17 23
  15453903.383   -38407494.23649 -29891592.87449  15453905.8584   15453911.9414
  14784342.399   -51584982.42249 -40163184.67749  14784346.6054   14784351.9754
  18606387.282   -13551382.35049 -10552182.89749  18606392.1554   18606400.2664
  17825733.709   -20828865.11949 -16218266.67549  17825734.6364   17825742.7644
  16662960.869   -28940400.39649 -22131351.80649  16662966.6704   16662972.8044
  19055120.962    -1669247.72059   -876210.93459  19055132.5074   19055140.7664
 96  7  9 20 16 59.9810000  0  6 16  6 24  5 17 23
  15447240.438   -38442500.61149 -29918870.56349  15447243.5794   15447249.8614
  14766761.331   -51677372.92049 -40235177.26749  14766765.3314   14766770.3334
  18610669.209   -13528867.38749 -10534638.80349  18610678.1924   18610685.7154
  17834638.909   -20782054.39149 -16181790.89849  17834644.2154   17834649.8624
  16637501.507   -29074186.91749 -22235601.01649  16637507.6114   16637514.4294
  19022756.244    -1839402.75349  -1008799.11849  19022752.5184   19022761.3584
 96  7  9 20 17 29.9810000  0  6 16  6 24  5 17 23
  15440690.591   -38476915.74949 -29945687.56049  15440695.0364   15440701.2754
  14749237.024   -51769462.00149 -40306934.98749  14749241.2674   14749246.2644
  18614965.755   -13506311.47849 -10517062.82249  18614970.6854   18614977.8884
  17843578.518   -20735106.19549 -16145207.96149  17843576.8864   17843583.7834
  16612089.769   -29207730.74849 -22339661.08849  16612095.0734   16612102.2804
  18990377.145    -2009514.76449  -1141353.78249  18990381.2124   18990390.1944
 96  7  9 20 17 59.9810000  0  6 16  6 24  5 17 23
  15434252.082   -38510755.59349 -29972056.26649  15434255.1714   15434261.8394
  14731772.932   -51861244.17849 -40378453.56449  14731775.9394   14731781.1114
  18619266.903   -13483723.94749 -10499462.19949  18619267.4284   18619274.7694
  17852533.400   -20688019.06949 -16108516.77349  17852537.1724   17852544.4014
  16586723.361   -29341028.80649 -22443529.66449  16586729.0974   16586735.8164
  18958020.049    -2179566.30749  -1273861.33949  18958021.5504   18958030.0234
 96  7  9 20 18 29.9800000  0  6 16  6 24  5 17 23
  15427922.265   -38544019.02849 -29997975.83449  15427925.8864   15427932.1814
  14714369.741   -51952694.85849 -40449713.83249  14714373.1224   14714378.3764
  18623561.282   -13461122.42149 -10481850.69349  18623569.1364   18623576.6354
  17861518.596   -20640804.90749 -16071726.61649  17861521.4724   17861529.0424
  16561408.262   -29474072.80149 -22547200.26049  16561412.0424   16561419.4784
  18925669.298    -2349542.56549  -1406310.24249  18925676.3604   18925684.7674
 96  7  9 20 18 59.9800000  0  6 16  6 24  5 17 23
  15421704.936   -38576693.23849 -30023436.24949  15421708.0614   15421714.1224
  14697037.975   -52043769.94049 -40520681.42049  14697041.8984   14697047.1024
  18627870.511   -13438500.24949 -10464223.09449  18627874.8774   18627881.6354
  17870531.455   -20593430.41849 -16034811.53849  17870538.1754   17870544.6184
  16536139.530   -29606843.81149 -22650658.15749  16536146.1854   16536152.1264
  18893346.314    -2519422.48749  -1538684.06649  18893348.9034   18893356.8554
 96  7  9 20 19 29.9800000  0  6 16  6 24  5 17 23
  15415596.372   -38608784.61449 -30048442.51449  15415601.2004   15415607.4784
  14679777.067   -52134473.27749 -40591359.33649  14679781.8724   14679787.1344
  18632175.038   -13415884.42549 -10446600.40049  18632177.9134   18632185.3264
  17879581.378   -20545896.09149 -15997771.87549  17879582.3724   17879591.2924
  16510930.061   -29739333.82849 -22753897.09849  16510934.4984   16510941.1704
  18861040.142    -2689199.26349  -1670977.51549  18861042.0404   18861050.1024
 96  7  9 20 19 59.9800000  0  6 16  6 24  5 17 23
  15409591.911   -38640341.56149 -30073032.34249  15409596.0494   15409602.2574
  14662578.055   -52224855.00649 -40661786.64949  14662582.8264   14662587.7104
  18636468.756   -13393325.16849 -10429021.80349  18636470.7404   18636478.1654
  17888640.819   -20498274.63349 -15960664.33549  17888644.2714   17888653.6434
  16485762.085   -29871593.90949 -22856956.85649  16485765.4274   16485772.5584
  18828744.120    -2858921.40449  -1803228.36349  18828744.0864   18828752.5754
 96  7  9 20 20 29.9800000  0  6 16  6 24  5 17 23
  15403691.336   -38671353.24849 -30097197.29049  15403694.8654   15403700.9264
  14645439.352   -52314928.30349 -40731973.63349  14645442.7714   14645447.7174
  18640749.957   -13370809.73449 -10411477.38649  18640755.0274   18640762.5194
  17897714.952   -20450569.09449 -15923491.29649  17897722.3304   17897730.1964
  16460638.106   -30003618.81049 -22959833.35949  16460642.5454   16460649.0034
  18796447.708    -3028587.18949  -1935435.32849  18796457.6244   18796466.8014
 96  7  9 20 20 59.9800000  0  6 16  6 24  5 17 23
  15397894.001   -38701818.07849 -30120936.11749  15397897.7234   15397903.9704
  14628356.129   -52404693.37149 -40801920.43149  14628360.7574   14628365.8714
  18645027.184   -13348318.53049 -10393951.81749  18645034.6884   18645043.1914
  17906816.163   -20402770.70149 -15886245.84549  17906818.5654   17906825.5604
  16435561.985   -30135399.51949 -23062519.59549  16435565.4724   16435572.3484
  18764177.113    -3198188.82949  -2067592.31549  18764183.8444   18764191.7654
 96  7  9 20 21 29.9800000  0  6 16  6 24  5 17 23
  15392196.772   -38731764.82949 -30144271.23949  15392199.2634   15392205.1444
  14611326.644   -52494186.51349 -40871655.34749  14611331.0204   14611335.9634
  18649302.284   -13325868.01549 -10376457.95249  18649307.9584   18649315.0854
  17915920.679   -20354928.48549 -15848966.31949  17915922.5114   17915929.4624
  16410525.463   -30266966.40949 -23165039.21849  16410528.8734   16410535.6814
  18731907.861    -3367755.61349  -2199722.14549  18731915.5564   18731925.2674
 96  7  9 20 21 59.9800000  0  6 16  6 24  5 17 23
  15386593.456   -38761204.65649 -30167211.36549  15386596.3944   15386602.9644
  14594347.932   -52583406.38349 -40941177.30349  14594352.8484   14594358.1724
  18653567.865   -13303452.07049 -10358991.00449  18653572.5464   18653580.2454
  17925025.977   -20307064.44749 -15811669.75749  17925030.8314   17925039.0414
  16385528.827   -30398328.29349 -23267399.09549  16385531.8224   16385537.7354
  18699649.079    -3537296.89349  -2331832.09849  18699652.9684   18699661.8384
 96  7  9 20 22 29.9800000  0  6 16  6 24  5 17 23
  15381085.454   -38790137.81049 -30189756.67949  15381091.0834   15381096.8464
  14577429.438   -52672322.89649 -41010462.89149  14577432.6504   14577437.7674
  18657824.049   -13281084.87049 -10341562.04449  18657829.6664   18657837.1394
  17934143.927   -20259167.93849 -15774347.90949  17934145.1494   17934154.1804
  16360567.990   -30529486.80449 -23369600.50549  16360572.6354   16360580.0304
  18667393.559    -3706815.82749  -2463924.64349  18667394.5424   18667403.4324
 96  7  9 20 22 59.9800000  0  6 16  6 24  5 17 23
  15375684.209   -38818534.77649 -30211884.17949  15375687.3014   15375693.4954
  14560576.449   -52760884.89149 -41079472.22549  14560579.8644   14560584.8944
  18662077.871   -13258749.51249 -10324157.94049  18662079.1084   18662086.5024
  17943267.734   -20211212.73149 -15736980.33049  17943271.2124   17943279.0814
  16335652.601   -30660423.55549 -23471629.09149  16335656.3094   16335663.6844
  18635142.123    -3876284.42149  -2595977.96649  18635144.9294   18635153.0984
 96  7  9 20 23 29.9800000  0  6 16  6 24  5 17 23
  15370381.995   -38846397.90949 -30233595.71249  15370384.7144   15370391.1924
  14543787.224   -52849114.92549 -41148222.89149  14543790.2644   14543795.3254
  18666309.875   -13236478.58249 -10306804.05349  18666316.3544   18666325.7154
  17952402.995   -20163209.00049 -15699574.91149  17952405.8204   17952413.8374
  16310774.628   -30791159.67249 -23573501.36949  16310778.0654   16310784.2894
  18602894.981    -4045726.51949  -2728010.65049  18602901.4904   18602910.4564
 96  7  9 20 23 59.9800000  0  6 16  6 24  5 17 23
  15365172.584   -38873769.52149 -30254924.24349  15365176.6724   15365182.4394
  14527047.487   -52937072.99149 -41216761.64449  14527052.4484   14527057.3104
  18670529.031   -13214322.06449 -10289539.26949  18670534.4054   18670541.4924
  17961542.354   -20115186.21849 -15662154.69149  17961544.1354   17961551.6604
  16285924.215   -30921745.74649 -23675256.71149  16285928.2284   16285935.2054
  18570645.992    -4215188.64949  -2860058.95049  18570653.8794   18570662.7874
 96  7  9 20 24 29.9800000  0  6 16  6 24  5 17 23
  15360041.828   -38900732.67149 -30275934.48449  15360045.3354   15360051.5404
  14510343.286   -53024863.31249 -41285169.67949  14510346.5644   14510351.5444
  18674709.246   -13192371.33249 -10272434.85949  18674710.6034   18674719.9584
  17970667.162   -20067222.77849 -15624780.67749  17970671.2534   17970679.9484
  16261083.772   -31052285.50549 -23776975.96849  16261087.2344   16261094.1034
  18538386.119    -4384759.24549  -2992191.76049  18538385.7524   18538394.4804
 96  7  9 20 24 59.9800000  0  6 16  6 24  5 17 23
  15355002.678   -38927218.17749 -30296572.54649  15355005.4664   15355011.5284
  14493675.598   -53112444.31549 -41353414.60549  14493680.1034   14493685.4714
  18678861.480   -13170540.86349 -10255424.14949  18678865.8664   18678874.1824
  17979800.115   -20019241.73349 -15587392.96349  17979803.0934   17979811.1224
  16236266.623   -31182692.91949 -23878592.10949  16236271.9524   16236278.0814
  18506104.513    -4554364.05549  -3124351.22449  18506110.9144   18506120.0484
 96  7  9 20 25 29.9800000  0  6 16  6 24  5 17 23
  15350050.495   -38953232.56149 -30316843.49649  15350054.7934   15350061.0674
  14477048.761   -53199828.68749 -41421506.31849  14477051.7434   14477056.7754
  18682995.392   -13148813.97149 -10238494.13349  18682998.9204   18683007.5504
  17988931.218   -19971233.15749 -15549983.75449  17988939.1694   17988946.3104
  16211479.084   -31312951.87349 -23980092.56049  16211483.9394   16211490.7434
  18473833.431    -4723994.54749  -3256530.69749  18473831.2674   18473840.3194
 96  7  9 20 25 59.9800000  0  6 16  6 24  5 17 23
  15345185.349   -38978805.86149 -30336770.74749  15345188.7854   15345195.0064
  14460458.047   -53287008.24849 -41489438.43149  14460462.0694   14460467.1554
  18687107.910   -13127196.77749 -10221649.59949  18687114.1254   18687122.4514
  17998072.073   -19923222.12449 -15512572.65949  17998075.1554   17998082.2294
  16186720.715   -31443065.48149 -24081479.75849  16186724.1874   16186730.8174
  18441544.336    -4893643.99749  -3388724.93049  18441548.3784   18441555.9394
 96  7  9 20 26 29.9800000  0  6 16  6 24  5 17 23
  15340418.750   -39003849.92549 -30356285.60449  15340422.7354   15340429.0884
  14443930.519   -53373861.41249 -41557116.22049  14443934.5054   14443939.1984
  18691215.900   -13105602.71549 -10204823.10549  18691221.8134   18691231.5694
  18007224.981   -19875123.41649 -15475093.22849  18007227.9404   18007236.7154
  16162007.208   -31572926.99649 -24182670.53049  16162012.4374   16162018.5354
  18409277.455    -5063193.76249  -3520841.48749  18409284.0484   18409292.6334
 96  7  9 20 26 59.9800000  0  6 16  6 24  5 17 23
  15335753.171   -39028371.52649 -30375393.34349  15335756.5314   15335762.9264
  14427468.052   -53460371.14549 -41624526.38849  14427472.0384   14427477.2064
  18695321.906   -13084034.49049 -10188016.74749  18695325.7934   18695332.9084
  18016389.764   -19826946.97049 -15437553.27049  18016394.9274   18016401.7914
  16137347.472   -31702525.87249 -24283656.63749  16137351.1254   16137357.6664
  18377034.364    -5232630.20049  -3652869.74349  18377041.2684   18377048.5044
 96  7  9 20 27 29.9800000  0  6 16  6 24  5 17 23
  15331182.915   -39052381.45849 -30394102.37849  15331187.3034   15331194.0994
  14411073.918   -53546524.61449 -41691658.95149  14411077.4794   14411082.4954
  18699418.565   -13062499.62249 -10171236.36449  18699423.7184   18699430.7344
  18025569.736   -19778720.28849 -15399974.14849  18025572.7354   18025581.0104
  16112729.965   -31831883.85449 -24384455.02949  16112734.8144   16112741.5374
  18344818.432    -5401957.90049  -3784813.25849  18344818.3974   18344826.8554
 96  7  9 20 27 59.9800000  0  6 16  6 24  5 17 23
  15326713.418   -39075879.32849 -30412412.41749  15326716.1324   15326722.3464
  14394748.569   -53632311.75349 -41758506.06449  14394752.6924   14394757.5654
  18703507.207   -13041014.40749 -10154494.71649  18703511.8624   18703521.3214
  18034751.473   -19730462.70149 -15362370.93349  18034755.5964   18034764.6864
  16088159.349   -31961010.37549 -24485073.08449  16088162.7304   16088169.0804
  18312613.518    -5571179.29149  -3916673.94249  18312616.6684   18312625.1904
 96  7  9 20 28 29.9800000  0  6 16  6 24  5 17 23
  15322332.954   -39098890.61549 -30430343.28449  15322337.1244   15322343.4834
  14378485.617   -53717779.28749 -41825104.14149  14378489.1524   14378493.8654
  18707584.085   -13019600.69749 -10137808.75249  18707588.0304   18707594.5304
  18043936.230   -19682204.25249 -15324767.04749  18043939.2084   18043946.7024
  16063620.244   -32089960.30349 -24585553.50849  16063624.1974   16063630.6754
  18280419.559    -5740345.86749  -4048491.91149  18280425.7534   18280433.0724
 96  7  9 20 28 59.9800000  0  6 16  6 24  5 17 23
  15318059.339   -39121367.85149 -30447858.01649  15318059.9804   15318066.4094
  14362288.446   -53802893.11249 -41891426.59549  14362292.2194   14362297.3724
  18711655.498   -12998203.15549 -10121135.40249  18711660.2564   18711666.9284
  18053129.883   -19633904.01849 -15287130.61749  18053130.3704   18053137.5324
  16039123.280   -32218691.52049 -24685863.53149  16039127.7244   16039133.7634
  18248245.818    -5909437.73649  -4180251.67549  18248248.7584   18248256.0374
 96  7  9 20 29 29.9800000  0  6 16  6 24  5 17 23
  15313876.252   -39143324.28249 -30464966.92249  15313881.4634   15313888.1354
  14346156.428   -53887676.69249 -41957491.71749  14346158.5384   14346163.6664
  18715722.879   -12976843.00649 -10104491.15049  18715726.9674   18715730.6104
  18062321.410   -19585583.52849 -15249478.37149  18062324.4484   18062334.6474
  16014664.046   -32347224.48549 -24786019.05249  16014668.5004   16014675.1164
  18216077.553    -6078483.92149  -4311975.85949  18216080.3144   18216087.4014
 96  7  9 20 29 59.9800000  0  6 16  6 24  5 17 23
  15309802.376   -39164744.92349 -30481658.33249  15309805.8474   15309812.0374
  14330084.272   -53972128.91149 -42023298.63549  14330087.7884   14330092.9244
  18719776.578   -12955516.00949 -10087872.73949  18719782.6924   18719790.0444
  18071520.511   -19537229.11049 -15211799.71449  18071526.2604   18071534.9154
  15990243.199   -32475556.33449 -24886017.87049  15990247.3924   15990254.2354
  18183923.779    -6247468.56149  -4443652.07849  18183923.1564   18183930.0414
 96  7  9 20 30 29.9800000  0  7 16  6 24  5 26 17 23
  15305818.458   -39185679.01149 -30497970.60549  15305822.2824   15305828.3864
  14314067.795   -54056293.24949 -42088881.22949  14314071.9924   14314076.7934
  18723817.891   -12934259.91849 -10071309.61349  18723826.3004   18723836.1604
  18080727.849   -19488888.43549 -15174131.76549  18080725.2974   18080734.6364
  18362525.487     -353470.85019   -238183.13759                  18362533.7554
  15965852.745   -32603735.02049 -24985897.34549  15965856.0354   15965862.9104
  18151765.999    -6416436.34149  -4575315.14949  18151769.5524   18151777.7124
 96  7  9 20 30 59.9790000  0  6 16  6  5 26 17 23
  15301929.205   -39206116.59349 -30513895.99149  15301932.6334   15301939.3234
  14298110.496   -54140149.75649 -42154223.95949  14298114.4324   14298119.5854
  18089922.877   -19440560.44849 -15136473.68649  18089922.3844   18089931.6204
  18334500.053     -500732.27459   -352932.27049  18334501.5664   18334510.0944
  15941499.282   -32731715.29249 -25085622.20049  15941502.1754   15941508.9534
  18119624.592    -6585353.47649  -4706938.73349  18119625.0824   18119632.9314
 96  7  9 20 31 29.9790000  0  6 16  6  5 26 17 23
  15298130.097   -39226084.71549 -30529455.56949  15298133.1604   15298139.0904
  14282208.772   -54223709.69449 -42219335.59349  14282213.2164   14282218.4734
  18099113.483   -19392251.78049 -15098830.67649  18099116.4564   18099124.3184
  18306465.646     -648019.80649   -467701.60659  18306474.1054   18306482.3644
  15917176.606   -32859524.38549 -25185213.68049  15917180.8044   15917187.3884
  18087482.612    -6754230.98649  -4838531.46349  18087488.9634   18087496.7384
 96  7  9 20 31 59.9790000  0  6 16  6  5 26 17 23
  15294427.016   -39245541.25049 -30544616.49749  15294430.1754   15294436.8174
  14266378.699   -54306903.03949 -42284161.57549  14266382.2614   14266387.2014
  18108311.025   -19343902.26749 -15061155.84449  18108316.2294   18108324.6094
  18278450.088     -795273.09159   -582444.35649  18278453.0954   18278460.8544
  15892900.789   -32987093.43149 -25284618.09349  15892905.0924   15892911.8784
  18055371.563    -6922993.56449  -4970034.65149  18055374.6844   18055382.2554
 96  7  9 20 32 29.9790000  0  6 16  6  5 26 17 23
  15290826.547   -39264471.68549 -30559367.49049  15290828.1774   15290834.3554
  14250623.035   -54389698.25649 -42348677.32349  14250626.8764   14250631.9044
  18117529.663   -19295480.90349 -15023425.03849  18117530.9864   18117540.6434
  18250441.416     -942440.79149   -697120.36349  18250447.8954   18250455.7704
  15868681.947   -33114370.57149 -25383795.06949  15868685.5644   15868691.3314
  18023282.960    -7091610.98049  -5101424.76049  18023287.2844   18023295.0684
 96  7  9 20 32 59.9790000  0  6 16  6  5 26 17 23
  15287355.395   -39282700.90349 -30573572.06849  15287359.4724   15287365.9864
  14234976.493   -54471926.41249 -42412751.20949  14234979.7324   14234984.6004
  18126789.546   -19246809.69449 -14985499.54249  18126791.8764   18126800.0934
  18222496.566    -1089321.84349   -811573.04949  18222498.1384   18222505.2424
  15844553.530   -33241167.30949 -25482597.69249  15844556.9804   15844563.6454
  17991257.201    -7259899.34449  -5232558.45949  17991261.8324   17991271.7314
 96  7  9 20 33 29.9790000  0  6 16  6  5 26 17 23
  15283974.220   -39300472.51549 -30587420.08349  15283977.6344   15283983.2764
  14219390.092   -54553823.10649 -42476566.80849  14219394.8874   14219399.9624
  18136054.080   -19198127.51649 -14947565.48549  18136057.5594   18136065.3854
  18194556.162    -1236162.96049   -925994.59749  18194553.8164   18194562.6824
  15820465.830   -33367748.06149 -25581232.01249  15820468.7664   15820475.6764
  17959254.143    -7428097.06349  -5363621.49849  17959255.4354   17959263.4064
 96  7  9 20 33 59.9790000  0  6 16  6  5 26 17 23
  15280672.994   -39317821.30249 -30600938.60449  15280675.6524   15280682.2594
  14203859.873   -54635440.45449 -42540164.74249  14203863.9034   14203868.5384
  18145308.161   -19149493.76949 -14909669.17349  18145312.3854   18145319.8734
  18166599.833    -1383013.61449  -1040423.58149  18166609.8374   18166617.9944
  15796410.061   -33494158.63349 -25679733.73149  15796414.1804   15796419.9994
  17927252.570    -7596247.07749  -5494647.39549  17927257.9344   17927266.3854
 96  7  9 20 34 29.9790000  0  6 16  6  5 26 17 23
  15277452.042   -39334746.54949 -30614127.12049  15277455.5184   15277461.4844
  14188379.025   -54716793.89949 -42603557.03349  14188382.7144   14188387.5314
  18154554.511   -19100915.14049 -14871815.81249  18154556.3304   18154564.4764
  18138661.695    -1529878.08949  -1154863.33549  18138662.9554   18138670.1484
  15772381.427   -33620423.48149 -25778121.89449  15772386.2104   15772393.6004
  17895259.529    -7764367.57049  -5625650.29149  17895265.2704   17895273.5434
 96  7  9 20 34 59.9790000  0  6 16  6  5 26 17 23
  15274328.547   -39351160.21949 -30626916.99149  15274332.1394   15274338.0064
  14172961.757   -54797807.83949 -42666684.77949  14172966.1344   14172971.1334
  18163800.464   -19052327.82349 -14833955.68649  18163802.1704   18163810.0124
  18110721.651    -1676693.55649  -1269264.89349  18110724.3054   18110732.2844
  15748391.904   -33746501.00549 -25876364.08449  15748395.4174   15748400.7634
  17863289.697    -7932392.10549  -5756578.39149  17863291.7584   17863299.6384
 96  7  9 20 35 29.9790000  0  6 16  6  5 26 17 23
  15271299.493   -39367069.92449 -30639314.16349  15271304.2134   15271310.2314
  14157610.774   -54878476.49949 -42729543.47849  14157615.6074   14157620.3414
  18173047.230   -19003735.85849 -14796091.94949  18173048.4404   18173056.4364
  18082788.290    -1823465.89949  -1383632.86749  18082794.8304   18082801.8054
  15724431.419   -33872409.52749 -25974474.59849  15724434.7594   15724441.1724
  17831329.254    -8100328.79149  -5887438.05749  17831334.5264   17831342.4574
 96  7  9 20 35 59.9790000  0  6 16  6  5 26 17 23
  15268370.775   -39382477.06049 -30651319.72549  15268372.5874   15268378.7264
  14142326.324   -54958809.23049 -42792140.40749  14142329.1574   14142333.7974
  18182287.826   -18955150.22749 -14758233.13249  18182292.9624   18182302.1004
  18054875.604    -1970177.84649  -1497953.76549  18054875.7854   18054884.0774
  15700504.000   -33998140.42949 -26072446.69649  15700509.6504   15700515.9824
  17799387.921    -8268185.48749  -6018235.39549  17799391.7504   17799399.9694
 96  7  9 20 36 29.9790000  0  7 16  6  5 26 17 23 22
  15265532.589   -39397381.20049 -30662933.34349  15265536.4534   15265542.7254
  14127103.841   -55038803.52049 -42854473.62449  14127106.7024   14127111.4804
  18191537.198   -18906571.42149 -14720379.65749  18191538.8824   18191546.0024
  18026966.641    -2116820.10749  -1612220.41349  18026971.7914   18026977.6544
  15676617.452   -34123673.53249 -26170264.66149  15676621.6234   15676627.2194
  17767461.337    -8435960.12249  -6148968.77449  17767465.2214   17767473.4774
  18429312.087    -4068360.45059  -3132808.31959  18429311.3364   18429320.1934
 96  7  9 20 36 59.9790000  0  7 16  6  5 26 17 23 22
  15262789.937   -39411791.50649 -30674162.15949  15262794.0564   15262800.3614
  14111943.138   -55118467.14449 -42916549.17849  14111946.8324   14111952.1014
  18200776.130   -18858021.45549 -14682548.63949  18200777.5354   18200785.2014
  17999074.850    -2263389.03949  -1726429.85949  17999079.3484   17999087.3704
  15652769.820   -34248988.64149 -26267912.76649  15652774.4784   15652780.9014
  17735550.972    -8603654.19549  -6279639.40249  17735555.3084   17735562.4124
  18401558.573    -4214184.86249  -3246437.68049  18401563.0574   18401568.7844
 96  7  9 20 37 29.9790000  0  7 16  6  5 26 17 23 22
  15260144.362   -39425701.88449 -30685001.42249  15260147.3644   15260153.3284
  14096849.478   -55197785.52849 -42978355.70849  14096852.9104   14096857.9834
  18210011.304   -18809476.17349 -14644721.28049  18210014.6314   18210022.5604
  17971203.256    -2409857.35849  -1840560.93849  17971207.8584   17971216.1184
  15628974.087   -34374038.00349 -26365353.79549  15628978.7974   15628984.8084
  17703662.334    -8771243.94349  -6410228.73249  17703663.8994   17703670.9474
  18373867.138    -4359714.17549  -3359837.07249  18373870.5464   18373876.1544
 96  7  9 20 37 59.9790000  0  7 16  6  5 26 17 23 22
  15257590.375   -39439117.11349 -30695454.84349  15257594.2404   15257600.5984
  14081818.573   -55276768.94249 -43039901.21949  14081823.1464   14081828.0194
  18219243.837   -18760937.93149 -14606899.39949  18219252.5014   18219260.2934
  17943349.766    -2556228.55949  -1954616.31949  17943353.4704   17943361.3214
  15605229.097   -34498809.50649 -26462578.30449  15605235.1654   15605241.4714
  17671790.583    -8938728.30749  -6540735.92649  17671792.6354   17671798.6784
  18346228.311    -4504954.85049  -3473011.64549  18346230.5944   18346238.3384
 96  7  9 20 38 29.9790000  0  7 16  6  5 26 17 23 22
  15255133.340   -39452034.16949 -30705520.08449  15255136.5294   15255141.9854
  14066857.766   -55355391.87149 -43101165.83849  14066861.6344   14066866.5964
  18228491.927   -18712382.22949 -14569063.91149  18228493.2254   18228500.2204
  17915516.428    -2702488.41049  -2068584.93449  17915521.1814   17915529.0334
  15581544.359   -34623286.64649 -26559573.45949  15581548.2014   15581554.0934
  17639941.054    -9106083.41249  -6671142.42249  17639946.1254   17639952.9364
  18318649.324    -4649884.73149  -3585943.99349  18318652.7824   18318659.8514
 96  7  9 20 38 59.9790000  0  7 16  6  5 26 17 23 22
  15252775.735   -39464425.25549 -30715175.47249  15252778.6094   15252784.9094
  14051973.074   -55433608.81749 -43162114.10249  14051977.3774   14051982.4104
  18237739.934   -18663772.68249 -14531186.45549  18237742.2704   18237750.0204
  17887717.922    -2848588.88849  -2182429.33549  17887719.1914   17887727.0534
  15557914.962   -34747454.16449 -26656327.33049  15557919.3074   15557925.2264
  17608131.788    -9273267.91949  -6801415.98149  17608131.1334   17608138.7754
  18291137.613    -4794460.98449  -3698600.76049  18291140.1414   18291147.8694
 96  7  9 20 39 29.9790000  0  7 16  6  5 26 17 23 22
  15250513.282   -39476315.01849 -30724440.23449  15250515.4614   15250521.7264
  14037165.938   -55511421.96849 -43222747.73149  14037169.9274   14037175.0864
  18246988.479   -18615137.53349 -14493289.04549  18246996.2834   18247005.8544
  17859937.419    -2994548.90049  -2296164.28849  17859944.1644   17859951.5204
  15534338.871   -34871349.63149 -26752869.23049  15534343.1654   15534349.6064
  17576345.859    -9440287.11349  -6931560.70949  17576347.5824   17576355.9434
  18263689.670    -4938704.41249  -3810998.19249  18263692.1574   18263697.6794
 96  7  9 20 39 59.9790000  0  7 16  6  5 26 17 23 22
  15248350.709   -39487670.94149 -30733289.01349  15248354.6214   15248361.0164
  14022445.881   -55588778.42249 -43283025.48649  14022449.5134   14022454.6414
  18256264.540   -18566448.86549 -14455349.97949  18256262.4134   18256271.6024
  17832197.777    -3140325.86349  -2409756.61349  17832203.4254   17832211.8654
  15510819.842   -34994935.13649 -26849169.57849  15510825.5264   15510832.2764
  17544601.848    -9607090.75249  -7061537.45149  17544606.6454   17544614.5874
  18236312.607    -5082559.16149  -3923092.77549  18236316.5514   18236323.4864
 96  7  9 20 40 29.9790000  0  7 16  6  5 26 17 23 22
  15246277.416   -39498568.35149 -30741780.49549  15246281.3404   15246286.8754
  14007797.801   -55665749.07149 -43343002.61349  14007802.2404   14007807.5684
  18265516.482   -18517799.57149 -14417441.60949  18265520.0414   18265529.1094
  17804476.831    -3285993.73849  -2523263.90749  17804483.8774   17804490.6014
  15487346.666   -35118299.87249 -26945297.92449  15487350.3924   15487356.0034
  17512887.826    -9773754.41649  -7191405.13249  17512892.6374   17512898.7724
  18209002.508    -5226083.56549  -4034929.90449  18209005.1884   18209011.9504
 96  7  9 20 40 59.9790000  0  7 16  6  5 26 17 23 22
  15244310.974   -39508907.22849 -30749836.76849  15244314.2354   15244319.8184
  13993243.683   -55742235.80349 -43402602.65949  13993247.7184   13993252.7114
  18274783.399   -18469097.60249 -14379492.14949  18274787.9664   18274796.3674
  17776798.378    -3431458.24849  -2636612.75749  17776802.8434   17776809.5804
  15463929.037   -35241350.86649 -27041181.76949  15463933.7704   15463939.7554
  17481220.537    -9940178.89449  -7321086.42249  17481221.6964   17481229.0534
  18181774.022    -5369170.18049  -4146425.94849  18181776.7364   18181783.2584
 96  7  9 20 41 29.9790000  0  7 16  6  5 26 17 23 22
  15242448.744   -39518688.30549 -30757458.38949  15242452.2274   15242458.1794
  13978780.323   -55818241.98349 -43461828.25249  13978784.2394   13978789.4734
  18284064.128   -18420326.25049 -14341488.63549  18284071.1374   18284077.0724
  17749154.247    -3576726.26949  -2749808.51049  17749158.5134   17749166.8944
  15440576.810   -35364079.00649 -27136814.06049  15440580.0154   15440586.3644
  17449596.586   -10106358.78749  -7450577.14149  17449598.1184   17449607.1214
  18154630.751    -5511809.86249  -4257573.74549  18154633.7574   18154639.2904
 96  7  9 20 41 59.9790000  0  7 16  6  5 26 17 23 22
  15240684.193   -39527965.97349 -30764687.74349  15240687.1324   15240692.9824
  13964394.484   -55893839.27749 -43520735.22949  13964398.7004   13964403.7804
  18293353.125   -18371527.78549 -14303464.01649  18293354.6404   18293363.5434
  17721535.163    -3721851.35649  -2862892.86349  17721542.4674   17721550.3274
  15417270.518   -35486545.61449 -27232242.55349  15417274.9394   15417280.9124
  17418006.663   -10272358.24849  -7579927.25949  17418010.4504   17418016.7634
  18127563.416    -5654052.86249  -4368412.43149  18127566.6764   18127572.1604
 96  7  9 20 42 29.9790000  0  7 16  6  5 26 17 23 22
  15239018.894   -39536707.68249 -30771499.47749  15239023.2884   15239029.1784
  13950090.107   -55969015.30049 -43579313.95049  13950093.2704   13950097.8644
  18302648.256   -18322674.06949 -14265396.33549  18302652.3374   18302661.1594
  17693955.291    -3866807.34849  -2975845.46449  17693958.9954   17693965.8224
  15394017.307   -35608747.87149 -27327465.06749  15394021.0484   15394027.2194
  17386457.370   -10438154.36549  -7709118.93549  17386460.5464   17386466.5684
  18100572.158    -5795891.60749  -4478936.11849  18100573.4384   18100581.0544
 96  7  9 20 42 59.9790000  0  7 16  6  5 26 17 23 22
  15237449.007   -39544959.98249 -30777929.82949  15237453.1844   15237459.3794
  13935856.612   -56043804.90049 -43637591.56749  13935860.9614   13935865.8994
  18311951.073   -18273791.58749 -14227306.23449  18311955.4474   18311961.6724
  17666398.425    -4011621.83349  -3088687.82649  17666400.3274   17666408.1384
  15370806.967   -35730713.87949 -27422503.48049  15370811.6384   15370817.8874
  17354933.058   -10603786.10649  -7838182.53149  17354941.9364   17354948.6754
  18073647.147    -5937376.63449  -4589184.13149  18073650.3494   18073658.8474
 96  7  9 20 43 29.9780000  0  7 16  6  5 26 17 23 22
  15235989.772   -39552635.57649 -30783910.81849  15235992.6894   15235998.7114
  13921713.599   -56118131.64949 -43695508.50749  13921717.1174   13921721.9764
  18321273.515   -18224807.91849 -14189137.22549  18321275.1744   18321283.3354
  17638888.237    -4156195.72649  -3201342.68049  17638888.7674   17638896.9094
  15347659.743   -35852353.73749 -27517287.76449  15347664.1524   15347670.4014
  17323468.156   -10769164.51249  -7967048.71849  17323470.3594   17323477.4674
  18046802.619    -6078440.35349  -4699103.88849  18046804.7214   18046813.7264
 96  7  9 20 43 59.9780000  0  7 16  6  5 26 17 23 22
  15234616.657   -39559848.23249 -30789531.08049  15234619.9964   15234625.8114
  13907634.142   -56192118.68149 -43753160.73749  13907637.8814   13907642.7514
  18330585.428   -18175856.93549 -14150993.72349  18330591.2834   18330598.6104
  17611397.152    -4300647.07849  -3313902.07349  17611401.1294   17611407.7474
  15324551.916   -35973788.87249 -27611912.51049  15324555.5184   15324561.9474
  17292023.802   -10934418.15249  -8095817.67749  17292024.5484   17292032.1004
  18020016.098    -6219210.30649  -4808794.72449  18020018.7534   18020026.9244
 96  7  9 20 44 29.9780000  0  6 16  6 26 17 23 22
  15233365.308   -39566422.32649 -30794653.75349  15233368.9684   15233375.2404
  13893655.543   -56265573.69049 -43810398.40549  13893659.9444   13893664.6874
  17583961.152    -4444780.87849  -3426214.01649  17583972.8874   17583981.2034
  15301519.437   -36094825.65249 -27706226.86349  15301522.7594   15301529.0714
  17260632.860   -11099356.41449  -8224340.88949  17260637.2854   17260644.6864
  17993320.219    -6359492.10049  -4918105.17449  17993325.5424   17993330.5364
 96  7  9 20 44 59.9780000  0  6 16  6 26 17 23 22
  15232213.588   -39572477.69749 -30799372.22849  15232216.5964   15232223.1464
  13879758.808   -56338599.63949 -43867301.74049  13879763.2604   13879768.1884
  17556585.609    -4588712.18049  -3538368.16449  17556584.7964   17556590.6314
  15278542.575   -36215566.36649 -27800310.50849  15278547.0524   15278553.7104
  17229283.321   -11264098.41749  -8352711.19049  17229287.7684   17229295.5464
  17966699.545    -6499391.34449  -5027117.53349  17966701.0854   17966710.1684
 96  7  9 20 45 29.9780000  0  6 16  6 26 17 23 22
  15231165.539   -39577982.17449 -30803661.43549  15231169.3884   15231175.3804
  13865950.762   -56411164.47549 -43923845.76349  13865954.6174   13865959.4664
  17529234.792    -4732418.71249  -3650347.17549  17529237.7264   17529245.2304
  15255626.222   -36335993.95849 -27894150.16849  15255629.9594   15255636.7814
  17197982.055   -11428608.62749  -8480900.87649  17197982.9974   17197990.6934
  17940159.118    -6638858.28949  -5135793.00349  17940162.3144   17940170.9884
 96  7  9 20 45 59.9780000  0  6 16  6 26 17 23 22
  15230193.662   -39583080.71249 -30807634.33249  15230198.9054   15230205.4144
  13852210.496   -56483369.80149 -43980109.65349  13852214.6644   13852219.7944
  17501903.443    -4876027.88749  -3762250.31449  17501908.0414   17501915.6894
  15232744.274   -36456238.51449 -27987847.20349  15232749.0994   15232755.4574
  17166693.116   -11593015.62149  -8609010.13249  17166697.3484   17166703.8554
  17913682.422    -6777995.37749  -5244211.45849  17913686.0014   17913692.6924
 96  7  9 20 46 29.9780000  0  6 16  6 26 17 23 22
  15229309.800   -39587727.47249 -30811255.18849  15229314.6954   15229320.7164
  13838550.342   -56555146.38549 -44036039.44949  13838555.6144   13838560.8924
  17474606.651    -5019486.99349  -3874036.53249  17474609.7954   17474616.0174
  15209908.377   -36576238.04149 -28081353.28849  15209912.9654   15209919.2374
  17135432.898   -11757268.21249  -8736999.08449  17135440.2994   17135447.9714
  17887278.262    -6916757.94749  -5352338.14449  17887280.4834   17887287.2144
 96  7  9 20 46 59.9780000  0  6 16  6 26 17 23 22
  15228538.393   -39591792.92049 -30814423.07149  15228541.7614   15228547.3584
  13824999.031   -56626365.91649 -44091535.19149  13825003.2604   13825008.1834
  17447353.617    -5162673.41749  -3985610.26549  17447362.3924   17447368.7184
  15187149.619   -36695847.08249 -28174555.13349  15187152.7584   15187158.7594
  17104240.167   -11921230.80249  -8864762.04849  17104239.3734   17104246.5574
  17860963.702    -7055031.07349  -5460083.37649  17860967.3504   17860974.5444
 96  7  9 20 47 29.9780000  0  6 16  6 26 17 23 22
  15227825.310   -39595531.20849 -30817336.03649  15227829.5904   15227836.1394
  13811501.134   -56697296.98849 -44146806.15649  13811505.4474   13811510.3504
  17420114.676    -5305834.27249  -4097164.10849  17420119.9674   17420126.5804
  15164413.503   -36815319.00149 -28267650.08949  15164417.8334   15164423.6734
  17073041.777   -12085147.98049  -8992489.64149  17073046.4524   17073054.1264
  17834693.588    -7193081.39049  -5567655.01249  17834698.2254   17834703.1974
 96  7  9 20 47 59.9780000  0  6 16  6 26 17 23 22
  15227221.230   -39598701.56849 -30819806.45749  15227226.3644   15227232.3704
  13798103.696   -56767706.43449 -44201670.66949  13798107.3984   13798112.0444
  17392924.541    -5448727.20449  -4208509.13249  17392927.1534   17392934.6114
  15141753.931   -36934396.51049 -28360437.74749  15141757.8854   15141764.0464
  17041904.874   -12248776.01649  -9119991.94149  17041909.5074   17041916.4114
  17808508.267    -7330681.54749  -5674875.88549  17808513.2714   17808519.6444
 96  7  9 20 48 29.9780000  0  6 16  6 26 17 23 22
  15226749.406   -39601194.33549 -30821748.87249  15226752.2334   15226758.2734
  13784816.900   -56837529.38549 -44256078.16449  13784820.1884   13784825.1534
  17365799.849    -5591249.64649  -4319565.49349  17365806.6204   17365813.3194
  15119188.246   -37052979.88049 -28452840.34149  15119192.2424   15119198.7194
  17010844.413   -12412012.17249  -9247188.86449  17010846.1934   17010853.5344
  17782427.139    -7467739.66549  -5781674.38049  17782430.3794   17782437.7594
 96  7  9 20 48 59.9780000  0  6 16  6 26 17 23 22
  15226377.348   -39603141.02549 -30823265.78749  15226381.7914   15226388.0814
  13771611.566   -56906913.59049 -44310143.77649  13771616.5274   13771621.8784
  17338729.763    -5733527.60449  -4430431.36849  17338730.6464   17338738.3084
  15096684.352   -37171233.23349 -28544985.79649  15096688.9794   15096695.7154
  16979831.952   -12574978.43649  -9374175.47749  16979835.2054   16979842.0954
  17756430.738    -7604376.84749  -5888144.91849  17756431.4104   17756438.1574
 96  7  9 20 49 29.9780000  0  6 16  6 26 17 23 22
  15226101.648   -39604597.72249 -30824400.87849  15226104.9034   15226111.1654
  13758482.322   -56975907.55049 -44363905.30649  13758487.4314   13758492.7774
  17311688.782    -5875607.16649  -4541142.64349  17311694.1934   17311701.1934
  15074230.975   -37289235.21949 -28636935.37249  15074234.7174   15074240.3404
  16948861.596   -12737734.98449  -9500998.67649  16948863.3284   16948869.7714
  17730499.083    -7740630.27849  -5994316.37149  17730503.1674   17730508.9084
 96  7  9 20 49 59.9780000  0  6 16  6 26 17 23 22
  15225909.053   -39605605.30249 -30825186.00949  15225912.4244   15225919.3954
  13745425.713   -57044526.26249 -44417374.43149  13745429.8334   13745434.8924
  17284686.823    -6017512.54749  -4651718.17549  17284690.2914   17284697.5784
  15051815.130   -37407026.16649 -28728720.50249  15051819.7224   15051825.8174
  16917922.707   -12900312.35349  -9627682.25649  16917926.1134   16917933.4024
  17704640.541    -7876512.13549  -6100198.32649  17704644.9784   17704650.7714
 96  7  9 20 50 29.9780000  0  6 16  6 26 17 23 22
  15225786.891   -39606239.85149 -30825680.48749  15225791.7074   15225798.1434
  13732428.562   -57112831.37849 -44470599.19949  13732432.1324   13732437.0444
  17257709.978    -6159303.42649  -4762204.47449  17257708.8514   17257716.1194
  15029424.645   -37524696.38149 -28820411.55849  15029427.4644   15029433.5854
  16887006.149   -13062785.42249  -9754284.57549  16887007.9784   16887015.4334
  17678843.090    -8012093.57749  -6205846.17349  17678844.4494   17678850.6184
 96  7  9 20 50 59.9780000  0  6 16  6 26 17 23 22
  15225746.257   -39606469.88549 -30825859.74049  15225748.3394   15225754.0524
  13719504.896   -57180750.95949 -44523523.55249  13719507.5054   13719512.2344
  17230754.867    -6300929.56949  -4872562.45749  17230758.3404   17230763.3554
  15007065.937   -37642190.79549 -28911965.62849  15007069.1094   15007075.4284
  16856113.844   -13225113.07549  -9880773.56749  16856117.9074   16856125.8764
  17653107.815    -8147320.38149  -6311217.61749  17653111.3584   17653118.6404
 96  7  9 20 51 29.9780000  0  6 16  6 26 17 23 22
  15225777.669   -39606303.17249 -30825729.84749  15225780.3624   15225786.1964
  13706653.903   -57248266.97349 -44576133.43249  13706659.7424   13706664.6044
  17203826.397    -6442395.60849  -4982795.61949  17203837.2934   17203845.4374
  14984744.799   -37759478.48349 -29003358.60349  14984749.8024   14984755.5474
  16825251.487   -13387302.82549 -10007155.10049  16825255.0954   16825261.1644
  17627447.093    -8282180.78949  -6416303.63949  17627448.6254   17627455.3654
 96  7  9 20 51 59.9780000  0  6 16  6 26 17 23 22
  15225878.254   -39605764.51949 -30825310.12149  15225882.7564   15225888.2444
  13693881.733   -57315395.44249 -44628441.32949  13693885.2984   13693890.3864
  17176942.534    -6583701.61049  -5092904.12949  17176948.9894   17176953.9414
  14962465.783   -37876555.12649 -29094587.13549  14962470.7074   14962476.9644
  16794413.791   -13549360.55449 -10133433.77449  16794415.4854   16794422.5754
  17601852.268    -8416674.58349  -6521103.91849  17601855.1894   17601861.5584
 96  7  9 20 52 29.9780000  0  7 16  6 26 17 23 28 22
  15226049.909   -39604869.38649 -30824612.61949  15226052.9724   15226059.3914
  13681176.705   -57382154.95149 -44680461.72949  13681181.3394   13681186.3474
  17150075.090    -6724862.95649  -5202899.91149  17150086.6934   17150094.2164
  14940226.830   -37993422.70649 -29185652.76249  14940231.9284   14940238.0124
  16763593.771   -13711298.31249 -10259618.96049  16763600.0664   16763606.1414
  18180443.302    -2178800.23519  -1677461.19319  18180444.732    18180450.322
  17576325.136    -8550816.71349  -6625630.21249  17576328.0264   17576334.8734
 96  7  9 20 52 59.9780000  0  7 16  6 26 17 23 28 22
  15226278.751   -39603648.63949 -30823661.40749  15226284.9364   15226291.5174
  13668536.061   -57448584.33449 -44732224.88449  13668540.1764   13668545.2904
  17123249.509    -6865912.35649  -5312808.44949  17123247.0484   17123252.9114
  14918024.078   -38110107.95149 -29276576.31249  14918027.2134   14918033.8124
  16732801.152   -13873130.39349 -10385721.80549  16732804.3494   16732812.0224
  18149514.731    -2341315.589 9  -1804096.505 9  18149519.164    18149525.251
  17550861.719    -8684627.46459  -6729898.34649  17550864.6014   17550870.6934
 96  7  9 20 53 29.9780000  0  7 16  6 26 17 23 28 22
  15226597.582   -39601992.20749 -30822370.69349  15226600.5134   15226606.6474
  13655975.359   -57514591.58349 -44783659.10649  13655979.6504   13655984.5204
  17096446.775    -7006741.17849  -5422545.13049  17096447.0534   17096453.5044
  14895868.357   -38226525.04749 -29367290.90449  14895873.6664   14895880.0924
  16702048.847   -14034733.95849 -10511646.57049  16702051.5674   16702059.2224
  18118584.967    -2503848.206 9  -1930745.188 9  18118587.993    18118596.504
  17525480.678    -8818011.29549  -6833833.79249  17525482.6364   17525487.1654
 96  7  9 20 53 59.9780000  0  7 16  6 26 17 23 28 22
  15227006.960   -39599840.13849 -30820693.76649  15227009.9954   15227015.8574
  13643504.112   -57580127.49549 -44834726.05649  13643508.2614   13643513.3124
  17069702.186    -7147283.93749  -5532058.89649  17069702.2534   17069709.0444
  14873773.829   -38342633.23749 -29457764.80649  14873779.2044   14873785.4724
  16671353.216   -14196043.79549 -10637342.46349  16671355.4284   16671363.1194
  18087664.987    -2666348.092 9  -2057368.404 9  18087667.722    18087672.941
  17500186.147    -8950933.37749  -6937409.42149  17500187.8594   17500194.5784
 96  7  9 20 54 29.9780000  0  7 16  6 26 17 23 28 22
  15227529.776   -39597091.71249 -30818552.14449  15227532.9004   15227539.4054
  13631139.032   -57645104.91349 -44885357.81349  13631143.7154   13631148.8354
  17043021.178    -7287470.51049  -5641295.11149  17043026.0284   17043032.2764
  14851753.693   -38458352.08449 -29547935.31549  14851758.8954   14851764.7204
  16640728.481   -14356969.42349 -10762738.99549  16640732.9194   16640740.5484
  18056764.585    -2828727.904 9  -2183898.104 9  18056767.506    18056773.577
  17474994.100    -9083325.90049  -7040572.43049  17474996.2584   17475001.8514
 96  7  9 20 54 59.9780000  0  7 16  6 26 17 23 28 22
  15228144.139   -39593864.71549 -30816037.62449  15228147.1094   15228153.4304
  13618856.958   -57709649.83649 -44935652.56149  13618861.3044   13618866.3914
  17016385.633    -7427411.62249  -5750340.04649  17016395.3644   17016401.9204
  14829787.839   -38573795.53249 -29637891.22749  14829790.6484   14829797.1654
  16610155.683   -14517634.94749 -10887932.84249  16610159.3944   16610165.5574
  18025863.278    -2991100.005 9  -2310421.736 9  18025869.442    18025875.258
  17449877.039    -9215306.11349  -7143414.11349  17449880.2294   17449886.6784
 96  7  9 20 55 29.9780000  0  7 16  6 26 17 23 28 22
  15228840.329   -39590205.89649 -30813186.61149  15228843.3694   15228849.3054
  13606650.897   -57773797.58249 -44985637.82549  13606654.4564   13606659.4824
  16989803.405    -7567151.27649  -5859228.01249  16989804.3294   16989811.0334
  14807862.722   -38688994.47749 -29727656.61749  14807868.4024   14807874.4404
  16579620.757   -14678098.53349 -11012969.32249  16579623.9184   16579631.1164
  17994963.752    -3153501.567 9  -2436968.343 9  17994965.521    17994971.076
  17424832.807    -9346923.67849  -7245973.20049  17424833.8634   17424841.7844
 96  7  9 20 55 59.9770000  0  7 16  6 26 17 23 28 22
  15229615.366   -39586122.69449 -30810004.90649  15229620.2844   15229626.4084
  13594519.105   -57837547.06249 -45035312.74749  13594523.1984   13594528.4074
  16963247.583    -7706697.54249  -5967965.28049  16963249.2824   16963255.6254
  14785993.661   -38803927.82949 -29817215.05549  14785997.5884   14786004.0474
  16549122.032   -14838365.57049 -11137852.65649  16549125.5854   16549132.2544
  17964054.561    -3315917.688 9  -2563526.353 9  17964057.888    17964064.012
  17399855.851    -9478170.52649  -7348243.41649  17399859.6234   17399865.6764
 96  7  9 20 56 29.9770000  0  7 16  6 26 17 23 28 22
  15230469.349   -39581645.44749 -30806516.14549  15230472.7014   15230478.1704
  13582456.244   -57900935.13349 -45084706.05449  13582460.7504   13582465.8274
  16936722.308    -7846085.96249  -6076579.56049  16936725.2814   16936730.9344
  14764164.492   -38918633.86649 -29906596.35849  14764169.6874   14764175.6234
  16518654.414   -14998480.41149 -11262617.39549  16518656.9874   16518663.3364
  17933140.472    -3478379.401 9  -2690119.843 9  17933143.387    17933148.926
  17374948.879    -9609068.69449  -7450241.94849  17374949.6524   17374954.6524
 96  7  9 20 56 59.9770000  0  7 16  6 26 17 23 28 22
  15231424.144   -39576635.76349 -30802612.50549  15231425.8254   15231432.4914
  13570494.538   -57963797.17749 -45133689.46649  13570498.7914   13570503.6654
  16910259.378    -7985152.04849  -6184942.64549  16910260.6234   16910267.7734
  14742410.079   -39032962.99049 -29995683.98149  14742413.7164   14742419.9104
  16488245.273   -15158289.06549 -11387143.54849  16488245.9334   16488252.0384
  17902243.445    -3640734.161 9  -2816630.005 9  17902246.762    17902253.808
  17350135.401    -9739456.930 9  -7551843.17949                  17350144.0434
 96  7  9 20 57 29.9770000  0  7 16  6 26 17 23 28 22
  15232453.958   -39571210.60149 -30798385.11849  15232458.0914   15232463.6864
  13558615.580   -58026215.95249 -45182327.47749  13558620.6284   13558625.8494
  16883837.458    -8124012.93449  -6293145.86549  16883837.7634   16883844.2494
  14720700.756   -39147043.47149 -30084577.84549  14720704.9614   14720711.4604
  16457870.608   -15317891.16349 -11511508.76649  16457876.2494   16457881.3704
  17871345.958    -3803095.999 9  -2943145.683 9  17871350.610    17871356.565
  17325399.604    -9869443.56459  -7653131.42249  17325402.4144   17325408.3084
 96  7  9 20 57 59.9770000  0  7 16  6 26 17 23 28 22
  15233554.689   -39565435.19449 -30793884.81049  15233556.6834   15233563.2624
  13546812.941   -58088247.60849 -45230663.83449  13546816.6724   13546821.3554
  16857438.616    -8262715.47149  -6401225.68349  16857442.5014   16857449.5834
  14699024.463   -39260955.87549 -30173340.73649  14699028.1104   14699034.3014
  16427528.386   -15477346.56349 -11635759.65049  16427530.9724   16427538.2194
  17840439.288    -3965529.771 9  -3069717.397 9  17840441.232    17840446.686
  17300731.906    -9999082.90549  -7754149.03649  17300733.8784   17300740.3004
 96  7  9 20 58 29.9770000  0  7 16  6 26 17 23 28 22
  15234727.387   -39559270.58649 -30789081.23449  15234729.7854   15234735.9344
  13535091.937   -58149838.86349 -45278657.03149  13535096.2154   13535101.0534
  16831083.101    -8401198.22549  -6509134.24349  16831090.2704   16831097.1884
  14677382.992   -39374671.04949 -30261949.94849  14677389.0924   14677394.8364
  16397222.424   -15636605.48949 -11759857.43949  16397225.9314   16397232.0544
  17809519.803    -4127992.324 9  -3196311.575 9  17809524.439    17809530.281
  17276131.738   -10128329.46749  -7854860.62749  17276134.9514   17276143.9764
 96  7  9 20 58 59.9770000  0  7 16  6 26 17 23 28 22
  15235981.779   -39552673.35649 -30783940.54549  15235985.9024   15235991.5124
  13523466.694   -58210929.49449 -45326260.12349  13523470.8944   13523476.0024
  16804786.524    -8539403.02849  -6616826.20549  16804790.5324   16804796.9024
  14655794.581   -39488124.37649 -30350355.11949  14655799.1734   14655805.2964
  16366962.481   -15795605.33749 -11883753.36949  16366968.9694   16366976.2794
  17778611.798    -4290429.651 9  -3322886.067 9  17778614.321    17778620.206
  17251626.890   -10257122.39649  -7955218.71849  17251629.0194   17251635.9024
 96  7  9 20 59 29.9770000  0  7 16  6 26 17 23 28 22
  15237309.948   -39545692.40949 -30778500.85249  15237314.1064   15237320.5444
  13511925.934   -58271584.68349 -45373523.91049  13511928.7594   13511933.5094
  16778528.086    -8677365.36349  -6724329.25649  16778537.0184   16778543.3024
  14634246.554   -39601359.27349 -30438590.09349  14634251.2304   14634257.6544
  16336750.868   -15954388.95149 -12007480.77149  16336753.2054   16336760.4254
  17747699.173    -4452883.825 9  -3449473.682 9  17747700.422    17747706.798
  17227193.545   -10385503.24249  -8055255.71549  17227197.9504   17227205.8734
 96  7  9 20 59 59.9770000  0  7 16  6 26 17 23 28 22
  15238723.211   -39538267.13149 -30772714.93849  15238726.9894   15238733.4984
  13500470.679   -58331767.83549 -45420419.87749  13500475.9324   13500481.0774
  16752335.822    -8815020.64249  -6831593.00949  16752341.4754   16752349.5804
  14612757.707   -39714291.92749 -30526589.54649  14612761.1164   14612767.0944
  16306591.264   -16112896.74349 -12130993.27949  16306590.0354   16306597.3824
  17716792.427    -4615290.263 9  -3576024.111 9  17716795.143    17716801.561
  17202856.652   -10513407.49549  -8154921.32749  17202859.9524   17202866.8984
 96  7  9 21  0 29.9770000  0  7 16  6 26 17 23 28 22
  15240212.480   -39530443.29649 -30766618.45749  15240215.7754   15240221.9964
  13489100.417   -58391533.05849 -45466990.18549  13489103.5054   13489108.2094
  16726187.354    -8952430.39649  -6938665.46949  16726193.3114   16726200.1414
  14591319.223   -39826951.11249 -30614375.89849  14591322.5564   14591328.7834
  16276470.171   -16271163.48749 -12254317.95749  16276473.8954   16276479.9354
  17685884.270    -4777694.697 9  -3702572.953 9  17685889.902    17685897.655
  17178600.193   -10640875.85649  -8254247.29849  17178603.1334   17178610.4394
 96  7  9 21  0 59.9770000  0  7 16  6 26 17 23 28 22
  15241793.304   -39522138.20949 -30760146.96949  15241796.3404   15241802.0164
  13477819.862   -58450808.94449 -45513179.18949  13477823.5284   13477828.4244
  16700098.913    -9089518.56049  -7045487.34449  16700105.9444   16700114.4844
  14569949.470   -39939248.95349 -30701880.69749  14569953.0074   14569959.2934
  16246412.486   -16429113.14449 -12377395.54449  16246415.9384   16246423.2404
  17654997.743    -4940024.500 9  -3829063.660 9  17655000.811    17655006.038
  17154443.475   -10767828.93549  -8353171.72449  17154446.5384   17154450.8934
 96  7  9 21  1 29.9770000  0  7 16  6 26 17 23 28 22
  15243452.114   -39513416.14149 -30753350.56549  15243455.9894   15243462.4474
  13466616.515   -58509680.24449 -45559052.93149  13466620.7464   13466625.4284
  16674059.302    -9226357.61349  -7152115.11549  16674066.1194   16674073.6044
  14548633.022   -40051264.53649 -30789165.54949  14548637.4144   14548643.0974
  16216401.799   -16586821.57249 -12500285.14749  16216404.6224   16216411.6914
  17624107.202    -5102355.298 9  -3955555.216 9  17624110.207    17624116.041
  17130366.560   -10894349.98549  -8451759.51149  17130369.8024   17130376.5034
 96  7  9 21  1 59.9770000  0  7 16  6 26 17 23 28 22
  15245206.538   -39504196.71549 -30746166.61749  15245210.3494   15245216.3714
  13455509.002   -58568051.58149 -45604537.08949  13455512.7924   13455517.9424
  16648086.189    -9362868.90149  -7258487.48349  16648089.5734   16648096.5804
  14527387.185   -40162919.25349 -30876169.20849  14527390.0514   14527396.1614
  16186452.928   -16744206.63849 -12622922.80849  16186455.4774   16186462.0134
  17593231.817    -5264601.264 9  -4081980.584 9  17593235.016    17593241.689
  17106388.538   -11020354.97349  -8549945.19649  17106391.2234   17106398.4434
 96  7  9 21  2 29.9770000  0  7 16  6 26 17 23 28 22
  15247048.401   -39494525.05849 -30738630.26749  15247050.6064   15247057.0834
  13444487.408   -58625965.44349 -45649664.78449  13444492.0774   13444497.2354
  16622166.435    -9499085.55349  -7364630.26949  16622168.6694   16622175.8754
  14506192.952   -40274283.91949 -30962946.84449  14506198.0934   14506204.3974
  16156554.027   -16901310.89949 -12745341.63949  16156559.6574   16156566.9924
  17562365.475    -5426809.547 9  -4208376.546 9  17562368.566    17562374.360
  17082499.198   -11145892.76049  -8647766.84049  17082501.3724   17082507.4664
 96  7  9 21  2 59.9770000  0  7 16  6 26 17 23 28 22
  15248959.783   -39484479.94049 -30730802.90249  15248962.5114   15248968.7804
  13433543.429   -58683481.74549 -45694482.68049  13433546.8954   13433552.3514
  16596286.546    -9635049.42949  -7470576.09549  16596296.6914   16596301.6394
  14485043.507   -40385440.93249 -31049562.68149  14485045.7074   14485051.4074
  16126699.101   -17058204.52149 -12867596.34749  16126703.3464   16126711.1964
  17531491.627    -5589043.096 9  -4334792.304 9  17531496.343    17531501.228
  17058685.701   -11271026.39749  -8745273.51949  17058689.4004   17058695.9024
 96  7  9 21  3 29.9770000  0  7 16  6 26 17 23 28 22
  15250922.304   -39474158.13949 -30722759.95949  15250926.4584   15250932.2654
  13422663.543   -58740662.06249 -45739038.77549  13422666.4294   13422671.4724
  16570450.523    -9770829.68649  -7576378.81549  16570456.2514   16570464.6534
  14463910.861   -40496476.06449 -31136083.54849  14463916.4924   14463922.2094
  16096870.721   -17214960.91949 -12989744.10549  16096874.5334   16096881.8054
  17500601.377    -5751371.335 9  -4461281.822 9  17500605.784    17500611.918
  17034939.271   -11395826.30749  -8842520.17949  17034941.2004   17034948.0454
 96  7  9 21  3 59.9770000  0  7 16  6 26 17 23 28 22
  15252953.241   -39463484.21949 -30714442.62949  15252957.3214   15252964.0844
  13411864.923   -58797401.48949 -45783251.32349  13411868.7874   13411874.1084
  16544673.630    -9906333.65149  -7681966.28249  16544671.9334   16544678.5804
  14442824.497   -40607298.75749 -31222438.87449  14442827.6114   14442833.2034
  16067085.152   -17371479.13549 -13111706.28249  16067089.2024   16067096.0784
  17469712.712    -5913703.411 9  -4587774.281 9  17469715.371    17469722.124
  17011273.046   -11520193.23549  -8939429.46449  17011276.3594   17011281.5804
 96  7  9 21  4 29.9770000  0  7 16  6 26 17 23 28 22
  15255031.466   -39452563.52449 -30705933.01849  15255035.8414   15255042.1644
  13401131.517   -58853807.59849 -45827204.14149  13401135.5634   13401140.3094
  16518918.901   -10041652.25249  -7787409.28049  16518921.9054   16518928.5834
  14421756.784   -40718003.66349 -31308702.41749  14421760.7164   14421767.3374
  16037329.608   -17527865.49649 -13233565.75349  16037330.4974   16037336.2354
  17438803.826    -6076145.903 9  -4714352.768 9  17438802.999    17438810.113
  16987668.517   -11644232.93049  -9036083.76449  16987671.5934   16987677.1714
 96  7  9 21  4 59.9770000  0  7 16  6 26 17 23 28 22
  15257180.627   -39441279.68049 -30697140.41349  15257182.9424   15257188.8534
  13390485.871   -58909754.11649 -45870798.84049  13390488.9174   13390494.0294
  16493225.776   -10176670.78849  -7892618.46849  16493228.2584   16493234.7174
  14400738.698   -40828454.67149 -31394768.12449  14400742.9284   14400749.1204
  16007615.084   -17684008.22249 -13355235.34249  16007617.0384   16007623.9474
  17407889.605    -6238574.634 9  -4840920.579 9  17407893.954    17407900.650
  16964148.956   -11767819.97249  -9132385.30749  16964153.1084   16964159.7064
 96  7  9 21  5 29.9770000  0  7 16  6 26 17 23 28 22
  15259399.151   -39429611.98749 -30688048.71249  15259403.3384   15259410.2104
  13379926.165   -58965242.39849 -45914036.46649  13379929.9594   13379935.0384
  16467582.900   -10311402.88249  -7997604.45949  16467589.2714   16467596.2274
  14379774.777   -40938625.99949 -31480615.88749  14379777.9724   14379784.1334
  15977947.993   -17839898.93249 -13476708.55349  15977951.7564   15977959.1504
  17376985.382    -6400980.120 9  -4967470.215 9  17376988.585    17376996.670
  16940718.912   -11890961.90149  -9228340.02649  16940719.7354   16940725.4254
 96  7  9 21  5 59.9770000  0  7 16  6 26 17 23 28 22
  15261697.370   -39417547.52349 -30678647.83649  15261699.2984   15261705.3004
  13369450.425   -59020291.61549 -45956931.96749  13369454.3454   13369459.5884
  16441998.402   -10445858.92149  -8102375.33849  16442003.4464   16442010.2734
  14358860.869   -41048526.82049 -31566252.88049  14358864.4664   14358870.2844
  15948327.387   -17995554.21449 -13597998.31949  15948332.0764   15948338.0954
  17346085.450    -6563370.087 9  -5094007.743 9  17346088.273    17346093.762
  16917366.323   -12013676.41949  -9323961.70149  16917368.4994   16917374.4754
